     2.11           OBSERVATION DATA    G (GPS)             RINEX VERSION / TYPE
teqc 2010Oct21 OPUS Account 20111027 16:48:04UTC            PGM / RUN BY / DATE
C 1525                                                      MARKER NAME
3009                                                        MARKER NUMBER
CSMIDDLETON NGS                                             OBSERVER / AGENCY
0220390627 TRIMBLE R7 2.32                                  REC # / TYPE / VERS
60124849 TRM41249.00 NONE                                   ANT # / TYPE
  -763619.6521 -5540174.4034  3056429.0611                  APPROX POSITION XYZ
        2.0010        0.0000        0.0000                  ANTENNA: DELTA H/E/N
     1     1                                                WAVELENGTH FACT L1/2
     5    L1    L2    C1    P1    P2                        # / TYPES OF OBSERV
    15                                                      LEAP SECONDS
  2011     8    16     0     0   30.0000000     GPS         TIME OF FIRST OBS
                                                            END OF HEADER
 11  8 16  0  0 30.0000000  0  8G17G10G09G12G05G02G04G28
 -40936726.71957 -31869053.75055  22574516.0474                   22574514.6884
 -27692523.84458 -21545449.79756  21284960.1484                   21284959.0124
 -20874682.27757 -16235390.59855  22767972.1724                   22767972.6334
 -17106260.14557 -13300511.49655  22497059.4384                   22497057.7424
  -9700804.60257  -7527916.60554  23436717.2114                   23436718.6094
 -33412680.56658 -26025050.38356  20836689.3594                   20836686.0744
 -40632780.39558 -31571711.34456  20788573.5864                   20788572.2304
 -33863571.66055 -26367687.84452  24043749.7734                   24043752.8244
 11  8 16  0  1  0.0000000  0  8G17G10G09G12G05G02G04G28
 -40933666.18447 -31866668.94545  22575098.6724                   22575097.3834
 -27776971.09048 -21611252.80146  21268890.7114                   21268889.3714
 -20856982.30547 -16221598.44544  22771340.2274                   22771340.7114
 -17230679.39848 -13397461.53145  22473383.1644                   22473381.3014
  -9845356.00447  -7640553.82044  23409210.0784                   23409211.9064
 -33477113.28548 -26075257.66846  20824428.3754                   20824425.0474
 -40612303.57048 -31555755.39546  20792470.4454                   20792468.7814
 -33805346.05546 -26322317.45342  24054830.0944                   24054832.9104
 11  8 16  0  1 30.0000000  0  8G17G10G09G12G05G02G04G28
 -40930452.91447 -31864165.12945  22575710.2194                   22575708.8874
 -27860842.32848 -21676606.97746  21252929.8914                   21252929.0984
 -20838836.20347 -16207458.66445  22774793.8054                   22774794.2384
 -17354810.06248 -13494186.69545  22449761.7194                   22449760.0634
  -9989780.18747  -7753091.94544  23381726.6884                   23381728.3284
 -33541150.28948 -26125156.60246  20812242.5474                   20812239.5004
 -40591483.69548 -31539532.13746  20796432.3834                   20796430.7344
 -33746855.80146 -26276740.81643  24065960.9774                   24065963.4144
 11  8 16  0  2  0.0000000  0  8G17G10G09G12G05G02G04G28
 -40927087.25847 -31861542.54745  22576350.4454                   22576349.3634
 -27944136.15248 -21741511.21946  21237079.8364                   21237078.9344
 -20820247.83647 -16192974.25045  22778331.2114                   22778331.5354
 -17478650.00048 -13590685.32845  22426195.8284                   22426194.1914
 -10134075.30547  -7865529.49645  23354267.7504                   23354269.8054
 -33604792.65648 -26174748.03546  20800131.8984                   20800128.5084
 -40570323.94548 -31523044.04346  20800458.6254                   20800457.6294
 -33688103.67246 -26230960.02343  24077140.9534                   24077143.5084
 11  8 16  0  2 30.0000000  0  8G17G10G09G12G05G02G04G28
 -40923588.04347 -31858815.91445  22577016.0474                   22577014.6484
 -28026869.70748 -21805978.88346  21221336.1724                   21221334.9774
 -20801239.58247 -16178162.64845  22781947.8594                   22781948.7234
 -17602216.41448 -13686970.81245  22402681.5944                   22402679.9694
 -10278257.63747  -7977879.17645  23326831.3594                   23326832.3484
 -33668060.62548 -26224047.71946  20788092.4384                   20788089.2074
 -40548846.24648 -31506308.18746  20804546.1334                   20804544.5594
 -33629111.00046 -26184991.84043  24088366.8134                   24088369.7504
 11  8 16  0  3  0.0000000  0  8G17G10G09G12G05G02G04G28
 -40919948.78947 -31855980.15245  22577709.3444                   22577707.6994
 -28109034.85548 -21870003.62546  21205700.4384                   21205699.6914
 -20781808.61747 -16163021.66844  22785644.7894                   22785646.2074
 -17725500.88348 -13783036.59445  22379221.1804                   22379220.1484
 -10422318.46547  -8090134.15245  23299417.5084                   23299418.4304
 -33730948.72348 -26273051.40646  20776125.3364                   20776121.5864
 -40527046.91848 -31489321.70746  20808694.2974                   20808692.7664
 -33569873.73046 -26138833.02343  24099639.9064                   24099641.9774
 11  8 16  0  3 30.0000000  0  8G17G10G09G12G05G02G04G28
 -40916173.03947 -31853038.02345  22578427.3204                   22578426.3014
 -28190633.77048 -21933587.15246  21190173.3204                   21190171.9494
 -20761962.62147 -16147557.29744  22789422.0704                   22789422.6684
 -17848504.91048 -13878883.84845  22355814.9774                   22355813.0784
 -10566259.31247  -8202295.65645  23272025.7344                   23272027.4104
 -33793461.98048 -26321763.00846  20764229.3054                   20764225.7234
 -40504932.48448 -31472089.69546  20812902.4384                   20812900.9224
 -33510398.09846 -26092488.48443  24110957.8054                   24110959.4734
 11  8 16  0  4  0.0000000  0  8G17G10G09G12G05G02G04G28
 -40912251.07447 -31849981.97345  22579173.7194                   22579172.7624
 -28271655.46948 -21996720.89846  21174754.9614                   21174754.0164
 -20741695.68447 -16131764.89844  22793278.9384                   22793279.4694
 -17971216.56247 -13974503.29345  22332462.8364                   22332461.7464
 -10710067.46147  -8314353.74645  23244660.1414                   23244661.6294
 -33855591.82448 -26370175.85246  20752406.2344                   20752402.6994
 -40482496.34848 -31454607.00846  20817171.7814                   20817170.7704
 -33450676.95346 -26045952.65243  24122322.6094                   24122325.1644
 11  8 16  0  4 30.0000000  0  8G17G10G09G12G05G02G04G28
 -40908187.01647 -31846815.19145  22579947.5704                   22579946.1764
 -28352102.31248 -22059406.71546  21159446.4614                   21159445.3404
 -20721015.84847 -16115650.78145  22797214.1174                   22797214.5664
 -18093638.14148 -14069896.68745  22309167.3444                   22309165.6024
 -10853745.39547  -8426310.35945  23217318.8054                   23217320.3714
 -33917343.68748 -26418294.15646  20740655.6024                   20740651.6214
 -40459745.73848 -31436879.27346  20821501.2504                   20821500.0514
 -33390717.18046 -25999230.85543  24133732.0164                   24133734.9614
 11  8 16  0  5  0.0000000  0  8G17G10G09G12G05G02G04G28
 -40903974.09447 -31843532.41445  22580749.0004                   22580747.3834
 -28431965.90648 -22121638.04746  21144248.6174                   21144247.8914
 -20699919.44947 -16099212.07445  22801228.5164                   22801229.8014
 -18215760.96547 -14165057.29745  22285927.6954                   22285926.6644
 -10997283.48847  -8538158.02045  23190003.9694                   23190005.8594
 -33978711.71148 -26466113.37146  20728977.6564                   20728973.7464
 -40436676.60248 -31418903.34446  20825891.3674                   20825889.9494
 -33330514.41846 -25952319.73443  24145188.4454                   24145192.2194
 11  8 16  0  5 30.0000000  0  8G17G10G09G12G05G02G04G28
 -40899604.46147 -31840127.52745  22581580.6804                   22581579.3594
 -28511237.24648 -22183407.86746  21129163.9774                   21129163.0124
 -20678402.66847 -16082445.78944  22805323.0864                   22805323.9454
 -18337575.33648 -14259977.55146  22262747.7584                   22262745.6884
 -11140671.67247  -8649888.87145  23162718.3754                   23162719.3484
 -34039689.65648 -26513628.62946  20717373.6484                   20717369.6414
 -40413284.21148 -31400675.52346  20830342.2974                   20830341.1414
 -33270063.46546 -25905215.19143  24156692.8754                   24156695.0634
 11  8 16  0  6  0.0000000  0  8G17G10G09G12G05G02G04G28
 -40895072.32047 -31836595.99245  22582442.7584                   22582441.9414
 -28589908.59848 -22244710.18046  21114193.4064                   21114192.3404
 -20656463.45347 -16065350.32844  22809498.0004                   22809498.4694
 -18459073.17647 -14354651.14545  22239627.1414                   22239625.7734
 -11283901.90247  -8761496.63744  23135462.0864                   23135463.4344
 -34100272.65248 -26560836.13346  20705844.8754                   20705841.5744
 -40389565.40648 -31382193.35546  20834856.0634                   20834855.0044
 -33209360.74646 -25857914.51643  24168244.3204                   24168246.6174
 11  8 16  0  6 30.0000000  0  8G17G10G09G12G05G02G04G28
 -40890380.60947 -31832940.14145  22583336.0864                   22583334.3134
 -28667981.78548 -22305546.39146  21099336.5164                   21099335.1604
 -20634108.68047 -16047931.05945  22813752.6484                   22813752.9064
 -18580255.39547 -14449078.81645  22216566.9774                   22216565.3914
 -11426974.48847  -8872981.57045  23108236.7344                   23108237.4574
 -34160465.02348 -26607739.25446  20694390.9924                   20694387.1954
 -40365526.36348 -31363461.64846  20839430.3914                   20839429.7584
 -33148412.25646 -25810422.26543  24179842.0944                   24179844.5984
 11  8 16  0  7  0.0000000  0  8G17G10G09G12G05G02G04G28
 -40885536.17647 -31829165.27345  22584257.5084                   22584256.1954
 -28745462.38348 -22365920.83646  21084592.5944                   21084591.3874
 -20611349.09847 -16030196.34445  22818083.1884                   22818083.9414
 -18701127.08647 -14543264.51246  22193566.4064                   22193564.5044
 -11569893.94147  -8984347.19145  23081039.5474                   23081040.8204
 -34220274.62148 -26654344.10246  20683009.2344                   20683005.5514
 -40341176.96148 -31344488.11346  20844064.3364                   20844062.9144
 -33087227.13746 -25762745.69943  24191485.4924                   24191488.1524
 11  8 16  0  7 30.0000000  0  8G17G10G09G12G05G02G04G28
 -40880542.05547 -31825273.78545  22585207.6024                   22585206.5314
 -28822352.03148 -22425834.80546  21069960.4844                   21069959.6724
 -20588191.29747 -16012151.35944  22822489.7344                   22822491.2854
 -18821688.79748 -14637208.68046  22170623.7034                   22170621.8324
 -11712661.28947  -9095594.32445  23053871.5634                   23053872.0084
 -34279706.05948 -26700654.28946  20671700.2664                   20671696.6374
 -40316522.87148 -31325277.14846  20848755.5004                   20848754.6214
 -33025811.02746 -25714889.10942  24203171.8284                   24203175.1684
 11  8 16  0  8  0.0000000  0  8G17G10G09G12G05G02G04G28
 -40875396.33247 -31821264.15645  22586187.0234                   22586186.0784
 -28898647.53148 -22485285.80546  21055442.0554                   21055441.3674
 -20564637.12947 -15993797.48845  22826972.3524                   22826972.9304
 -18941937.30148 -14730908.75446  22147741.3284                   22147739.2624
 -11855272.16847  -9206719.50045  23026733.5314                   23026734.1334
 -34338758.78548 -26746669.37146  20660462.0864                   20660458.8714
 -40291565.45348 -31305829.82446  20853504.5784                   20853504.1524
 -32964164.93745 -25666853.37142  24214903.1174                   24214906.9304
 11  8 16  0  8 30.0000000  0  8G17G10G09G12G05G02G04G28
 -40870103.16447 -31817139.64545  22587194.2344                   22587193.3364
 -28974351.66048 -22544275.98446  21041035.7814                   21041034.8094
 -20540694.97747 -15975141.30544  22831528.0084                   22831529.1334
 -19061874.66047 -14824366.40246  22124917.9614                   22124916.0704
 -11997728.62547  -9317724.33645  22999624.6414                   22999625.5394
 -34397438.27748 -26792393.61346  20649296.1414                   20649292.3284
 -40266311.75448 -31286151.61746  20858310.6644                   20858309.4654
 -32902295.23445 -25618643.35542  24226676.8524                   24226681.2074
 11  8 16  0  9  0.0000000  0  8G17G10G09G12G05G02G04G28
 -40864645.83647 -31812887.20345  22588233.1174                   22588232.6174
 -29049446.38748 -22602791.32846  21026746.1334                   21026744.9414
 -20516351.55147 -15956172.44545  22836161.1954                   22836161.3524
 -19181481.85248 -14917566.77346  22102157.3524                   22102155.9184
 -12140010.93447  -9428593.50845  22972549.1564                   22972550.0474
 -34455729.09448 -26837815.01246  20638203.7344                   20638200.1844
 -40240748.05948 -31266231.87546  20863175.2734                   20863174.0004
 -32840188.02046 -25570248.22342  24238496.1024                   24238500.9734
 11  8 16  0  9 30.0000000  0  7G17G10G09G12G05G02G04
 -40859040.51647 -31808519.45345  22589299.8134                   22589298.1604
 -29123946.58248 -22660843.39146  21012568.8754                   21012567.7894
 -20491627.50047 -15936906.98445  22840865.6024                   22840866.3404
 -19300773.57448 -15010521.32046  22079456.6804                   22079454.8674
 -12282133.43747  -9539338.15245  22945503.9614                   22945505.1804
 -34513648.94548 -26882947.33646  20627182.0004                   20627178.3674
 -40214893.49648 -31246085.46546  20868095.1334                   20868094.1374
 11  8 16  0 10  0.0000000  0  7G17G10G09G12G05G02G04
 -40853286.54747 -31804035.88345  22590394.7734                   22590393.7734
 -29197849.98448 -22718430.43046  20998505.7344                   20998504.7114
 -20466525.06647 -15917346.69945  22845642.8914                   22845643.6764
 -19419746.63747 -15103227.57846  22056816.8134                   22056815.0664
 -12424092.58647  -9649955.50445  22918490.2974                   22918490.4964
 -34571197.87948 -26927790.64146  20616230.5634                   20616227.1414
 -40188750.16048 -31225714.04746  20873070.1414                   20873068.9344
 11  8 16  0 10 30.0000000  0  7G17G10G09G12G05G02G04
 -40847381.54347 -31799434.60945  22591518.3134                   22591517.0314
 -29271153.42648 -22775549.96146  20984556.6484                   20984555.5274
 -20441046.34447 -15897493.19544  22850491.0234                   22850491.9344
 -19538396.65248 -15195682.09846  22034238.5784                   22034237.3244
 -12565883.77047  -9760441.97345  22891508.1174                   22891508.5864
 -34628375.05548 -26972344.27046  20605350.0944                   20605346.4844
 -40162318.77748 -31205118.18046  20878100.0314                   20878098.7464
 11  8 16  0 11  0.0000000  0  7G17G10G09G12G05G02G04
 -40841312.41847 -31794705.47745  22592672.4384                   22592672.5664
 -29343842.39148 -22832190.69946  20970723.9144                   20970723.0004
 -20415182.14147 -15877339.34444  22855412.5784                   22855413.6684
 -19656708.75848 -15287873.33246  22011724.7974                   22011722.6094
 -12707491.47347  -9870785.48845  22864560.5004                   22864561.6214
 -34685169.16048 -27016599.40246  20594542.3204                   20594539.3954
 -40135589.00048 -31184289.81246  20883186.3364                   20883185.4654
 11  8 16  0 11 30.0000000  0  7G17G10G09G12G05G02G04
 -40835073.14547 -31789843.74645  22593860.6484                   22593859.9304
 -29415910.11348 -22888347.34446  20957009.7344                   20957008.8204
 -20388930.32047 -15856883.43044  22860408.6484                   22860409.0704
 -19774674.96548 -15379795.02046  21989276.3364                   21989274.4884
 -12848907.62947  -9980979.72745  22837650.0394                   22837651.0784
 -34741575.32048 -27060552.24646  20583809.1484                   20583805.5004
 -40108557.84848 -31163226.58646  20888330.2974                   20888329.2154
 11  8 16  0 12  0.0000000  0  7G17G10G09G12G05G02G04
 -40828677.29747 -31784860.00045  22595077.9924                   22595077.0434
 -29487368.92648 -22944029.50446  20943411.5784                   20943410.4264
 -20362308.31247 -15836139.05144  22865474.3674                   22865474.8284
 -19892306.93447 -15471456.27046  21966891.3834                   21966890.0434
 -12990143.60247 -10091033.57845  22810773.8204                   22810774.1684
 -34797608.38348 -27104214.35946  20573146.4144                   20573142.6334
 -40081241.98048 -31141941.50446  20893528.2894                   20893526.9804
 11  8 16  0 12 30.0000000  0  7G17G10G09G12G05G02G04
 -40822121.86347 -31779751.89845  22596325.4774                   22596324.4494
 -29558214.32448 -22999233.68446  20929930.6804                   20929928.9844
 -20335317.16847 -15815107.05544  22870610.3524                   22870611.4344
 -20009599.30548 -15562852.88746  21944571.8984                   21944569.8794
 -13131193.81247 -10200942.67645  22783932.3594                   22783933.4344
 -34853266.82448 -27147584.55546  20562554.7664                   20562551.1374
 -40053641.39548 -31120434.55946  20898780.2894                   20898779.1454
 11  8 16  0 13  0.0000000  0  7G17G10G09G12G05G02G04
 -40815398.25447 -31774512.76245  22597604.4304                   22597603.5824
 -29628436.97348 -23053952.60246  20916567.5394                   20916566.2814
 -20307951.80947 -15793783.45344  22875818.4064                   22875819.3134
 -20126541.85247 -15653976.92646  21922318.1094                   21922316.4884
 -13272047.12547 -10310698.35545  22757128.8284                   22757129.1374
 -34908543.32048 -27190657.13346  20552036.3914                   20552032.4184
 -40025749.95048 -31098700.97646  20904088.0394                   20904086.9924
 11  8 16  0 13 30.0000000  0  7G17G10G09G12G05G02G04
 -40808508.43747 -31769144.10245  22598916.0164                   22598914.8554
 -29698037.78948 -23108186.96946  20903322.8284                   20903321.3834
 -20280218.51247 -15772173.16444  22881095.3914                   22881096.6954
 -20243134.75448 -15744828.52346  21900131.5944                   21900129.3634
 -13412703.31247 -10420300.43445  22730362.9844                   22730363.4574
 -34963441.58648 -27233434.98046  20541589.2504                   20541585.4494
 -39997573.39148 -31076745.22346  20909450.0784                   20909448.5354
 11  8 16  0 14  0.0000000  0  7G17G10G09G12G05G02G04
 -40801444.59047 -31763639.84045  22600259.9454                   22600258.8674
 -29767007.82448 -23161929.82046  20890198.1024                   20890197.1804
 -20252113.12147 -15750272.91844  22886443.6024                   22886444.3874
 -20359367.82048 -15835399.71145  21878012.8364                   21878010.4734
 -13553151.96147 -10529740.80945  22703636.0634                   22703636.1484
 -35017954.91448 -27275912.87946  20531215.7734                   20531211.7894
 -39969106.02348 -31054562.86746  20914866.7274                   20914865.3324
 11  8 16  0 14 30.0000000  0  7G17G10G09G12G05G02G04
 -40794200.80547 -31757995.35245  22601638.3914                   22601637.8054
 -29835340.19148 -23215175.78546  20877194.7584                   20877193.8674
 -20223633.96947 -15728081.44544  22891864.0004                   22891863.8714
 -20475233.48848 -15925684.61746  21855964.3914                   21855962.5004
 -13693384.76247 -10639012.98445  22676951.0864                   22676951.4534
 -35072078.94548 -27318087.43046  20520916.1644                   20520912.2034
 -39940345.34448 -31032151.95346  20920340.1804                   20920338.7544
 11  8 16  0 15  0.0000000  0  7G17G10G09G12G05G02G04
 -39211367.22347 -30524618.54345  22902841.5234                   22902840.6724
 -28327621.53148 -22040330.05946  21164104.5394                   21164103.2934
 -18619375.66447 -14478010.10944  23197144.1174                   23197145.2274
 -19015315.68447 -14788086.31646  22133777.4384                   22133775.8164
 -12257984.91447  -9520519.48045  22950097.7584                   22950098.9614
 -33550403.28548 -26132366.12946  20810481.4924                   20810477.5354
 -38335885.09048 -29781923.19546  21225658.7664                   21225657.1724
 11  8 16  0 15 30.0000000  0  7G17G10G09G12G05G02G04
 -39203784.30947 -30518709.79745  22904284.9534                   22904283.6884
 -28394696.18748 -22092595.98046  21151340.8754                   21151339.1724
 -18590181.38347 -14455261.39844  23202699.7424                   23202700.5784
 -19130461.26647 -14877810.10546  22111865.7344                   22111863.9104
 -12397800.04347  -9629466.20345  22923492.0004                   22923491.9734
 -33603773.84448 -26173953.55146  20800325.2814                   20800321.4574
 -38306567.10248 -29759078.01646  21231237.7274                   21231236.1134
 11  8 16  0 16  0.0000000  0  7G17G10G09G12G05G02G04
 -39196041.01647 -30512676.06645  22905758.3754                   22905756.6564
 -28461149.80548 -22144377.98846  21138694.7584                   21138693.6054
 -18560644.52747 -14432245.73044  23208321.9224                   23208320.3834
 -19245252.75048 -14967258.00046  22090021.7584                   22090020.0394
 -12537412.15647  -9738254.73845  22896924.8594                   22896925.2504
 -33656778.87548 -26215256.15246  20790238.7274                   20790235.2774
 -38276983.94148 -29736026.20746  21236866.9694                   21236866.0984
 11  8 16  0 16 30.0000000  0  7G17G10G09G12G05G02G04
 -39188126.09447 -30506508.61745  22907264.9384                   22907263.3634
 -28526970.19148 -22195666.57046  21126169.5944                   21126168.2304
 -18530757.60547 -14408957.31244  23214006.9534                   23214008.0784
 -19359677.13748 -15056419.83646  22068247.6024                   22068245.7154
 -12676807.41847  -9846874.29745  22870398.5864                   22870399.0234
 -33709408.48448 -26256266.21546  20780223.7344                   20780220.1604
 -38247127.24648 -29712761.26646  21242549.0704                   21242548.4144
 11  8 16  0 17  0.0000000  0  7G17G10G09G12G05G02G04
 -39180046.59047 -30500212.91045  22908802.2814                   22908800.8794
 -28592163.61748 -22246466.60546  21113763.3364                   21113762.7384
 -18500531.71147 -14385404.73044  23219758.7194                   23219759.6454
 -19473739.43747 -15145299.52746  22046542.1804                   22046540.6484
 -12815990.44947  -9955328.46145  22843912.7584                   22843913.1134
 -33761671.44548 -26296990.58646  20770278.5234                   20770274.6094
 -38217006.92248 -29689290.88346  21248280.2114                   21248279.3874
 11  8 16  0 17 30.0000000  0  7G17G10G09G12G05G02G04
 -39171799.14147 -30493786.33645  22910371.1254                   22910370.2934
 -28656726.11348 -22296775.01646  21101477.4924                   21101476.5434
 -18469967.77047 -14361588.76244  23225575.5084                   23225576.1724
 -19587434.57048 -15233893.10946  22024906.8444                   22024904.7194
 -12954955.57047 -10063612.85545  22817468.6024                   22817469.2274
 -33813565.96548 -26337427.85546  20760403.0314                   20760399.3524
 -38186622.89848 -29665615.03946  21254062.3754                   21254061.0514
 11  8 16  0 18  0.0000000  0  7G17G10G09G12G05G02G04
 -39163375.98447 -30487222.87145  22911974.0474                   22911972.8554
 -28720648.57848 -22346584.69946  21089313.7504                   21089312.5084
 -18439061.75047 -14337506.23044  23231456.3364                   23231457.4414
 -19700752.22747 -15322192.55146  22003343.1334                   22003341.2624
 -13093692.72747 -10171719.58245  22791067.6644                   22791067.8834
 -33865085.28148 -26377572.75446  20750599.4304                   20750595.7034
 -38155969.81248 -29641729.53546  21259895.2274                   21259894.0634
 11  8 16  0 18 30.0000000  0  7G17G10G09G12G05G02G04
 -39154786.04747 -30480529.43045  22913608.5084                   22913607.7424
 -28783939.57048 -22395902.32846  21077269.8134                   21077268.7194
 -18407826.51647 -14313167.15244  23237401.0864                   23237401.9694
 -19813700.30147 -15410204.00846  21981849.5234                   21981848.0824
 -13232208.21147 -10279653.61345  22764708.8594                   22764709.4924
 -33916240.39148 -26417433.86346  20740864.4774                   20740860.9344
 -38125059.52048 -29617643.60246  21265777.5554                   21265776.5434
 11  8 16  0 19  0.0000000  0  7G17G10G09G12G05G02G04
 -39146029.45347 -30473706.12945  22915275.4454                   22915274.1294
 -28846598.12948 -22444727.16046  21065346.2814                   21065345.0004
 -18376266.25047 -14288574.81644  23243406.4454                   23243406.9144
 -19926276.27748 -15497925.50046  21960427.3754                   21960425.5204
 -13370499.77747 -10387413.14845  22738392.7664                   22738393.1134
 -33967032.55948 -26457012.15246  20731199.3444                   20731195.7774
 -38093895.12548 -29593359.67646  21271707.9384                   21271706.9534
 11  8 16  0 19 30.0000000  0  7G17G10G09G12G05G02G04
 -39137094.39847 -30466743.78145  22916975.0784                   22916974.2384
 -28908611.91048 -22493049.55146  21053545.2584                   21053544.3594
 -18344373.14547 -14263723.10944  23249475.4304                   23249476.6254
 -20038466.20747 -15585346.19946  21939078.1024                   21939076.2234
 -13508553.20347 -10494987.10945  22712121.8204                   22712122.3204
 -34017451.72348 -26496299.78946  20721605.0704                   20721601.3324
 -38062467.65248 -29568870.75446  21277688.1174                   21277687.2074
 11  8 16  0 20  0.0000000  0  7G17G10G09G12G05G02G04
 -39127986.58247 -30459646.82045  22918708.5784                   22918707.8984
 -28969985.76248 -22540873.30946  21041866.2664                   21041864.9224
 -18312157.03547 -14238619.73844  23255606.2274                   23255607.0004
 -20150274.65247 -15672469.62946  21917801.7344                   21917799.8324
 -13646372.37947 -10602378.57845  22685896.0004                   22685895.9884
 -34067504.53148 -26535301.95346  20712080.3444                   20712076.4804
 -38030785.87148 -29544183.66446  21283717.2344                   21283716.3594
 11  8 16  0 20 30.0000000  0  7G17G10G09G12G05G02G04
 -39118705.60947 -30452414.91445  22920474.7034                   22920474.0314
 -29030718.92647 -22588197.82846  21030309.3204                   21030308.2114
 -18279621.77047 -14213267.65644  23261798.0634                   23261798.9614
 -20261699.10548 -15759293.84846  21896598.6564                   21896596.5744
 -13783954.39147 -10709585.23045  22659714.7114                   22659714.6764
 -34117193.03548 -26574020.26246  20702624.5004                   20702621.0634
 -37998852.47748 -29519300.52046  21289793.8054                   21289792.6914
 11  8 16  0 21  0.0000000  0  7G17G10G09G12G05G02G04
 -39109248.23447 -30445045.58645  22922274.3364                   22922273.5234
 -29090807.05948 -22635019.73046  21018874.8054                   21018873.4534
 -18246767.50447 -14187667.00444  23268049.6414                   23268050.7544
 -20372734.02347 -15845814.51646  21875468.9304                   21875467.3794
 -13921293.29747 -10816602.43445  22633579.6954                   22633579.9304
 -34166514.99648 -26612452.93446  20693238.9534                   20693235.5744
 -37966666.56248 -29494220.59846  21295918.9534                   21295917.8714
 11  8 16  0 21 30.0000000  0  7G17G10G09G12G05G02G04
 -39099620.54347 -30437543.50845  22924106.6024                   22924106.0124
 -29150255.47748 -22681343.14546  21007561.9454                   21007560.6994
 -18213604.11747 -14161825.46544  23274360.3364                   23274361.2464
 -20483383.53147 -15932034.88746  21854412.8674                   21854411.3524
 -14058392.08647 -10923432.53945  22607490.8054                   22607490.8484
 -34215477.68048 -26650605.65646  20683921.8524                   20683918.2114
 -37934236.99648 -29468950.80946  21302089.9614                   21302089.1524
 11  8 16  0 22  0.0000000  0  7G17G10G09G12G05G02G04
 -39089809.82447 -30429898.82845  22925973.8284                   22925972.8404
 -29209051.44948 -22727158.16046  20996373.3914                   20996372.1134
 -18180123.71547 -14135736.91444  23280731.0234                   23280732.3674
 -20593633.50047 -16017943.91846  21833433.0164                   21833431.3364
 -14195237.15247 -11030064.92245  22581449.7344                   22581450.0944
 -34264070.71148 -26688470.34446  20674674.4454                   20674671.3634
 -37901554.54348 -29443483.98046  21308308.9384                   21308307.9844
 11  8 16  0 22 30.0000000  0  7G17G10G09G12G05G02G04
 -39079820.74247 -30422115.17645  22927874.5784                   22927873.3164
 -29267199.23048 -22772468.10246  20985308.4534                   20985306.9614
 -18146334.73847 -14109407.88344  23287161.2034                   23287162.5234
 -20703486.42648 -16103543.56246  21812529.0784                   21812527.0904
 -14331830.21947 -11136500.96945  22555457.1564                   22555456.7304
 -34312300.08648 -26726051.65246  20665497.1644                   20665493.1764
 -37868626.47748 -29417825.75846  21314574.8364                   21314573.8014
 11  8 16  0 23  0.0000000  0  7G17G10G09G12G05G02G04
 -39069649.94547 -30414189.91445  22929809.9454                   22929808.9264
 -29324694.26248 -22817269.39846  20974367.3524                   20974366.1134
 -18112237.40247 -14082838.60544  23293649.5704                   23293650.9574
 -20812936.60248 -16188829.39146  21791701.3444                   21791699.0784
 -14468165.04747 -11242735.77345  22529513.2814                   22529513.2194
 -34360163.35948 -26763347.69146  20656388.9224                   20656385.0904
 -37835451.70348 -29391975.30546  21320888.3444                   21320886.8284
 11  8 16  0 23 30.0000000  0  8G17G10G09G12G05G02G04G25
 -39059302.10247 -30406126.69145  22931779.1954                   22931778.0634
 -29381540.81248 -22861565.38746  20963549.9064                   20963548.5944
 -18077840.44947 -14056035.84444  23300195.6254                   23300196.5204
 -20921986.91048 -16273803.62546  21770949.5394                   21770947.6214
 -14604244.52347 -11348771.61345  22503617.9384                   22503618.3364
 -34407667.02048 -26800363.51646  20647349.3674                   20647345.4884
 -37802037.96148 -29365938.63746  21327246.3204                   21327245.1564
   1366337.02756   1094192.12153  24655592.0784                   24655594.4534
 11  8 16  0 24  0.0000000  0  8G17G10G09G12G05G02G04G25
 -39048780.71947 -30397928.24245  22933781.5004                   22933780.2194
 -29437742.00848 -22905358.50046  20952854.9614                   20952853.5864
 -18043151.92247 -14029005.89544  23306796.7344                   23306797.3014
 -21030639.35947 -16358467.83246  21750273.5554                   21750271.6954
 -14740069.91447 -11454609.46145  22477771.2734                   22477770.9574
 -34454816.54348 -26837103.39547  20638377.0084                   20638373.3484
 -37768392.16448 -29339721.14546  21333649.4844                   21333648.5204
   1224560.50846    983716.94943  24628612.6564                   24628615.2974
 11  8 16  0 24 30.0000000  0  8G17G10G09G12G05G02G04G25
 -39038087.28147 -30389595.71945  22935815.7504                   22935815.2274
 -29493298.71148 -22948649.41446  20942282.9064                   20942281.4924
 -18008176.56647 -14001752.43044  23313451.5784                   23313453.1334
 -21138893.04348 -16442821.34446  21729673.6174                   21729671.9694
 -14875639.45347 -11560247.94145  22451973.4454                   22451973.6024
 -34501614.51248 -26873569.32046  20629471.9384                   20629468.3634
 -37734518.02748 -29313325.73046  21340095.3914                   21340094.2974
   1082923.03546    873350.12943  24601661.0004                   24601662.5164
 11  8 16  0 25  0.0000000  0  8G17G10G09G12G05G02G04G25
 -39027217.34047 -30381125.65645  22937884.5864                   22937883.9964
 -29548206.51648 -22991434.69946  20931834.4694                   20931833.1054
 -17972914.82447 -13974275.78544  23320162.1334                   23320163.2344
 -21246742.30148 -16526859.69946  21709151.0084                   21709148.6174
 -15010947.07447 -11665682.34445  22426224.6254                   22426224.6214
 -34548058.71548 -26909759.59046  20620633.6334                   20620629.8674
 -37700414.43748 -29286751.51246  21346584.7344                   21346583.8874
    941430.43046    763096.21143  24574735.2584                   24574737.3714
 11  8 16  0 25 30.0000000  0  8G17G10G09G12G05G02G04G25
 -39016172.70747 -30372519.48445  22939986.3754                   22939985.6174
 -29602466.40248 -23033715.10546  20921508.9454                   20921507.5704
 -17937371.69947 -13946579.92244  23326926.0314                   23326927.8834
 -21354186.62147 -16610582.52746  21688704.6804                   21688702.3524
 -15145992.17247 -11770912.17646  22400526.7734                   22400526.5234
 -34594152.20348 -26945676.57446  20611862.5784                   20611858.5354
 -37666085.53148 -29260001.73446  21353117.6564                   21353116.3404
    800083.09446    652955.46143  24547836.9534                   24547840.0664
 11  8 16  0 26  0.0000000  0  8G17G10G09G12G05G02G04G25
 -39004955.13347 -30363778.54745  22942121.2504                   22942120.4064
 -29656079.47348 -23075491.50046  20911306.7344                   20911305.5474
 -17901553.28947 -13918669.53144  23333741.9774                   23333743.2344
 -21461225.57448 -16693989.48846  21668335.8054                   21668333.6994
 -15280773.75047 -11875936.67245  22374879.0944                   22374878.2934
 -34639898.07848 -26981322.70346  20603157.2894                   20603153.5314
 -37631536.00048 -29233080.04746  21359692.2664                   21359691.0084
    658881.23046    542928.04743  24520967.6884                   24520969.7734
 11  8 16  0 26 30.0000000  0  8G17G10G09G12G05G02G04G25
 -38993562.51247 -30354901.21945  22944289.0004                   22944288.3954
 -29709043.46148 -23116762.11746  20901228.1334                   20901226.4924
 -17865461.29747 -13890545.94544  23340610.3364                   23340611.2344
 -21567855.19948 -16777077.48846  21648044.6334                   21648042.8094
 -15415287.68047 -11980752.60945  22349281.0394                   22349281.0904
 -34685295.66448 -27016697.41846  20594518.1644                   20594514.4884
 -37596766.26648 -29205986.76646  21366308.4534                   21366307.5084
    517828.80547    433017.12944  24494126.2274                   24494128.6414
 11  8 16  0 27  0.0000000  0  8G17G10G09G12G05G02G04G25
 -38981985.91047 -30345880.51645  22946491.7664                   22946491.5354
 -29761349.46148 -23157520.01646  20891274.7424                   20891273.0044
 -17829091.21147 -13862205.72744  23347530.8134                   23347532.9144
 -21674065.04747 -16859838.38346  21627833.9224                   21627831.6804
 -15549522.61347 -12085351.15645  22323737.3444                   22323737.3754
 -34730338.33248 -27051795.58646  20585947.0084                   20585943.4774
 -37561770.64148 -29178717.46146  21372968.0784                   21372966.9774
    376936.50447    323230.96944  24467315.6484                   24467317.8984
 11  8 16  0 27 30.0000000  0  8G17G10G09G12G05G02G04G25
 -38970218.35247 -30336711.00045  22948730.9144                   22948730.4884
 -29812989.80148 -23197759.23046  20881447.7664                   20881446.2854
 -17792439.73847 -13833646.17644  23354505.7664                   23354506.5164
 -21779846.16048 -16942265.20746  21607704.2664                   21607701.9574
 -15683468.78147 -12189724.67245  22298247.9144                   22298247.3754
 -34775019.98448 -27086612.44546  20577444.3984                   20577440.4064
 -37526544.34448 -29151268.42646  21379671.2974                   21379670.1054
    236213.45747    213576.73444  24440536.7114                   24440539.1334
 11  8 16  0 28  0.0000000  0  8G17G10G09G12G05G02G04G25
 -38958271.85247 -30327402.05545  22951005.1024                   22951003.8284
 -29863976.50048 -23237489.10246  20871745.1334                   20871743.7854
 -17755522.70347 -13804879.74644  23361530.8594                   23361532.9924
 -21885208.67247 -17024365.84446  21587654.3054                   21587652.5824
 -15817136.22747 -12293881.02745  22272811.7734                   22272811.6884
 -34819354.73448 -27121158.98846  20569007.8914                   20569004.0164
 -37491102.40648 -29123651.34446  21386415.3834                   21386414.7774
     95649.47347    104046.43444  24413788.6024                   24413790.6374
 11  8 16  0 28 30.0000000  0  8G17G10G09G12G05G02G04G25
 -38946132.26647 -30317942.64845  22953314.6484                   22953314.0124
 -29914295.37548 -23276698.59046  20862169.8134                   20862168.5084
 -17718330.57447 -13775898.94144  23368608.1804                   23368609.5394
 -21990136.52748 -17106127.77746  21567686.9774                   21567685.5314
 -15950508.66047 -12397807.48845  22247431.5394                   22247431.0704
 -34863330.25848 -27155425.61346  20560639.3754                   20560635.9064
 -37455433.78948 -29095857.62946  21393203.2034                   21393202.2194
    -44739.80147     -5347.73044  24387072.7274                   24387074.9184
 11  8 16  0 29  0.0000000  0  8G17G10G09G12G05G02G04G25
 -38933817.51647 -30308346.76245  22955658.3134                   22955657.0274
 -29963963.69148 -23315401.15646  20852718.4064                   20852717.0514
 -17680885.04747 -13746720.62544  23375734.4064                   23375735.3984
 -22094645.68448 -17187563.45346  21547799.5314                   21547797.7114
 -16083601.38747 -12501516.01245  22222104.9064                   22222104.4304
 -34906965.50448 -27189427.08646  20552335.5394                   20552332.1954
 -37419558.82048 -29067903.13746  21400029.7114                   21400028.9734
   -184969.98847   -114617.93044  24360387.9924                   24360389.8524
 11  8 16  0 29 30.0000000  0  8G17G10G09G12G05G02G04G25
 -38921312.41447 -30298602.53145  22958037.3204                   22958036.8794
 -30012965.83248 -23353584.61746  20843393.6254                   20843392.1884
 -17643174.86346 -13717336.16044  23382910.2424                   23382912.1094
 -22198718.95748 -17268659.49246  21527995.0864                   21527993.3634
 -16216396.52347 -12604992.63345  22196834.7504                   22196834.4924
 -34950247.16848 -27223153.04346  20544099.6884                   20544096.0514
 -37383464.98848 -29039778.07845  21406898.3754                   21406897.8954
   -325024.00447   -223750.83644  24333736.9304                   24333738.8284
 11  8 16  0 30  0.0000000  0  8G17G10G09G12G05G02G04G25
 -38908624.71947 -30288716.02745  22960452.1644                   22960451.2894
 -30061309.57048 -23391255.04346  20834193.7734                   20834192.3554
 -17605211.76647 -13687754.57444  23390134.1644                   23390135.2934
 -22302362.66448 -17349420.78546  21508272.6024                   21508270.2854
 -16348899.76647 -12708241.81245  22171620.3364                   22171619.1644
 -34993184.70348 -27256610.85546  20535928.9304                   20535924.9734
 -37347162.85548 -29011490.73445  21413806.6334                   21413805.5864
   -464907.73846   -332751.08244  24307117.4454                   24307119.1254
 11  8 16  0 30 30.0000000  0  8G17G10G09G12G05G02G04G25
 -38895745.35247 -30278680.15644  22962902.8674                   22962902.4184
 -30108986.04348 -23428405.51646  20825121.4384                   20825120.0234
 -17566990.68446 -13657971.99244  23397407.6334                   23397409.5744
 -22405566.04748 -17429838.97746  21488633.4694                   21488631.7304
 -16481099.69547 -12811254.64145  22146462.9224                   22146462.7664
 -35035770.44948 -27289794.54346  20527825.0474                   20527820.8204
 -37310646.17648 -28983036.19146  21420755.4774                   21420754.2074
   -604610.12546   -441610.03943  24280533.4924                   24280534.8484
 11  8 16  0 31  0.0000000  0  8G17G10G09G12G05G02G04G25
 -38882692.09447 -30268508.81645  22965387.0554                   22965386.0124
 -30156012.71948 -23465049.66446  20816172.3284                   20816170.9654
 -17528533.46947 -13628005.40644  23404726.5164                   23404727.0554
 -22508344.54348 -17509926.09046  21469075.8204                   21469073.1764
 -16613011.86347 -12914043.24646  22121361.0784                   22121360.5904
 -35078024.00048 -27322719.37146  20519784.6334                   20519780.7344
 -37273935.27748 -28954430.30946  21427741.4384                   21427741.0164
   -744147.02346   -550340.01643  24253980.1644                   24253982.1254
 11  8 16  0 31 30.0000000  0  8G17G10G09G12G05G02G04G25
 -38869452.42647 -30258192.21545  22967906.4454                   22967905.8754
 -30202376.81248 -23501177.49646  20807349.5394                   20807348.0164
 -17489831.16847 -13597847.78944  23412091.0944                   23412092.0984
 -22610683.50848 -17589670.70746  21449600.9454                   21449598.9964
 -16744620.99648 -13016595.71546  22096316.7504                   22096316.1804
 -35119934.07048 -27355376.55546  20511809.4304                   20511805.7894
 -37237020.07848 -28925665.23446  21434766.2034                   21434765.5204
   -883503.77046   -658929.61343  24227461.3524                   24227463.5004
 11  8 16  0 32  0.0000000  0  8G17G10G09G12G05G02G04G25
 -38856033.22747 -30247735.71145  22970460.4384                   22970459.1414
 -30248085.35248 -23536794.52746  20798651.6804                   20798650.2304
 -17450895.05947 -13567508.07044  23419500.2814                   23419501.1884
 -22712588.21548 -17669076.93746  21430209.0314                   21430207.1094
 -16875931.89547 -13118915.78546  22071329.3204                   22071328.6334
 -35161509.40648 -27387772.90646  20503897.8754                   20503893.8324
 -37199910.53548 -28896748.72346  21441827.8364                   21441826.9884
  -1022685.35946   -767382.75843  24200975.8914                   24200977.6914
 11  8 16  0 32 30.0000000  0  8G17G10G09G12G05G02G04G25
 -38842417.64847 -30237126.19145  22973050.6804                   22973050.6684
 -30293121.63348 -23571887.70746  20790081.4454                   20790079.7704
 -17411712.44547 -13536976.22744  23426956.0634                   23426957.1564
 -22814040.38748 -17748130.55546  21410903.4534                   21410901.4264
 -17006925.27747 -13220988.45745  22046401.2814                   22046400.6914
 -35202735.22348 -27419896.89846  20496052.7664                   20496048.9654
 -37162592.37148 -28867669.66445  21448929.7034                   21448928.3484
  -1161673.24646   -875684.96143  24174526.8444                   24174528.8404
 11  8 16  0 33  0.0000000  0  8G17G10G09G12G05G02G04G25
 -38828604.87547 -30226363.01645  22975679.5634                   22975678.6254
 -30337484.59048 -23606456.22346  20781639.7504                   20781637.5634
 -17372286.47347 -13506254.75844  23434459.4534                   23434460.3324
 -22915036.93448 -17826829.13346  21391684.7424                   21391682.5594
 -17137598.26247 -13322811.45346  22021535.0784                   22021534.9454
 -35243612.16448 -27451749.04746  20488274.0944                   20488270.0164
 -37125067.47748 -28838429.49645  21456069.8134                   21456069.1094
  -1300464.41146   -983833.90343  24148116.6564                   24148118.0004
 11  8 16  0 33 30.0000000  0  8G17G10G09G12G05G02G04G25
 -38814604.33247 -30215453.52345  22978343.3914                   22978343.5594
 -30381183.45347 -23640507.26246  20773323.7974                   20773322.5164
 -17332630.09447 -13475353.77344  23442005.3284                   23442006.8364
 -23015585.45747 -17905178.60546  21372550.8914                   21372548.1954
 -17267957.41047 -13424389.90646  21996728.3914                   21996728.5514
 -35284150.99648 -27483337.73046  20480559.6254                   20480556.0664
 -37087347.62548 -28809037.42245  21463248.1804                   21463247.1254
  -1439066.07846  -1091835.13743  24121740.5314                   24121743.0554
 11  8 16  0 34  0.0000000  0  8G17G10G09G12G05G02G04G25
 -38800406.45347 -30204390.28545  22981045.8134                   22981044.7464
 -30424208.90248 -23674033.55946  20765136.2894                   20765134.5274
 -17292737.89847 -13444268.97344  23449596.9614                   23449597.8594
 -23115674.87948 -17983170.34446  21353504.3594                   21353502.0314
 -17397990.86347 -13525714.58246  21971984.6954                   21971983.6914
 -35324343.84048 -27514656.81246  20472911.5004                   20472907.7384
 -37049426.00847 -28779488.12545  21470463.8834                   21470463.3324
  -1577466.76246  -1199679.76643  24095404.6884                   24095406.1094
 11  8 16  0 34 30.0000000  0  8G17G10G09G12G05G02G04G25
 -38786011.97747 -30193173.83645  22983784.8754                   22983784.6374
 -30466561.95748 -23707035.92646  20757076.9534                   20757075.3794
 -17252615.10946 -13413004.54744  23457232.3984                   23457233.7194
 -23215304.18048 -18060803.53946  21334545.6804                   21334543.5274
 -17527697.54347 -13626784.61346  21947301.8984                   21947300.8834
 -35364193.12148 -27545708.18047  20465328.2664                   20465324.4494
 -37011306.38348 -28749784.54745  21477718.0944                   21477716.9774
  -1715665.57047  -1307367.08644  24069105.5394                   24069107.6724
 11  8 16  0 35  0.0000000  0  8G17G10G09G12G05G02G04G25
 -38771438.02747 -30181817.53545  22986558.4454                   22986557.7424
 -30508259.72747 -23739527.67246  20749141.7344                   20749140.5274
 -17212282.23847 -13381576.43044  23464907.7584                   23464908.5044
 -23314488.80948 -18138090.24246  21315671.4064                   21315669.0704
 -17657091.84847 -13727611.24245  21922678.8134                   21922677.9344
 -35403717.91048 -27576506.69947  20457807.1254                   20457803.1764
 -36973007.94148 -28719941.62145  21485005.6644                   21485005.0084
  -1853677.33647  -1414908.64544  24042843.4694                   24042845.3204
 11  8 16  0 35 30.0000000  0  8G17G10G09G12G05G02G04G25
 -37181243.60547 -28942705.01645  23289162.6884                   23289162.0634
 -28973859.12147 -22543890.80946  21041128.5944                   21041126.9574
 -15596303.12547 -12122371.96544  23772417.5864                   23772419.2154
 -21837781.64848 -16987409.32046  21596679.0944                   21596677.4734
 -16210725.67647 -12600572.56646  22197912.6724                   22197912.8984
 -33867476.82848 -26379435.70746  20750144.0554                   20750139.9734
 -35359093.27748 -27462345.79745  21792123.8754                   21792122.8014
   -416053.80547   -294682.45744  24316413.5864                   24316415.0784
 11  8 16  0 36  0.0000000  0  8G17G10G09G12G05G02G04G25
 -37166270.84447 -28931037.94945  23292011.3054                   23292010.1484
 -29014206.55148 -22575330.35246  21033450.9064                   21033449.2194
 -15555522.67647 -12090595.09844  23780177.9144                   23780179.8204
 -21936030.78148 -17063967.06646  21577982.7664                   21577980.6844
 -16339448.37947 -12700875.88346  22173418.0944                   22173417.0664
 -33906317.43748 -26409701.10247  20742752.7664                   20742749.0274
 -35320405.75848 -27432199.69945  21799485.9614                   21799484.9654
   -553645.51647   -401896.68744  24290230.8754                   24290232.6214
 11  8 16  0 36 30.0000000  0  8G17G10G09G12G05G02G04G25
 -37151101.78947 -28919217.91444  23294898.5234                   23294897.5234
 -29053882.48447 -22606246.63746  21025900.5784                   21025899.0594
 -15514527.51247 -12058650.90244  23787979.2194                   23787981.0124
 -22033812.64548 -17140160.70746  21559375.5864                   21559373.8794
 -16467835.04747 -12800917.34446  22148986.6884                   22148986.1094
 -33944821.28148 -26439704.07446  20735425.6644                   20735421.7624
 -35281530.64148 -27401907.43745  21806883.4064                   21806882.6454
   -691027.28947   -508947.34444  24264088.0784                   24264089.5984
 11  8 16  0 37  0.0000000  0  8G17G10G09G12G05G02G04G25
 -37135732.61747 -28907241.96944  23297822.8364                   23297821.6724
 -29092882.92648 -22636636.56246  21018479.0004                   21018477.3404
 -15473317.41046 -12026539.19944  23795821.0864                   23795822.5554
 -22131121.78547 -17215986.00046  21540858.3524                   21540856.1414
 -16595879.22347 -12900691.93446  22124620.6644                   22124620.0664
 -33982986.37148 -26469443.09846  20728163.0084                   20728159.1334
 -35242466.58648 -27371467.92245  21814317.0394                   21814316.4104
   -828193.20347   -615829.82444  24237986.0864                   24237987.7584
 11  8 16  0 37 30.0000000  0  8G17G10G09G12G05G02G04G25
 -37120172.68747 -28895117.37145  23300783.6644                   23300783.0664
 -29131217.59048 -22666507.70346  21011184.2504                   21011182.7934
 -15431905.93447 -11994270.62944  23803701.2274                   23803703.6564
 -22227965.67248 -17291448.75446  21522429.4844                   21522427.3444
 -16723587.93448 -13000205.12146  22100318.4304                   22100317.5274
 -34020823.63348 -26498926.66446  20720962.9694                   20720959.1564
 -35203225.57448 -27340890.53545  21821784.5474                   21821783.8874
   -965150.55947   -722549.74244  24211924.1724                   24211925.8204
 11  8 16  0 38  0.0000000  0  8G17G10G09G12G05G02G04G25
 -37104414.87947 -28882838.57444  23303782.1024                   23303781.0274
 -29168880.09448 -22695855.08246  21004017.1954                   21004015.4384
 -15390290.37147 -11961843.00844  23811620.2504                   23811622.3484
 -22324335.77347 -17366542.32046  21504091.2344                   21504089.1884
 -16850952.09448 -13099449.82846  22076081.4384                   22076081.3244
 -34058327.82448 -26528150.69547  20713826.1024                   20713822.2384
 -35163803.54748 -27310172.09045  21829286.2114                   21829284.8984
  -1101890.63747   -829100.39144  24185902.6884                   24185904.8094
 11  8 16  0 38 30.0000000  0  8G17G10G09G12G05G02G04G25
 -37088457.96147 -28870404.64144  23306819.1564                   23306817.7034
 -29205869.02348 -22724677.59446  20996978.3134                   20996977.3244
 -15348473.13346 -11929258.21144  23819577.7194                   23819580.0984
 -22420228.75447 -17441264.11346  21485842.9534                   21485841.1644
 -16977968.01247 -13198423.18746  22051911.3284                   22051910.4184
 -34095499.49648 -26557115.61746  20706752.4384                   20706748.9614
 -35124201.15248 -27279313.09445  21836822.3984                   21836821.6994
  -1238409.69547   -935478.82844  24159923.7194                   24159926.3594
 11  8 16  0 39  0.0000000  0  8G17G10G09G12G05G02G04G25
 -37072300.75047 -28857814.60944  23309893.1024                   23309892.4654
 -29242183.55148 -22752974.60546  20990067.9844                   20990066.4414
 -15306456.75047 -11896518.28544  23827573.9614                   23827575.8954
 -22515641.78148 -17515611.89546  21467686.4924                   21467684.5204
 -17104631.99647 -13297122.30146  22027807.6804                   22027807.1214
 -34132338.95348 -26585821.68046  20699742.3674                   20699738.3634
 -35084419.73448 -27248314.60245  21844392.9064                   21844391.2384
  -1374704.35547  -1041682.41044  24133988.1334                   24133990.4184
 11  8 16  0 39 30.0000000  0  8G17G10G09G12G05G02G04G25
 -37055960.99247 -28845082.33644  23313002.4774                   23313001.9264
 -29277842.10547 -22780760.46946  20983282.6564                   20983281.0514
 -15264263.13747 -11863640.24244  23835603.5314                   23835604.9144
 -22610590.86747 -17589598.18746  21449618.6564                   21449616.5084
 -17230959.69147 -13395559.38346  22003768.5634                   22003767.7774
 -34168865.77048 -26614284.11746  20692791.4614                   20692787.6954
 -35044479.94148 -27217192.71945  21851992.9774                   21851992.2114
  -1510790.61747  -1147723.58244  24108091.2894                   24108094.0204
 11  8 16  0 40  0.0000000  0  8G17G10G09G12G05G02G04G25
 -37039415.63347 -28832189.85244  23316150.6644                   23316150.7384
 -29312821.30948 -22808016.96146  20976626.4534                   20976624.8484
 -15221872.92246 -11830608.96944  23843670.1334                   23843671.2704
 -22705051.07048 -17663203.52046  21431643.2894                   21431641.2274
 -17356925.42647 -13493714.40246  21979797.5084                   21979796.7274
 -34205057.96548 -26642485.81646  20685904.2034                   20685900.2384
 -35004360.87948 -27185931.10945  21859627.2034                   21859626.1254
  -1646643.01646  -1253582.55544  24082239.9064                   24082241.4844
 11  8 16  0 40 30.0000000  0  8G17G10G09G12G05G02G04G25
 -37022683.34047 -28819151.72344  23319335.1024                   23319334.7114
 -29347140.85247 -22834759.43446  20970095.0704                   20970093.9264
 -15179308.80547 -11797442.24244  23851769.3594                   23851771.4614
 -22799039.62147 -17736441.33646  21413757.6884                   21413755.8094
 -17482545.81647 -13591600.32446  21955892.7194                   21955892.1214
 -34240936.23048 -26670442.89146  20679076.8674                   20679072.8954
 -34964083.95348 -27154546.52745  21867292.0004                   21867290.7424
  -1782278.32847  -1359272.38744  24056429.3984                   24056431.5434
 11  8 16  0 41  0.0000000  0  8G17G10G09G12G05G02G04G25
 -37005744.75447 -28805952.82845  23322558.3134                   23322558.1484
 -29380781.76647 -22860973.10946  20963693.6954                   20963692.2664
 -15136555.68047 -11764128.18444  23859905.8364                   23859906.7624
 -22892535.34848 -17809295.12546  21395966.5394                   21395964.3364
 -17607799.17247 -13689200.25446  21932057.4694                   21932057.3634
 -34276483.29348 -26698141.89146  20672312.4384                   20672308.4804
 -34923632.37548 -27123025.82445  21874989.7274                   21874988.5394
  -1917675.33647  -1464776.52044  24030664.3444                   24030665.8834
 11  8 16  0 41 30.0000000  0  8G17G10G09G12G05G02G04G25
 -36988613.65647 -28792603.94144  23325818.7344                   23325817.6724
 -29413757.79748 -22886668.69546  20957418.6484                   20957417.0234
 -15093630.80547 -11730680.31644  23868073.8204                   23868075.4304
 -22985550.00048 -17881774.05146  21378265.7584                   21378264.1294
 -17732696.54747 -13786522.79746  21908290.5084                   21908289.6764
 -34311714.20748 -26725594.54746  20665607.8524                   20665604.1374
 -34883021.75848 -27091381.20345  21882717.4694                   21882716.6994
  -2052845.17247  -1570103.63744  24004942.3204                   24004943.4734
 11  8 16  0 42  0.0000000  0  8G17G10G09G12G05G02G04G25
 -36971295.63347 -28779109.40644  23329113.8444                   23329113.1094
 -29446075.23848 -22911851.10946  20951268.8754                   20951266.9454
 -15050543.96547 -11697106.24244  23876272.3914                   23876274.9104
 -23078087.84848 -17953881.43746  21360656.6884                   21360654.6374
 -17857241.68447 -13883570.87146  21884590.5634                   21884589.7854
 -34346636.13748 -26752806.43046  20658962.7734                   20658959.1954
 -34842260.68048 -27059619.34845  21890474.1954                   21890473.1134
  -2187791.65947  -1675256.70544  23979263.4144                   23979264.0044
 11  8 16  0 42 30.0000000  0  8G17G10G09G12G05G02G04G25
 -36953770.88347 -28765453.78944  23332448.8054                   23332448.1604
 -29477714.56248 -22936505.10246  20945248.0474                   20945246.4534
 -15007278.64846 -11663393.12944  23884506.1724                   23884508.0514
 -23170126.67248 -18025599.97746  21343141.8754                   21343140.4844
 -17981412.09847 -13980326.95346  21860961.4534                   21860960.9574
 -34381230.83648 -26779763.32846  20652379.3914                   20652375.3754
 -34801331.69548 -27027726.65245  21898262.4064                   21898261.7304
  -2322492.44547  -1780218.34044  23953629.4304                   23953631.3054
 11  8 16  0 43  0.0000000  0  8G17G10G09G12G05G02G04G25
 -36936055.48447 -28751649.58244  23335819.9144                   23335819.6954
 -29508692.74648 -22960643.93446  20939353.1644                   20939351.2194
 -14963855.23047 -11629556.73044  23892769.1334                   23892770.5984
 -23261681.70748 -18096941.53146  21325720.0944                   21325718.1054
 -18105221.83247 -14076801.98446  21837401.1024                   21837400.3834
 -34415516.21948 -26806479.20346  20645855.2424                   20645851.3244
 -34760253.19948 -26995717.45345  21906079.4144                   21906079.0474
  -2456961.91447  -1884999.71544  23928040.7194                   23928042.5864
 11  8 16  0 43 30.0000000  0  8G17G10G09G12G05G02G04G25
 -36918148.05947 -28737695.76644  23339228.0394                   23339226.6024
 -29539009.23048 -22984267.16046  20933584.1564                   20933582.1414
 -14920276.27347 -11595599.19944  23901062.5004                   23901064.3204
 -23352749.79348 -18167903.65246  21308390.2274                   21308388.2734
 -18228667.32847 -14172993.19546  21813910.3594                   21813909.2704
 -34449492.68448 -26832954.35546  20639389.8834                   20639385.8954
 -34719026.34848 -26963592.64845  21913924.8914                   21913923.6254
  -2591196.51247  -1989598.04344  23902496.9924                   23902498.9184
 11  8 16  0 44  0.0000000  0  8G17G10G09G12G05G02G04G25
 -36900042.49647 -28723587.55944  23342673.0944                   23342672.7154
 -29568658.20348 -23007370.24246  20927941.6954                   20927940.3914
 -14876539.43047 -11561518.66443  23909384.8444                   23909387.5474
 -23443323.02048 -18238480.16846  21291154.7114                   21291152.5744
 -18351740.29747 -14268894.13346  21790490.2974                   21790489.2854
 -34483155.85948 -26859185.39846  20632984.2894                   20632980.0904
 -34677647.57848 -26931349.47745  21921799.0314                   21921798.1334
  -2725188.02347  -2094006.97344  23876999.4144                   23877000.6844
 11  8 16  0 44 30.0000000  0  8G17G10G09G12G05G02G04G25
 -36881734.02047 -28709321.21944  23346157.2034                   23346156.2194
 -29597635.31248 -23029949.79746  20922427.9454                   20922426.3554
 -14832643.73447 -11527314.32443  23917738.3444                   23917739.7234
 -23533394.73448 -18308665.89146  21274014.5634                   21274012.1764
 -18474433.14847 -14364498.86346  21767142.6954                   21767141.3754
 -34516502.16848 -26885169.52046  20626638.1804                   20626634.4924
 -34636114.09848 -26898985.74645  21929702.6484                   21929701.2274
  -2858929.16447  -2198220.77344  23851549.3524                   23851551.1954
 11  8 16  0 45  0.0000000  0  8G17G10G09G12G05G02G04G25
 -36863221.14547 -28694895.61344  23349680.0704                   23349679.1604
 -29625939.55148 -23052005.03546  20917041.5314                   20917040.0824
 -14788591.71947 -11492988.13343  23926120.6254                   23926121.8754
 -23622961.62548 -18378458.25446  21256970.6174                   21256968.0004
 -18596742.14847 -14459804.49246  21743867.9694                   21743866.8554
 -34549531.71948 -26910906.81646  20620352.9844                   20620348.9614
 -34594427.10248 -26866502.40245  21937635.0784                   21937634.2504
  -2992416.49647  -2302236.78944  23826147.5704                   23826149.0824
 11  8 16  0 45 30.0000000  0  8G17G10G09G12G05G02G04G25
 -36844505.81647 -28680312.26244  23353241.7274                   23353241.1414
 -29653574.51648 -23073538.77046  20911782.7664                   20911781.3954
 -14744389.39847 -11458544.87143  23934532.9304                   23934534.3874
 -23712025.17648 -18447858.40246  21240022.0394                   21240020.0824
 -18718667.53548 -14554811.20746  21720666.2274                   21720665.4694
 -34582249.24248 -26936400.97346  20614127.0704                   20614122.8204
 -34552591.33648 -26833903.12545  21945596.1954                   21945595.3364
  -3125650.33647  -2406055.32044  23800793.4304                   23800795.6804
 11  8 16  0 46  0.0000000  0  8G17G10G09G12G05G02G04G25
 -36825600.40247 -28665580.79344  23356838.2814                   23356837.9384
 -29680552.32848 -23094560.42246  20906649.2424                   20906647.6134
 -14700052.47747 -11423996.71944  23942969.8204                   23942971.9264
 -23800595.05548 -18516873.86346  21223168.1024                   21223165.9064
 -18840219.01648 -14649526.57046  21697535.8674                   21697534.6214
 -34614668.08248 -26961662.39546  20607958.0704                   20607953.8754
 -34510620.67248 -26801198.73045  21953583.4774                   21953582.3954
  -3258640.28147  -2509683.76644  23775486.2814                   23775488.0434
 11  8 16  0 46 30.0000000  0  8G17G10G09G12G05G02G04G25
 -36806491.18747 -28650690.46144  23360475.5474                   23360474.4024
 -29706860.04748 -23115059.93446  20901642.7034                   20901641.3284
 -14655571.24646 -11389336.02343  23951433.8444                   23951434.9654
 -23888655.74248 -18585492.56246  21206410.5784                   21206408.3954
 -18961380.38347 -14743937.94146  21674479.4614                   21674478.6524
 -34646775.73048 -26986681.33246  20601848.4384                   20601844.0314
 -34468504.03947 -26768380.60545  21961597.9614                   21961597.5274
  -3391370.33647  -2613109.72344  23750228.5634                   23750230.4304
 11  8 16  0 47  0.0000000  0  8G17G10G09G12G05G02G04G25
 -36787181.54747 -28635644.00043  23364149.5474                   23364148.3634
 -29732501.69948 -23135040.42246  20896763.6024                   20896761.9144
 -14610953.07447 -11354568.69144  23959925.1174                   23959927.3364
 -23976209.71948 -18653716.43046  21189749.3594                   21189747.5044
 -19082153.04748 -14838046.43446  21651497.2814                   21651496.1684
 -34678577.60248 -27011462.00046  20595796.2894                   20595791.9064
 -34426247.22748 -26735453.23445  21969638.4844                   21969637.7504
  -3523841.97347  -2716334.28144  23725020.0634                   23725022.3874
 11  8 16  0 47 30.0000000  0  8G17G10G09G12G05G02G04G25
 -36767673.96947 -28620443.30544  23367861.7034                   23367860.4384
 -29757480.91448 -23154504.71546  20892010.1644                   20892008.5514
 -14566204.14547 -11319699.50044  23968440.4924                   23968442.3524
 -24063257.58248 -18721545.91846  21173184.6484                   21173182.8754
 -19202537.22748 -14931852.21146  21628588.6724                   21628587.4384
 -34710077.86748 -27036007.63746  20589801.8754                   20589797.9694
 -34383854.89848 -26702420.27345  21977706.4384                   21977704.8794
  -3656055.54347  -2819357.76244  23699860.4534                   23699863.0274
 11  8 16  0 48  0.0000000  0  8G17G10G09G12G05G02G04G25
 -36747961.93447 -28605083.26644  23371613.2034                   23371612.3134
 -29781791.80948 -23173448.25446  20887383.6254                   20887381.9694
 -14521321.69947 -11284726.21944  23976982.0704                   23976983.1094
 -24149791.31248 -18788974.78146  21156717.9454                   21156715.8404
 -19322524.33648 -15025348.58646  21605756.1174                   21605755.0594
 -34741271.82048 -27060314.59446  20583865.9534                   20583861.9804
 -34341322.96948 -26669278.53545  21985799.8834                   21985798.3284
  -3788002.30947  -2922173.34844  23674752.1724                   23674753.6884
 11  8 16  0 48 30.0000000  0  8G17G10G09G12G05G02G04G25
 -36728053.01247 -28589569.80144  23375401.6564                   23375400.9064
 -29805442.82048 -23191877.59846  20882882.9454                   20882881.8094
 -14476317.28947 -11249657.88344  23985545.8524                   23985547.9024
 -24235817.02048 -18856007.78146  21140347.8364                   21140345.6374
 -19442119.61748 -15118539.64146  21582997.7894                   21582996.3524
 -34772168.52048 -27084389.92646  20577986.5704                   20577982.6174
 -34298661.28148 -26636035.69545  21993917.8834                   21993917.0784
  -3919687.51647  -3024785.10944  23649693.2424                   23649695.0394
 11  8 16  0 49  0.0000000  0  8G17G10G09G12G05G02G04G25
 -36707945.42247 -28573901.53544  23379228.2814                   23379227.6374
 -29828432.80948 -23209791.85946  20878508.4384                   20878506.9494
 -14431192.64147 -11214495.89544  23994132.8284                   23994134.8834
 -24321330.87548 -18922641.94146  21124074.9224                   21124072.7424
 -19561318.77748 -15211422.02746  21560314.7504                   21560313.4804
 -34802767.70748 -27108233.44546  20572163.8984                   20572159.7034
 -34255870.15248 -26602691.97745  22002061.2194                   22002059.3914
  -4051107.21147  -3127190.01244  23624684.9384                   23624686.5164
 11  8 16  0 49 30.0000000  0  8G17G10G09G12G05G02G04G25
 -36687635.55947 -28558075.65644  23383093.0234                   23383092.2074
 -29850759.33248 -23227189.12546  20874259.5704                   20874258.5204
 -14385948.19547 -11179240.56244  24002742.2664                   24002744.6644
 -24406327.91448 -18988873.39146  21107900.6644                   21107898.3914
 -19680116.15248 -15303991.33646  21537707.9384                   21537707.2734
 -34833067.64548 -27131843.76646  20566397.6884                   20566393.7934
 -34212948.60948 -26569246.63745  22010228.5474                   22010227.5904
  -4182255.77347  -3229383.61344  23599728.0864                   23599729.6134
 11  8 16  0 50  0.0000000  0  8G17G10G09G12G05G02G04G25
 -36667109.06247 -28542080.94544  23386998.5554                   23386998.0944
 -29872408.77748 -23244058.80146  20870140.0784                   20870138.5204
 -14340573.04746 -11143883.37144  24011376.1334                   24011378.8524
 -24490791.94548 -19054689.50446  21091827.9304                   21091825.8714
 -19798494.99248 -15396234.52346  21515181.3134                   21515180.0274
 -34863055.46948 -27155210.87546  20560691.0234                   20560686.9024
 -34169884.28548 -26535690.05145  22018423.2974                   22018422.5084
  -4313116.43047  -3331352.90644  23574826.3134                   23574827.3834
 11  8 16  0 50 30.0000000  0  8G17G10G09G12G05G02G04G25
 -36646381.78947 -28525929.81244  23390943.7504                   23390942.2624
 -29893397.75448 -23260413.83246  20866146.1804                   20866144.6294
 -14295086.95346 -11108439.75444  24020031.5784                   24020034.9414
 -24574737.82048 -19120101.85946  21075853.2504                   21075851.2074
 -19916468.80147 -15488162.09446  21492732.0004                   21492730.0204
 -34892748.59448 -27178348.36746  20555041.2664                   20555036.9304
 -34126695.17248 -26502036.22345  22026641.9384                   22026641.1564
  -4443702.70747  -3433108.35944  23549976.5784                   23549977.3834
 11  8 16  0 51  0.0000000  0  8G17G10G09G12G05G02G04G25
 -36625436.52047 -28509608.81244  23394929.1724                   23394928.1994
 -29913710.30948 -23276241.78146  20862280.6884                   20862278.9414
 -14249476.43446 -11072899.20343  24028711.3754                   24028714.9774
 -24658146.51248 -19185095.62946  21059981.0944                   21059979.0234
 -20034018.23448 -15579758.98046  21470362.6414                   21470361.3204
 -34922131.65248 -27201244.25046  20549449.3524                   20549445.4384
 -34083366.32047 -26468273.50045  22034886.9304                   22034886.2074
  -4573995.34047  -3534635.05544  23525182.6564                   23525183.6174
 11  8 16  0 51 30.0000000  0  8G17G10G09G12G05G02G04G25
 -36604284.97747 -28493127.09845  23398954.5474                   23398953.1684
 -29933358.96548 -23291552.40646  20858541.7424                   20858540.0124
 -14203756.88346 -11037273.71143  24037412.0164                   24037415.0824
 -24741028.39548 -19249678.89846  21044209.2734                   21044207.2034
 -20151153.03948 -15671032.78946  21448072.4224                   21448071.8754
 -34951217.65248 -27223908.65246  20543914.4924                   20543910.9104
 -34039911.65247 -26434412.73845  22043156.1174                   22043155.6134
  -4704003.75847  -3635940.27344  23500442.1564                   23500443.9304
 11  8 16  0 52  0.0000000  0  8G17G10G09G12G05G02G04G25
 -36582916.33647 -28476476.22745  23403020.1334                   23403019.7974
 -29952333.82848 -23306337.99246  20854930.6724                   20854929.0864
 -14157921.40246 -11001557.82843  24046135.2664                   24046136.7544
 -24823370.88748 -19313841.85946  21028540.0704                   21028537.8554
 -20267859.77348 -15761973.03146  21425864.1644                   21425862.8674
 -34979997.83248 -27246334.74646  20538437.9454                   20538434.0164
 -33996322.58247 -26400447.25845  22051450.8984                   22051449.8284
  -4833715.05147  -3737013.96544  23475759.1954                   23475760.2894
 11  8 16  0 52 30.0000000  0  8G17G10G09G12G05G02G04G25
 -36561328.77347 -28459654.76645  23407128.5004                   23407127.8634
 -29970634.02348 -23320597.86746  20851448.4304                   20851446.6524
 -14111971.79346 -10965753.01643  24054878.2814                   24054881.0474
 -24905170.68448 -19377581.94946  21012973.7114                   21012971.6214
 -20384134.62148 -15852576.73446  21403737.4614                   21403736.8634
 -35008471.71548 -27268522.18446  20533019.4774                   20533015.4694
 -33952599.44947 -26366377.30145  22059770.6564                   22059770.5204
  -4963124.89847  -3837852.77344  23451133.7194                   23451134.4774
 11  8 16  0 53  0.0000000  0  8G17G10G09G12G05G02G04G25
 -36539533.64147 -28442671.54345  23411275.9454                   23411275.3554
 -29988271.77748 -23334341.55546  20848092.0864                   20848090.0124
 -14065923.17646 -10929871.09444  24063641.9384                   24063643.9494
 -24986437.83648 -19440906.98446  20997509.3444                   20997507.5234
 -20499986.96948 -15942851.22346  21381691.5784                   21381690.6214
 -35036652.22748 -27290481.00046  20527656.9144                   20527652.9144
 -33908755.71947 -26332213.38745  22068114.6254                   22068113.8134
  -5092242.58247  -3938463.90644  23426562.9844                   23426564.8954
 11  8 16  0 53 30.0000000  0  8G17G10G09G12G05G02G04G25
 -36517527.18047 -28425523.64544  23415463.6024                   23415462.6764
 -30005244.63748 -23347567.14846  20844861.8914                   20844860.5204
 -14019775.12547 -10893911.69944  24072422.9534                   24072425.9494
 -25067166.91848 -19503812.74246  20982146.9924                   20982144.7584
 -20615410.49648 -16032791.56646  21359727.4064                   21359726.0004
 -35064537.34848 -27312209.66446  20522350.4924                   20522346.6914
 -33864789.68047 -26297954.16845  22076480.9454                   22076480.2304
  -5221061.94947  -4038842.61744  23402048.8524                   23402051.0164
 11  8 16  0 54  0.0000000  0  8G17G10G09G12G05G02G04G25
 -36495306.88747 -28408209.11745  23419691.8364                   23419691.4534
 -30021551.52048 -23360273.78946  20841759.1804                   20841757.3484
 -13973529.27046 -10857876.06643  24081223.4304                   24081225.8954
 -25147354.25048 -19566296.35546  20966887.9694                   20966885.6914
 -20730400.79748 -16122394.32846  21337845.1644                   21337843.6454
 -35092126.33648 -27333707.56246  20517100.7584                   20517096.7814
 -33820701.48047 -26263599.75045  22084870.8444                   22084870.3634
  -5349578.60247  -4138985.39544  23377593.2974                   23377595.2274
 11  8 16  0 54 30.0000000  0  8G17G10G09G12G05G02G04G25
 -36472855.53147 -28390714.57444  23423964.6484                   23423963.7624
 -30037175.78148 -23372448.53146  20838786.0234                   20838784.6054
 -13927171.76647 -10821753.38343  24090045.4144                   24090046.8674
 -25226980.53948 -19628342.79346  20951735.4384                   20951733.3794
 -20844938.22348 -16211644.21146  21316049.4694                   21316048.3754
 -35119403.26648 -27354962.30146  20511910.0004                   20511905.9534
 -33776475.14547 -26229137.67245  22093286.5864                   22093285.7584
  -5477772.62547  -4238876.80544  23353199.1484                   23353200.8244
 11  8 16  0 55  0.0000000  0  8G17G10G09G12G05G02G04G25
 -36450191.92247 -28373054.67644  23428277.1484                   23428276.1994
 -30052137.19148 -23384106.75446  20835938.8204                   20835937.1024
 -13880724.91847 -10785561.09843  24098884.3204                   24098885.8634
 -25306063.27348 -19689965.68046  20936686.8364                   20936684.6374
 -20959039.07048 -16300553.89846  21294336.8364                   21294335.3284
 -35146388.47348 -27375989.72746  20506774.8204                   20506770.7194
 -33732131.71947 -26194584.38745  22101725.0704                   22101724.3364
  -5605660.36347  -4338529.52744  23328862.7424                   23328864.0354
 11  8 16  0 55 30.0000000  0  8G17G10G09G12G05G02G04G25
 -36427312.75447 -28355226.80544  23432630.2894                   23432630.5354
 -30066434.02048 -23395247.12146  20833218.2114                   20833216.6994
 -13834189.75047 -10749300.05943  24107739.5554                   24107741.9534
 -25384598.31248 -19751161.80146  20921741.8674                   20921739.8634
 -21072698.60948 -16389119.70346  21272708.1884                   21272706.6094
 -35173080.84848 -27396788.96546  20501695.4614                   20501691.1174
 -33687670.54347 -26159939.32445  22110185.4844                   22110184.8094
  -5733236.77747  -4437939.68745  23304585.4924                   23304587.0944
 11  8 16  0 56  0.0000000  0  8G17G10G09G12G05G02G04G25
 -36404213.07846 -28337227.08244  23437025.3444                   23437025.7734
 -30080062.37948 -23405866.61346  20830624.8594                   20830623.0824
 -13787564.78947 -10712969.02343  24116611.8054                   24116614.0554
 -25462579.17248 -19811926.07846  20906902.8674                   20906900.2774
 -21185909.59448 -16477335.99246  21251164.3204                   21251163.2774
 -35199476.92248 -27417357.32046  20496672.4144                   20496667.9304
 -33643088.68447 -26125200.23045  22118668.9694                   22118668.1024
  -5860494.59847  -4537101.56245  23280369.2114                   23280370.9494
 11  8 16  0 56 30.0000000  0  8G17G10G09G12G05G02G04G25
 -34805480.98046 -27091461.85544  23741254.4224                   23741255.1724
 -28517610.44948 -22188371.59846  21127949.7424                   21127948.1914
 -12165442.02047  -9448977.28943  24425291.5864                   24425293.7624
 -23964588.48048 -18644660.58646  21191960.8134                   21191958.8914
 -19723252.82048 -15337603.38346  21529499.0554                   21529497.6134
 -33650164.25848 -26210100.69146  20791496.7894                   20791492.4534
 -32022976.69147 -24862775.31245  22426966.5864                   22426965.3324
  -4412014.19947  -3408415.47345  23556006.3914                   23556007.4924
 11  8 16  0 57  0.0000000  0  8G17G10G09G12G05G02G04G25
 -34781945.21546 -27073122.26644  23745733.2734                   23745733.6414
 -28529910.63748 -22197956.14146  21125608.6884                   21125606.9774
 -12118652.67246  -9412518.10243  24434195.5234                   24434197.6134
 -24041460.43748 -18704560.78946  21177332.2734                   21177330.2734
 -19835564.52048 -15425118.92646  21508126.7424                   21508125.4064
 -33675976.90248 -26230214.43046  20786584.6724                   20786580.9574
 -31978163.77747 -24827856.16845  22435493.8984                   22435493.3444
  -4538632.46147  -3507078.98845  23531911.4694                   23531912.4104
 11  8 16  0 57 30.0000000  0  8G17G10G09G12G05G02G04G25
 -34758186.30147 -27054608.84844  23750254.7974                   23750254.8204
 -28541543.23048 -22207020.49646  21123395.5084                   21123393.8834
 -12071781.10946  -9375994.94543  24443113.9694                   24443117.4104
 -24117771.68448 -18764024.07446  21162810.6334                   21162808.7464
 -19947418.10548 -15512277.50446  21486841.9224                   21486840.4534
 -33701494.98848 -26250098.64846  20781728.9224                   20781724.5554
 -31933233.39147 -24792845.47345  22444043.9844                   22444042.7424
  -4664922.23847  -3605486.56245  23507878.7584                   23507880.2504
 11  8 16  0 58  0.0000000  0  8G17G10G09G12G05G02G04G25
 -34734209.30147 -27035925.50044  23754818.3984                   23754817.7034
 -28552514.50448 -22215569.52046  21121307.1884                   21121305.6414
 -12024836.39546  -9339414.78543  24452047.9304                   24452050.8714
 -24193525.43448 -18823052.94146  21148395.2974                   21148393.3404
 -20058816.52748 -15599081.41446  21465643.2274                   21465641.7664
 -33726725.23848 -26269758.57046  20776927.4844                   20776923.7584
 -31888192.48047 -24757748.67645  22452614.6954                   22452614.3324
  -4790886.44947  -3703640.41045  23483908.2664                   23483909.7194
 11  8 16  0 58 30.0000000  0  8G17G10G09G12G05G02G04G25
 -34710004.19147 -27017064.39144  23759423.7584                   23759422.9304
 -28562816.00048 -22223596.64546  21119347.2194                   21119345.6054
 -11977812.33646  -9302772.77744  24460996.3984                   24460998.8404
 -24268710.21148 -18881638.45746  21134088.3284                   21134086.0904
 -20169748.24648 -15685521.64146  21444533.1094                   21444532.2424
 -33751659.31248 -26289187.71146  20772182.9384                   20772178.9104
 -31843033.29347 -24722559.71145  22461208.4844                   22461207.7814
  -4916513.07047  -3801531.22745  23460002.7424                   23460004.3954
 11  8 16  0 59  0.0000000  0  8G17G10G09G12G05G02G04G25
 -34685571.43746 -26998025.89844  23764072.9454                   23764071.9614
 -28572449.28548 -22231103.08646  21117513.6254                   21117512.5204
 -11930712.29745  -9266071.59043  24469958.2584                   24469962.0864
 -24343324.66048 -18939779.56246  21119889.3754                   21119887.2774
 -20280210.97748 -15771596.43446  21423512.8444                   21423511.6914
 -33776299.03148 -26308387.49646  20767494.0554                   20767489.7584
 -31797758.02047 -24687280.27045  22469823.9454                   22469823.5164
  -5041799.82847  -3899157.21545  23436161.8364                   23436162.9774
 11  8 16  0 59 30.0000000  0  8G17G10G09G12G05G02G04G25
 -34660925.96547 -26978821.66843  23768762.6804                   23768762.3794
 -28581430.87548 -22238101.70746  21115804.3444                   21115803.2544
 -11883555.50046  -9229326.16043  24478932.0864                   24478935.3634
 -24417383.09048 -18997487.41446  21105796.7974                   21105794.3954
 -20390218.09848 -15857316.20346  21402579.1484                   21402578.2034
 -33800661.32448 -26327371.09446  20762858.0394                   20762854.1054
 -31752383.89147 -24651923.81645  22478458.6484                   22478457.8284
  -5166759.68747  -3996528.47345  23412382.3524                   23412383.4964
 11  8 16  1  0  0.0000000  0  8G17G10G09G12G05G02G04G25
 -34636063.80946 -26959448.55544  23773493.7274                   23773493.2584
 -28589757.66848 -22244590.10546  21114220.2344                   21114219.0594
 -11836340.84046  -9192535.64543  24487917.6024                   24487920.5124
 -24490880.08248 -19054757.77346  21091810.6254                   21091808.4184
 -20499762.99648 -15942675.79746  21381733.6414                   21381732.4344
 -33824743.36348 -26346136.31246  20758275.2344                   20758271.3554
 -31706908.19547 -24616488.21145  22487111.8674                   22487111.9024
  -5291386.04347  -4093639.87144  23388666.8444                   23388667.8834
 11  8 16  1  0 30.0000000  0  8G17G10G09G12G05G02G04G25
 -34610989.01547 -26939909.74444  23778265.7664                   23778265.2114
 -28597435.30148 -22250572.64846  21112759.5234                   21112757.6134
 -11789076.27046  -9155706.21543  24496911.6094                   24496914.7664
 -24563818.26248 -19111592.69946  21077931.2034                   21077928.6604
 -20608847.59448 -16027676.71546  21360975.4614                   21360974.2814
 -33848550.65648 -26364687.44146  20753745.0314                   20753741.2584
 -31661337.41047 -24580978.48845  22495784.1804                   22495782.9844
  -5415680.80547  -4190492.91444  23365013.9534                   23365015.2154
 11  8 16  1  1  0.0000000  0  8G17G10G09G12G05G02G04G25
 -34585680.42647 -26920188.78944  23783082.3984                   23783081.5124
 -28604444.10948 -22256034.04746  21111425.3594                   21111423.9024
 -11741744.05546  -9118824.10244  24505919.3134                   24505921.9384
 -24636174.87548 -19167974.45346  21064161.9694                   21064159.8524
 -20717449.05948 -16112301.17246  21340309.1884                   21340308.3094
 -33872063.91048 -26383009.44946  20749270.5634                   20749266.4264
 -31615652.05947 -24545379.52045  22504477.7734                   22504477.3404
  -5539620.36747  -4287069.15244  23341429.3984                   23341429.9104
 11  8 16  1  1 30.0000000  0  8G17G10G09G12G05G02G04G25
 -34560145.78547 -26900291.65644  23787940.7584                   23787941.0704
 -28610793.25848 -22260981.41846  21110217.0864                   21110215.5124
 -11694355.39146  -9081897.98844  24514936.9694                   24514940.1994
 -24707956.73848 -19223908.34846  21050502.3834                   21050500.2384
 -20825572.54748 -16196553.17646  21319734.1254                   21319732.7704
 -33895292.52048 -26401109.66046  20744850.5784                   20744846.3134
 -31569861.93447 -24509698.90245  22513191.3754                   22513190.8444
  -5663210.20747  -4383372.88344  23317910.5474                   23317911.4344
 11  8 16  1  2  0.0000000  0  8G17G10G09G12G05G02G04G25
 -34534382.33247 -26880216.22744  23792843.5314                   23792842.7934
 -28616481.52748 -22265413.81646  21109134.7344                   21109133.4694
 -11646911.18046  -9044928.61344  24523965.5084                   24523968.5744
 -24779159.95748 -19279391.35946  21036952.8204                   21036950.7074
 -20933213.66048 -16280429.30946  21299250.3674                   21299249.0084
 -33918235.19148 -26418987.06246  20740484.2974                   20740480.5234
 -31523966.28147 -24473936.04744  22521925.3444                   22521924.1334
  -5786445.52747  -4479400.37544  23294459.7584                   23294460.5784
 11  8 16  1  2 30.0000000  0  8G17G10G09G12G05G02G04G25
 -34508406.21146 -26859975.08644  23797786.4614                   23797785.8164
 -28621526.11348 -22269344.64846  21108175.1174                   21108173.1604
 -11599430.64846  -9007930.91444  24533001.5784                   24533004.3794
 -24849798.87548 -19334434.65246  21023510.8284                   21023508.4614
 -21040386.13748 -16363940.26646  21278855.6804                   21278854.7234
 -33940909.15248 -26436655.07046  20736169.6884                   20736165.7814
 -31477982.79347 -24438104.75045  22530674.9694                   22530674.4964
  -5909339.69147  -4575162.01644  23271073.5474                   23271074.9104
 11  8 16  1  3  0.0000000  0  8G17G10G09G12G05G02G04G25
 -34482206.65246 -26839559.88744  23802772.6484                   23802772.3054
 -28625917.73448 -22272766.68046  21107339.4924                   21107337.2234
 -11551906.66846  -8970899.36343  24542045.0084                   24542047.6604
 -24919861.77348 -19389029.11346  21010178.2424                   21010175.7974
 -21147077.24248 -16447076.14846  21258553.6564                   21258552.0944
 -33963305.46948 -26454106.73846  20731908.0784                   20731903.8794
 -31431902.54347 -24402198.08645  22539444.2814                   22539443.7274
  -6031879.65647  -4670647.68744  23247754.9774                   23247756.0124
 11  8 16  1  3 30.0000000  0  8G17G10G09G12G05G02G04G25
 -34455786.37947 -26818972.71944  23807799.6884                   23807798.6764
 -28629661.33248 -22275683.74646  21106626.7664                   21106625.1094
 -11504345.93746  -8933839.16843  24551094.9534                   24551097.3674
 -24989350.46948 -19443176.13346  20996954.9924                   20996952.5594
 -21253288.09448 -16529837.78146  21238341.6954                   21238340.7814
 -33985428.68048 -26471345.58646  20727697.7034                   20727694.2304
 -31385730.57047 -24366219.91445  22548230.7114                   22548229.5354
  -6154066.25847  -4765857.97345  23224503.6954                   23224505.0944
 11  8 16  1  4  0.0000000  0  8G17G10G09G12G05G02G04G25
 -34429146.97747 -26798214.75044  23812869.3284                   23812868.9804
 -28632759.39148 -22278097.79746  21106037.0784                   21106035.5864
 -11456753.03546  -8896753.89843  24560152.0864                   24560154.6414
 -25058264.89148 -19496875.66446  20983841.0394                   20983838.4614
 -21359017.53948 -16612224.30546  21218222.4224                   21218220.8094
 -34007281.41448 -26488373.68746  20723539.8134                   20723535.4344
 -31339469.80147 -24330172.58245  22557033.2894                   22557032.6484
  -6275898.24247  -4860791.97345  23201320.2424                   23201321.1414
 11  8 16  1  4 30.0000000  0  8G17G10G09G12G05G02G04G25
 -34402291.89546 -26777288.73044  23817979.1884                   23817979.3134
 -28635216.96148 -22280012.76646  21105569.2424                   21105567.8014
 -11409134.69546  -8859648.79743  24569213.1254                   24569216.1994
 -25126606.98448 -19550129.23446  20970835.9614                   20970833.3954
 -21464267.29348 -16694237.04746  21198194.2114                   21198192.4614
 -34028868.55948 -26505194.82046  20719431.4224                   20719427.4964
 -31293125.58647 -24294060.19945  22565852.8364                   22565851.8364
  -6397376.78547  -4955450.53545  23178203.8134                   23178205.0124
 11  8 16  1  5  0.0000000  0  8G17G10G09G12G05G02G04G25
 -34375218.55146 -26756192.59844  23823130.9454                   23823130.8834
 -28637032.87148 -22281427.74646  21105223.6254                   21105222.1604
 -11361491.69146  -8822524.51243  24578280.3594                   24578282.0084
 -25194373.50848 -19602934.29746  20957940.1174                   20957938.1294
 -21569032.39848 -16775872.12546  21178258.1414                   21178256.2974
 -34050189.09848 -26521808.22346  20715374.7344                   20715370.2624
 -31246696.94547 -24257882.04745  22574687.8594                   22574686.6804
  -6518496.90247  -5049829.82045  23155155.1564                   23155156.2234
 11  8 16  1  5 30.0000000  0  8G17G10G09G12G05G02G04G25
 -34347929.62146 -26734928.47344  23828324.3134                   23828323.8984
 -28638211.42648 -22282346.08246  21104999.5784                   21104998.1914
 -11313830.30546  -8785385.87943  24587349.1884                   24587351.7344
 -25261565.96948 -19655292.05146  20945154.3134                   20945151.6054
 -21673313.96148 -16857130.43046  21158413.6804                   21158412.1214
 -34071247.35948 -26538217.24246  20711367.1334                   20711363.3874
 -31200188.41447 -24221641.62545  22583537.7344                   22583536.9494
  -6639259.04347  -5143930.16045  23132174.8284                   23132175.6564
 11  8 16  1  6  0.0000000  0  8G17G10G09G12G05G02G04G25
 -34320431.25046 -26713501.18444  23833557.6564                   23833556.3404
 -28638760.43048 -22282773.87146  21104895.3524                   21104893.2974
 -11266159.89146  -8748240.25842  24596420.5784                   24596423.1134
 -25328189.10948 -19707206.17646  20932475.8834                   20932473.5784
 -21777115.86348 -16938014.97746  21138660.6334                   21138659.6024
 -34092050.82848 -26554427.72346  20707408.0944                   20707404.1684
 -31153607.89547 -24185345.13345  22592401.7814                   22592401.3634
  -6759666.94547  -5237754.46145  23109261.4144                   23109263.0274
 11  8 16  1  6 30.0000000  0  8G17G10G09G12G05G02G04G25
 -34292698.40246 -26691891.15644  23838834.8134                   23838833.6884
 -28638656.67648 -22282693.01246  21104914.7814                   21104913.1174
 -11218458.93446  -8711070.82043  24605497.5554                   24605501.1254
 -25394216.98848 -19758656.45746  20919911.7894                   20919908.9534
 -21880411.32048 -17018504.87946  21119004.2424                   21119002.9924
 -34112576.17648 -26570421.48446  20703502.4304                   20703498.6174
 -31106932.22347 -24148974.47745  22601284.0004                   22601282.8324
  -6879693.42247  -5331281.54345  23086422.0004                   23086422.1644
 11  8 16  1  7  0.0000000  0  8G17G10G09G12G05G02G04G25
 -34264744.44946 -26670108.89844  23844154.2424                   23844153.1374
 -28637915.03148 -22282115.09446  21105055.8364                   21105054.4104
 -11170744.09846  -8673890.59043  24614577.0554                   24614581.4384
 -25459661.51248 -19809652.17646  20907457.5554                   20907455.3794
 -21983211.62548 -17098608.94946  21099442.1334                   21099440.4694
 -34132838.24648 -26586210.09046  20699646.7424                   20699643.0434
 -31060176.29347 -24112541.29344  22610181.1724                   22610180.2154
  -6999349.22747  -5424519.78145  23063651.7344                   23063652.7384
 11  8 16  1  7 30.0000000  0  8G17G10G09G12G05G02G04G25
 -34236577.32846 -26648160.44144  23849514.0864                   23849513.3404
 -28636544.86348 -22281047.41846  21105316.9064                   21105315.0824
 -11123026.69946  -8636708.30943  24623658.1094                   24623661.4144
 -25524529.55548 -19860198.68446  20895113.6174                   20895111.3054
 -22085522.72348 -17178331.83246  21079973.0004                   21079971.1334
 -34152846.17248 -26601800.66846  20695839.7114                   20695835.3874
 -31013349.92647 -24076053.21944  22619091.8984                   22619091.5044
  -7118639.91847  -5517473.52745  23040951.1254                   23040953.0004
 11  8 16  1  8  0.0000000  0  8G17G10G09G12G05G02G04G25
 -34208193.33246 -26626043.02744  23854914.9774                   23854915.1764
 -28634544.22748 -22279488.45746  21105697.6804                   21105695.9694
 -11075306.12546  -8599523.58643  24632739.7584                   24632742.6374
 -25588816.60548 -19910292.46946  20882880.1174                   20882877.5594
 -22187338.59448 -17257668.80946  21060597.7194                   21060596.0514
 -34172597.77048 -26617191.50446  20692081.0164                   20692076.4384
 -30966450.80947 -24039508.43744  22628016.3594                   22628016.0634
  -7237559.44947  -5610138.04745  23018322.0474                   23018322.9344
 11  8 16  1  8 30.0000000  0  8G17G10G09G12G05G02G04G25
 -34179591.33647 -26603755.71144  23860358.1954                   23860357.6054
 -28631914.09048 -22277438.99246  21106198.3674                   21106196.4064
 -11027584.69946  -8562338.18443  24641820.7274                   24641824.1884
 -25652520.27348 -19959931.67646  20870757.7584                   20870755.1294
 -22288656.32848 -17336617.64146  21041318.2194                   21041316.4454
 -34192093.33248 -26632382.83646  20688370.6954                   20688367.0634
 -30919479.75847 -24002907.62144  22636954.6334                   22636954.4224
  -7356104.44947  -5702510.72745  22995763.3524                   22995764.5274
 11  8 16  1  9  0.0000000  0  8G17G10G09G12G05G02G04G25
 -34150765.17247 -26581293.70744  23865844.3134                   23865842.5824
 -28628649.67248 -22274895.28146  21106819.1334                   21106817.3914
 -10979859.41446  -8525149.78943  24650903.1564                   24650906.2194
 -25715633.21948 -20009110.56646  20858747.9304                   20858745.4414
 -22389468.03148 -17415172.16046  21022134.0004                   21022132.4494
 -34211328.21548 -26647371.04346  20684710.4694                   20684706.6294
 -30872432.06247 -23966247.09044  22645907.6804                   22645906.9414
  -7474266.28147  -5794584.81245  22973277.6334                   22973278.8404
 11  8 16  1  9 30.0000000  0  8G17G10G09G12G05G02G04G25
 -34121725.61346 -26558665.46144  23871370.2194                   23871368.8554
 -28624763.12948 -22271866.79346  21107558.4614                   21107556.9224
 -10932144.18046  -8487969.21543  24659982.8284                   24659985.9734
 -25778165.14148 -20057836.72746  20846848.0634                   20846845.8404
 -22489782.43048 -17493339.16446  21003044.5864                   21003043.1414
 -34230314.58248 -26662165.60946  20681097.5784                   20681093.6684
 -30825320.00847 -23929536.41444  22654872.5634                   22654872.3164
  -7592053.34047  -5886366.90645  22950863.9454                   22950864.7074
 11  8 16  1 10  0.0000000  0  8G17G10G09G12G05G02G04G25
 -34092471.02346 -26535869.68743  23876936.2584                   23876935.2544
 -28620254.80148 -22268353.80146  21108416.5474                   21108414.9614
 -10884440.83246  -8450797.93043  24669060.6334                   24669063.3364
 -25840112.91448 -20106107.69546  20835060.0394                   20835057.7034
 -22589595.94148 -17571115.87146  20984050.7734                   20984048.7504
 -34249051.99648 -26676766.17646  20677532.0474                   20677527.9774
 -30778143.69547 -23892775.64844  22663849.9144                   22663849.2344
  -7709461.55947  -5977853.78545  22928521.5944                   22928522.5514
 11  8 16  1 10 30.0000000  0  8G17G10G09G12G05G02G04G25
 -34062999.09046 -26512904.53143  23882545.0704                   23882543.8674
 -28615124.12148 -22264355.84846  21109392.7584                   21109391.1724
 -10836750.56646  -8413636.81243  24678135.5864                   24678138.8914
 -25901474.02348 -20153921.52046  20823383.2814                   20823380.7154
 -22688904.17248 -17648498.85946  20965152.8134                   20965151.1954
 -34267539.74248 -26691172.19946  20674014.1094                   20674010.1954
 -30730902.31647 -23855964.19944  22672840.3364                   22672839.4964
  -7826486.39547  -6069041.88745  22906252.5084                   22906253.8554
 11  8 16  1 11  0.0000000  0  8G17G10G09G12G05G02G04G25
 -34033314.80546 -26489773.89844  23888193.4774                   23888193.1334
 -28609377.87948 -22259878.25046  21110486.2974                   21110484.7234
 -10789081.19946  -8376491.98043  24687207.2034                   24687210.4104
 -25962252.34448 -20201281.23446  20811817.4694                   20811815.1334
 -22787710.60248 -17725490.82446  20946350.6724                   20946348.7974
 -34285784.32048 -26705388.75046  20670541.9694                   20670537.9574
 -30683602.71147 -23819107.36345  22681841.0554                   22681840.1804
  -7943130.49247  -6159933.34445  22884056.2344                   22884056.7624
 11  8 16  1 11 30.0000000  0  8G17G10G09G12G05G02G04G25
 -34003408.98047 -26466470.59444  23893884.6484                   23893883.2664
 -28603008.52348 -22254915.09846  21111698.5704                   21111696.9104
 -10741426.81246  -8339358.84443  24696275.2734                   24696278.3054
 -26022437.25848 -20248178.53946  20800364.6094                   20800362.5594
 -22886003.39848 -17802082.55946  20927646.2664                   20927644.4024
 -34303777.73448 -26719409.58246  20667118.0314                   20667114.1054
 -30636236.96947 -23782198.98444  22690853.8364                   22690853.7234
  -8059381.98447  -6250518.87145  22861933.9694                   22861934.4804
 11  8 16  1 12  0.0000000  0  8G17G10G09G12G05G02G04G25
 -33973284.18747 -26442996.69144  23899616.4774                   23899616.0354
 -28596020.91848 -22249470.20746  21113027.9304                   21113026.2584
 -10693793.32846  -8302241.97343  24705339.1254                   24705343.0944
 -26082030.43748 -20294614.76646  20789024.6334                   20789022.3874
 -22983783.85948 -17878275.06646  20909038.7424                   20909037.2934
 -34321523.84448 -26733237.70346  20663740.9924                   20663737.2584
 -30588809.35547 -23745242.41044  22699879.6174                   22699878.2074
  -8175241.24247  -6340798.79345  22839886.5784                   22839887.7194
 11  8 16  1 12 30.0000000  0  8G17G10G09G12G05G02G04G25
 -33942947.64146 -26419357.82444  23905389.8364                   23905389.3674
 -28588423.83648 -22243550.39546  21114473.4614                   21114472.6094
 -10646191.17646  -8265149.53143  24714398.7034                   24714401.6334
 -26141038.41048 -20340594.98446  20777795.7894                   20777793.4494
 -23081057.22348 -17954072.44146  20890528.4304                   20890526.8054
 -34339031.65648 -26746880.15246  20660409.6094                   20660405.4534
 -30541328.59447 -23708244.39845  22708914.8054                   22708914.0514
  -8290713.22747  -6430776.90645  22817912.8984                   22817914.1724
 11  8 16  1 13  0.0000000  0  8G17G10G09G12G05G02G04G25
 -33912400.55446 -26395554.83743  23911201.7344                   23911201.9064
 -28580220.25848 -22237157.98046  21116034.9064                   21116033.0944
 -10598624.77746  -8228084.94543  24723449.9844                   24723453.2934
 -26199461.25848 -20386119.25846  20766678.1564                   20766675.9884
 -23177822.82048 -18029474.15646  20872114.6334                   20872113.0434
 -34356303.48848 -26760338.71146  20657122.8524                   20657118.3634
 -30493797.38347 -23671207.10944  22717960.0784                   22717959.0634
  -8405796.74647  -6520452.32845  22796013.2664                   22796014.3984
 11  8 16  1 13 30.0000000  0  8G17G10G09G12G05G02G04G25
 -33881634.60246 -26371581.39843  23917057.1334                   23917056.3754
 -28571403.73848 -22230287.96146  21117712.6334                   21117711.2584
 -10551088.71946  -8191043.99243  24732495.1954                   24732499.3484
 -26257289.47748 -20431180.18746  20755673.8834                   20755671.5044
 -23274070.41448 -18104472.22346  20853799.4534                   20853797.6094
 -34373332.33648 -26773607.92646  20653882.4064                   20653877.9774
 -30446209.06647 -23634125.30544  22727015.2274                   22727014.5474
  -8520481.00847  -6609816.66045  22774189.0704                   22774190.4734
 11  8 16  1 14  0.0000000  0  8G17G10G09G12G05G02G04G25
 -33850664.79746 -26347449.08644  23922950.8054                   23922949.5314
 -28561991.17648 -22222953.49646  21119503.4844                   21119501.8714
 -10503600.93046  -8154040.65643  24741533.0314                   24741536.2854
 -26314537.27748 -20475788.84446  20744779.8364                   20744777.3524
 -23369813.03948 -18179076.81646  20835580.0004                   20835578.5164
 -34390134.25448 -26786700.32446  20650684.5554                   20650680.5634
 -30398579.65247 -23597011.47744  22736078.6804                   22736078.3914
  -8634778.48447  -6698879.58245  22752439.0944                   22752440.3284
 11  8 16  1 14 30.0000000  0  8G17G10G09G12G05G02G04G25
 -33819468.21546 -26323140.02044  23928886.9224                   23928886.5824
 -28551961.60248 -22215138.21946  21121412.1024                   21121410.1724
 -10456141.83246  -8117059.69943  24750564.3444                   24750567.5084
 -26371181.05148 -20519926.83246  20734000.9924                   20733998.6334
 -23465025.96948 -18253268.65246  20817461.7274                   20817459.6724
 -34406688.09448 -26799599.41046  20647534.5704                   20647530.6024
 -30350887.89147 -23559849.06245  22745154.6724                   22745154.0354
  -8748664.00447  -6787621.52345  22730767.6564                   22730768.6764
 11  8 16  1 15  0.0000000  0  8G17G10G09G12G05G02G04G25
 -33788049.97346 -26298658.25844  23934866.0944                   23934864.9654
 -28541321.72748 -22206847.39846  21123436.8674                   21123435.2114
 -10408719.30946  -8080107.20343  24759588.5634                   24759592.2544
 -26427224.73848 -20563597.21946  20723336.2194                   20723333.9454
 -23559712.35948 -18327050.19946  20799443.1484                   20799441.6454
 -34423000.11348 -26812310.06246  20644430.4774                   20644426.8594
 -30303140.35547 -23522643.18444  22754240.8754                   22754239.9924
  -8862140.11347  -6876044.41845  22709173.6724                   22709174.6884
 11  8 16  1 15 30.0000000  0  7G17G10G12G05G02G04G25
 -33756416.64546 -26274008.88744  23940885.4694                   23940884.9774
 -28530080.28948 -22198087.82046  21125576.1414                   21125574.5004
 -26482674.16048 -20606804.54746  20712784.1804                   20712782.2624
 -23653877.18448 -18400425.33646  20781523.9064                   20781522.6844
 -34439078.16048 -26824838.39846  20641371.0554                   20641367.2774
 -30255345.05947 -23485400.10244  22763335.4144                   22763335.0004
  -8975211.24247  -6964151.75445  22687657.4454                   22687658.3674
 11  8 16  1 16  0.0000000  0  7G17G10G12G05G02G04G25
 -33724568.41046 -26249192.04343  23946945.0004                   23946944.4924
 -28518239.32448 -22188861.08646  21127829.2664                   21127827.6804
 -26537528.72348 -20649548.34046  20702346.1254                   20702343.7544
 -23747518.98048 -18473392.91046  20763704.8754                   20763703.1094
 -34454923.81648 -26837185.64846  20638355.7424                   20638351.4534
 -30207503.55147 -23448120.99644  22772440.0784                   22772439.1094
  -9087875.20348  -7051941.80545  22666217.9534                   22666218.8634
 11  8 16  1 16 30.0000000  0  7G17G10G12G05G02G04G25
 -33692496.61746 -26224201.00043  23953048.5234                   23953047.4144
 -28505791.88348 -22179161.77346  21130197.5004                   21130196.5124
 -26591778.55548 -20691820.92646  20692022.6484                   20692020.2734
 -23840627.02048 -18545944.56646  20745986.8364                   20745985.0124
 -34470529.94548 -26849346.26246  20635385.9924                   20635381.8014
 -30159608.35546 -23410800.07444  22781553.0084                   22781553.1024
  -9200120.70747  -7139405.80145  22644858.3524                   22644859.2194
 11  8 16  1 17  0.0000000  0  7G17G10G12G05G02G04G25
 -33660209.62947 -26199042.30544  23959192.9774                   23959191.4224
 -28492748.76648 -22168998.28146  21132679.9924                   21132678.2384
 -26645431.65648 -20733628.51646  20681812.7584                   20681810.2774
 -23933208.05148 -18618085.57046  20728369.2274                   20728367.3364
 -34485905.74648 -26861327.38346  20632460.2424                   20632455.9734
 -30111669.45747 -23373445.09844  22790676.4064                   22790675.6954
  -9311953.99648  -7226548.57845  22623577.2734                   22623577.9924
 11  8 16  1 17 30.0000000  0  7G17G10G12G05G02G04G25
 -33627697.13747 -26173707.85944  23965380.1174                   23965379.4304
 -28479101.46548 -22158364.00846  21135277.3204                   21135275.4844
 -26698476.64548 -20774962.25046  20671718.7424                   20671716.2774
 -24025249.75048 -18689806.32846  20710853.8444                   20710852.4024
 -34501042.14548 -26873121.96546  20629579.7344                   20629575.6954
 -30063677.85547 -23336049.02744  22799808.4614                   22799807.9414
  -9423362.13347  -7313360.07445  22602376.7424                   22602377.9494
 11  8 16  1 18  0.0000000  0  7G17G10G12G05G02G04G25
 -33594973.50047 -26148208.87544  23971607.4454                   23971606.3014
 -28464866.06648 -22147271.47346  21137985.5474                   21137984.3834
 -26750927.13348 -20815832.76246  20661737.3834                   20661735.4614
 -24116764.87548 -18761116.75846  20693439.2814                   20693437.3164
 -34515955.13748 -26884742.46946  20626741.8594                   20626737.8244
 -30015649.30547 -23298624.18444  22808948.3524                   22808947.7194
  -9534357.14148  -7399849.65245  22581254.7664                   22581255.9884
 11  8 16  1 18 30.0000000  0  7G17G10G12G05G02G04G25
 -33562038.16446 -26122544.91044  23977873.5314                   23977874.3714
 -28450044.21548 -22135721.96946  21140806.4064                   21140804.7894
 -26802781.81648 -20856238.99246  20651869.6724                   20651867.4304
 -24207750.97348 -18832014.96546  20676125.3754                   20676123.4574
 -34530645.32048 -26896189.35246  20623946.3674                   20623942.5594
 -29967584.35547 -23261170.96544  22818094.8054                   22818094.1914
  -9644936.13348  -7486015.08245  22560212.5474                   22560213.2304
 11  8 16  1 19  0.0000000  0  7G17G10G12G05G02G04G25
 -31953468.41846 -24869113.90243  24283974.5474                   24283973.8094
 -26859214.50048 -20896114.38346  21443531.5314                   21443529.8444
 -25278614.19548 -19668575.89546  20941909.3204                   20941907.0784
 -22722779.07448 -17674893.94946  20958705.9924                   20958703.9494
 -32969689.46548 -25679860.10546  20920986.6334                   20920982.0744
 -28344062.03147 -21996088.64144  23127040.5164                   23127039.9774
  -8179669.10948  -6344248.53545  22839043.3984                   22839044.1374
 11  8 16  1 19 30.0000000  0  7G17G10G12G05G02G04G25
 -31920098.98446 -24843111.69943  24290324.3054                   24290324.0744
 -26843215.30548 -20883647.46946  21446575.6414                   21446574.2304
 -25329264.16048 -19708043.39146  20932270.8834                   20932268.5394
 -22812691.57048 -17744955.57846  20941596.3914                   20941594.6454
 -32983926.88748 -25690954.18746  20918276.8204                   20918273.1174
 -28295917.62547 -21958573.50444  23136201.9064                   23136201.4694
  -8289398.27047  -6429751.73845  22818162.5234                   22818163.1604
 11  8 16  1 20  0.0000000  0  7G17G10G12G05G02G04G25
 -31886509.23846 -24816937.91043  24296717.1644                   24296715.1914
 -26826627.06248 -20870721.55545  21449732.2424                   21449730.9574
 -25379307.58248 -19747038.24646  20922748.3364                   20922745.9964
 -22902061.39148 -17814594.35946  20924589.5004                   20924587.8364
 -32997936.67248 -25701870.89546  20915611.1564                   20915607.2274
 -28247732.02747 -21921026.30544  23145371.5084                   23145371.1564
  -8398695.58648  -6514918.43745  22797364.1644                   22797365.0004
 11  8 16  1 20 30.0000000  0  7G17G10G12G05G02G04G25
 -31852710.41846 -24790601.10243  24303147.7034                   24303146.4024
 -26809462.67648 -20857346.68445  21452999.0944                   21452996.5904
 -25428754.49648 -19785568.29346  20913338.7504                   20913336.4384
 -22990897.84048 -17883817.51246  20907684.1094                   20907682.9064
 -33011730.85548 -25712619.59446  20912986.2734                   20912982.1804
 -28199517.59047 -21883456.59844  23154546.5004                   23154545.7814
  -8507569.74248  -6599755.42245  22776646.0474                   22776646.8634
 11  8 16  1 21  0.0000000  0  7G17G10G12G05G02G04G25
 -31818700.10546 -24764099.51243  24309619.9924                   24309618.3404
 -26791722.06648 -20843522.83246  21456374.7274                   21456373.1414
 -25477602.16448 -19823631.39146  20904043.0704                   20904040.7344
 -23079196.78548 -17952621.83246  20890881.5234                   20890879.7424
 -33025308.34848 -25723199.44146  20910402.5864                   20910398.4884
 -28151273.25047 -21845863.60544  23163727.3834                   23163726.5944
  -8616016.07047  -6684259.01645  22756009.4454                   22756010.3524
 11  8 16  1 21 30.0000000  0  7G17G10G12G05G02G04G25
 -31784479.22346 -24737433.85543  24316131.8674                   24316131.4804
 -26773408.30148 -20829252.34845  21459859.8754                   21459858.1054
 -25525850.44148 -19861227.43446  20894861.7114                   20894859.2074
 -23166957.63348 -18021006.85946  20874180.9304                   20874179.5594
 -33038671.68048 -25733612.41446  20907859.5704                   20907855.1524
 -28103001.08647 -21808248.92644  23172913.0554                   23172912.0354
  -8724033.11748  -6768428.11345  22735454.3444                   22735454.9104
 11  8 16  1 22  0.0000000  0  7G17G10G12G05G02G04G25
 -31750042.89846 -24710600.27343  24322685.8984                   24322684.6684
 -26754518.93448 -20814533.35546  21463454.1484                   21463452.2664
 -25573493.91048 -19898352.19146  20885795.8054                   20885793.4884
 -23254174.09048 -18088967.68746  20857584.9614                   20857583.2384
 -33051816.64848 -25743855.23846  20905358.2814                   20905353.9534
 -28054697.39847 -21770609.67644  23182104.7194                   23182104.2894
  -8831613.68447  -6852257.08245  22714982.4614                   22714983.1844
 11  8 16  1 22 30.0000000  0  7G17G10G12G05G02G04G25
 -31715384.16446 -24683593.48443  24329280.4694                   24329280.5744
 -26735049.10247 -20799362.03946  21467159.3284                   21467157.6054
 -25620525.46948 -19935000.14146  20876845.5474                   20876843.2034
 -23340837.34848 -18156497.45746  20841093.2344                   20841091.2114
 -33064737.80148 -25753923.65246  20902899.0554                   20902895.1524
 -28006356.75447 -21732941.64544  23191304.2424                   23191303.3134
  -8938748.55948  -6935738.78545  22694595.6254                   22694596.1954
 11  8 16  1 23  0.0000000  0  7G17G10G12G05G02G04G25
 -31680512.28946 -24656420.60043  24335917.1414                   24335916.1214
 -26715009.68747 -20783746.89845  21470972.6644                   21470970.7544
 -25666953.24648 -19971177.60546  20868010.8134                   20868008.4844
 -23426954.75448 -18223601.87946  20824705.8524                   20824703.5394
 -33077445.21548 -25763825.52346  20900481.1094                   20900476.9224
 -27957989.16047 -21695252.60544  23200507.5084                   23200507.4924
  -9045444.32847  -7018878.30945  22674291.5314                   22674292.3874
 11  8 16  1 23 30.0000000  0  7G17G10G12G05G02G04G25
 -31645429.17346 -24629083.11643  24342591.4844                   24342591.6054
 -26694404.96948 -20767691.26246  21474893.5944                   21474891.7274
 -25712778.75848 -20006885.76646  20859290.7664                   20859288.1564
 -23512527.09448 -18290281.57846  20808421.7344                   20808419.8324
 -33089942.16848 -25773563.39146  20898103.0864                   20898099.0234
 -27909597.93747 -21657545.16444  23209716.8134                   23209716.0474
  -9151700.81247  -7101675.54345  22654071.9224                   22654073.1884
 11  8 16  1 24  0.0000000  0  7G17G10G12G05G02G04G25
 -31610135.00646 -24601581.12043  24349308.4144                   24349307.4384
 -26673237.31648 -20751196.97345  21478921.3754                   21478919.6024
 -25758001.64148 -20042124.36346  20850684.9774                   20850682.4964
 -23597552.82448 -18356535.35246  20792241.8834                   20792239.8054
 -33102229.92648 -25783138.23846  20895764.6414                   20895760.6094
 -27861184.06247 -21619820.05944  23218928.6724                   23218928.6094
  -9257515.68448  -7184128.66845  22633935.8134                   22633937.0944
 11  8 16  1 24 30.0000000  0  7G17G10G12G05G02G04G25
 -31574641.27046 -24573923.62543  24356063.1954                   24356062.3284
 -26651520.29748 -20734274.60545  21483054.0234                   21483052.4804
 -25802632.63748 -20076901.73046  20842191.8364                   20842189.5274
 -23682041.69948 -18422370.79346  20776163.8754                   20776162.1254
 -33114321.03948 -25792559.86746  20893463.9304                   20893459.9534
 -27812760.31246 -21582087.27344  23228144.1954                   23228143.5904
  -9362897.99247  -7266244.71145  22613882.3984                   22613883.1134
 11  8 16  1 25  0.0000000  0  8G17G10G29G12G05G02G04G25
 -31538935.65647 -24546101.01244  24362857.1024                   24362856.4694
 -26629243.47748 -20716916.04345  21487293.0784                   21487291.4844
   6134745.08656   4803908.21552  24719562.6564                   24719563.2304
 -25846658.66448 -20111207.71146  20833813.8674                   20833811.6604
 -23765979.61748 -18487776.91846  20760191.2584                   20760189.4884
 -33126204.13348 -25801819.41046  20891202.8054                   20891198.5944
 -27764315.20746 -21544337.85244  23237362.8134                   23237362.2234
  -9467832.98847  -7348012.20345  22593914.0084                   22593914.3834
 11  8 16  1 25 30.0000000  0  8G17G10G29G12G05G02G04G25
 -31503019.25846 -24518114.17644  24369691.6724                   24369691.5204
 -26606410.56647 -20699124.15245  21491637.9774                   21491636.4384
   6021165.23045   4715404.47742  24697948.4694                   24697949.9534
 -25890080.64548 -20145042.99646  20825551.2274                   20825548.6724
 -23849366.43448 -18552753.61346  20744323.0314                   20744321.0634
 -33137881.79748 -25810918.87546  20888980.5864                   20888976.1214
 -27715851.02347 -21506573.55544  23246585.4064                   23246584.4264
  -9572319.54347  -7429430.25445  22574031.0474                   22574031.3204
 11  8 16  1 26  0.0000000  0  8G17G10G29G12G05G02G04G25
 -31466901.70347 -24489970.59444  24376565.7274                   24376564.3164
 -26583033.30948 -20680908.10545  21496086.4144                   21496084.9494
   5907524.86746   4626853.65643  24676324.0944                   24676324.8094
 -25932907.61348 -20178414.65246  20817401.2894                   20817398.8714
 -23932209.93448 -18617306.96146  20728558.3594                   20728556.5634
 -33149364.43048 -25819866.37546  20886795.0164                   20886790.9264
 -27667378.78147 -21468803.00844  23255809.3984                   23255808.9104
  -9676365.00847  -7510504.62545  22554231.4614                   22554231.8204
 11  8 16  1 26 30.0000000  0  8G17G10G29G12G05G02G04G25
 -31430577.87946 -24461666.28144  24383477.4454                   24383477.1524
 -26559108.23448 -20662265.17645  21500639.4924                   21500637.5864
   5793829.72346   4538260.18043  24654689.0634                   24654689.4304
 -25975133.59448 -20211318.00446  20809366.0864                   20809363.4264
 -24014503.59848 -18681431.84446  20712898.5944                   20712896.6414
 -33160647.87948 -25828658.65246  20884648.1724                   20884644.5984
 -27618893.83647 -21431022.51644  23265035.2034                   23265035.1804
  -9779961.56647  -7591229.18445  22534517.7344                   22534518.3524
 11  8 16  1 27  0.0000000  0  8G17G10G29G12G05G02G04G25
 -31394055.82446 -24433207.51644  24390427.3134                   24390426.6484
 -26534645.73448 -20643203.48846  21505294.6094                   21505293.0044
   5680072.76246   4449618.49643  24633041.2504                   24633042.3984
 -26016766.51648 -20243759.22346  20801443.6484                   20801440.8714
 -24096254.03148 -18745133.43746  20697341.9774                   20697340.0944
 -33171741.64848 -25837303.13346  20882536.8984                   20882532.9264
 -27570405.27347 -21393239.23444  23274262.9614                   23274261.8444
  -9883115.02047  -7671608.43745  22514888.2664                   22514889.4024
 11  8 16  1 27 30.0000000  0  8G17G10G29G12G05G02G04G25
 -31357327.19146 -24404587.73844  24397416.2664                   24397415.6844
 -26509639.97747 -20623718.47345  21510052.9774                   21510051.0164
   5566262.71146   4360935.43843  24611384.8914                   24611384.3984
 -26057797.40248 -20275731.32446  20793635.4774                   20793633.0084
 -24177451.07048 -18808403.82046  20681890.4224                   20681888.6884
 -33182637.95748 -25845793.75046  20880463.2814                   20880459.0824
 -27521905.87547 -21355447.50444  23283491.1174                   23283491.2274
  -9985814.76647  -7751634.17645  22495345.0944                   22495345.9924
 11  8 16  1 28  0.0000000  0  8G17G10G29G12G05G02G04G25
 -31320391.35946 -24375806.52344  24404444.1564                   24404444.0204
 -26484092.70748 -20603811.49645  21514914.0234                   21514912.5474
   5452400.30946   4272211.62143  24589716.3984                   24589716.9574
 -26098225.14848 -20307233.44146  20785942.5234                   20785939.7774
 -24258093.13748 -18871241.75446  20666544.8204                   20666542.6294
 -33193337.80148 -25854131.28146  20878427.3594                   20878423.3594
 -27473396.23047 -21317647.79344  23292723.2344                   23292721.8954
 -10088058.02747  -7831304.22345  22475888.8834                   22475889.4964
 11  8 16  1 28 30.0000000  0  8G17G10G29G12G05G02G04G25
 -31283249.67646 -24346864.92244  24411512.5084                   24411511.6174
 -26458007.21948 -20583485.13345  21519878.2814                   21519876.3094
   5338485.00447   4183446.56344  24568039.7664                   24568040.0274
 -26138050.79748 -20338266.39846  20778363.6884                   20778361.3204
 -24338179.89148 -18933646.97346  20651304.6644                   20651303.0044
 -33203843.40248 -25862317.44546  20876428.3364                   20876424.4024
 -27424878.43047 -21279841.69944  23301955.9614                   23301953.9614
 -10189843.60947  -7910617.62145  22456519.1954                   22456520.4494
 11  8 16  1 29  0.0000000  0  8G17G10G29G12G05G02G04G25
 -31245894.83646 -24317757.23044  24418621.0784                   24418619.8364
 -26431378.23448 -20562735.27345  21524946.1954                   21524944.2624
   5224525.00847   4094646.67644  24546354.1024                   24546353.9844
 -26177266.03948 -20368823.72346  20770901.3834                   20770899.0394
 -24417702.27048 -18995612.42246  20636172.1564                   20636170.3594
 -33214148.09848 -25870347.07446  20874467.0164                   20874463.4304
 -27376346.01246 -21242024.22744  23311191.3204                   23311189.9024
 -10291161.69147  -7989566.72345  22437239.2734                   22437240.1214
 11  8 16  1 29 30.0000000  0  8G17G10G29G12G05G02G04G25
 -31208333.62546 -24288488.70343  24425768.0314                   24425767.5434
 -26404214.60947 -20541568.80145  21530114.9224                   21530112.6094
   5110514.25446   4005807.26644  24524657.8284                   24524658.3714
 -26215877.96548 -20398910.91446  20763553.5704                   20763550.9224
 -24496665.49648 -19057142.16846  20621146.2974                   20621144.1414
 -33224259.51648 -25878226.09046  20872543.2584                   20872539.1564
 -27327806.43747 -21204201.18444  23320428.1954                   23320427.2704
 -10392016.59447  -8068154.92245  22418047.3364                   22418048.0904
 11  8 16  1 30  0.0000000  0  8G17G10G29G12G05G02G04G25
 -31170554.68746 -24259050.57843  24432958.3834                   24432956.7154
 -26376507.52748 -20519978.85545  21535387.7504                   21535385.4024
   4996464.43447   3916937.39844  24502955.1334                   24502954.5234
 -26253874.56248 -20428518.62946  20756323.3984                   20756320.6764
 -24575056.93748 -19118226.35947  20606228.5004                   20606226.3834
 -33234167.74648 -25885946.77746  20870657.6804                   20870653.9144
 -27279249.40247 -21166364.51644  23329667.8054                   23329666.2274
 -10492394.94547  -8146371.77045  22398945.7734                   22398946.5904
 11  8 16  1 30 30.0000000  0  8G17G10G29G12G05G02G04G25
 -31132561.19945 -24229445.21543  24440186.2274                   24440187.2734
 -26348262.50447 -20497969.73845  21540761.7344                   21540760.1804
   4882373.01647   3828035.05944  24481244.4224                   24481244.1644
 -26291258.65248 -20457649.07046  20749209.3284                   20749206.9804
 -24652878.33248 -19178866.37146  20591419.3364                   20591417.2424
 -33243876.66048 -25893512.15246  20868810.1254                   20868806.0474
 -27230679.17647 -21128517.55544  23338910.5474                   23338908.8954
 -10592297.45347  -8224217.84445  22379935.1024                   22379935.6214
 11  8 16  1 31  0.0000000  0  8G17G10G29G12G05G02G04G25
 -31094367.37146 -24199683.67643  24447454.4924                   24447454.9384
 -26319495.79348 -20475554.11745  21546236.1884                   21546234.5274
   4768226.60246   3739089.90644  24459522.6804                   24459521.9614
 -26328043.95748 -20486312.92646  20742208.9844                   20742206.7504
 -24730142.56248 -19239072.22347  20576716.7584                   20576714.3914
 -33253401.52748 -25900934.10546  20866997.8444                   20866993.6804
 -27182110.85247 -21090672.09043  23348152.0944                   23348151.3794
 -10691735.96948  -8301702.34445  22361012.6884                   22361012.7154
 11  8 16  1 31 30.0000000  0  8G17G10G29G12G05G02G04G25
 -31055969.73446 -24169763.52743  24454761.1334                   24454761.4454
 -26290206.67247 -20452731.41045  21551809.3364                   21551808.0864
   4654029.20346   3650105.02044  24437791.2034                   24437791.5314
 -26364226.90248 -20514507.41446  20735323.9064                   20735321.3834
 -24806844.93448 -19298840.25846  20562120.4224                   20562118.5594
 -33262739.98448 -25908210.81246  20865220.8204                   20865216.4264
 -27133541.66847 -21052825.94544  23357395.0164                   23357394.0474
 -10790705.02047  -8378821.05945  22342179.0554                   22342179.8404
 11  8 16  1 32  0.0000000  0  8G17G10G29G12G05G02G04G25
 -31017367.14546 -24139683.59042  24462109.5164                   24462107.7664
 -26260395.84047 -20429502.18445  21557482.3444                   21557480.9804
   4539782.87947   3561081.96944  24416050.6564                   24416051.4574
 -26399805.44948 -20542230.93746  20728553.7114                   20728551.0554
 -24882982.75448 -19358168.39147  20547632.2424                   20547629.7854
 -33271891.66448 -25915341.97746  20863478.9224                   20863474.8954
 -27084971.18446 -21014978.82444  23366637.5784                   23366636.8324
 -10889200.75847  -8455570.93745  22323435.8524                   22323436.7344
 11  8 16  1 32 30.0000000  0  8G17G10G29G12G05G02G04G25
 -30978559.97346 -24109444.17643  24469493.6334                   24469491.7934
 -26230066.10548 -20405868.61745  21563254.1884                   21563252.4414
   4425487.58646   3472020.77744  24394301.2974                   24394301.9064
 -26434780.29748 -20569484.04746  20721897.8524                   20721895.2544
 -24958554.96148 -19417055.78546  20533250.9924                   20533249.0164
 -33280857.80948 -25922328.57446  20861773.0234                   20861768.4494
 -27036400.77347 -20977131.74244  23375880.4694                   23375879.6994
 -10987221.45347  -8531950.65645  22304783.4454                   22304784.4614
 11  8 16  1 33  0.0000000  0  7G10G29G12G05G02G04G25
 -26199222.87947 -20381834.92645  21569123.1564                   21569121.9344
   4311141.32046   3382919.87543  24372541.5704                   24372541.9384
 -26469154.47748 -20596269.10946  20715357.0704                   20715354.4064
 -25033563.46148 -19475503.93446  20518977.0164                   20518975.2384
 -33289642.72747 -25929173.94946  20860101.0084                   20860097.0984
 -26987834.20346 -20939287.64144  23385122.3914                   23385121.5554
 -11084767.93047  -8607960.86745  22286220.4304                   22286221.2074
 11  8 16  1 33 30.0000000  0  7G10G29G12G05G02G04G25
 -26167861.48448 -20357397.46945  21575090.9774                   21575089.3484
   4196752.16846   3293785.46143  24350774.3674                   24350773.8834
 -26502919.52048 -20622579.50846  20708931.6334                   20708928.8674
 -25107999.69548 -19533506.15247  20504812.8594                   20504810.6334
 -33298239.82448 -25935872.96146  20858465.2194                   20858460.9964
 -26939265.15247 -20901441.62544  23394364.8674                   23394364.0204
 -11181830.74247  -8683594.18045  22267750.7274                   22267750.7814
 11  8 16  1 34  0.0000000  0  7G10G29G12G05G02G04G25
 -26135984.39548 -20332558.17645  21581157.2664                   21581155.4844
   4082320.16446   3204617.73043  24328999.5864                   24328998.5944
 -26536076.98448 -20648416.48446  20702621.7974                   20702619.2584
 -25181862.88348 -19591061.84847  20490757.2734                   20490755.0904
 -33306650.87948 -25942427.02346  20856864.4304                   20856860.3914
 -26890695.08246 -20863594.82444  23403606.9144                   23403606.6644
 -11278408.09048  -8758849.22345  22249372.4304                   22249372.8444
 11  8 16  1 34 30.0000000  0  7G10G29G12G05G02G04G25
 -26103588.21148 -20307314.40245  21587321.8834                   21587320.2584
   3967851.91046   3115421.77043  24307215.9064                   24307216.3634
 -26568620.36348 -20673774.94546  20696429.0084                   20696426.1604
 -25255145.52348 -19648165.16447  20476811.5004                   20476809.6484
 -33314870.63348 -25948832.00046  20855300.2274                   20855296.2504
 -26842118.58246 -20825742.99644  23412850.8984                   23412850.6524
 -11374491.73047  -8833719.57045  22231088.3524                   22231088.9654
 11  8 16  1 35  0.0000000  0  7G10G29G12G05G02G04G25
 -26070682.40248 -20281673.50845  21593583.8364                   21593581.7774
   3853340.91446   3026192.50843  24285423.9454                   24285424.6414
 -26600556.62148 -20698660.32446  20690351.6414                   20690348.8874
 -25327853.87148 -19704820.98846  20462975.7034                   20462973.6954
 -33322907.20748 -25955094.25446  20853770.7734                   20853766.8984
 -26793543.65246 -20787892.42644  23422094.2194                   23422093.5664
 -11470086.62947  -8908209.06645  22212896.8594                   22212897.5084
 11  8 16  1 35 30.0000000  0  7G10G29G12G05G02G04G25
 -26037268.30548 -20255636.55145  21599942.0234                   21599940.5234
   3738789.57846   2936931.67643  24263626.8914                   24263625.8244
 -26631884.04348 -20723071.28946  20684390.4534                   20684387.6954
 -25399985.62148 -19761027.50847  20449249.1254                   20449247.1174
 -33330760.06248 -25961213.33646  20852276.8834                   20852272.3954
 -26744969.68746 -20750042.57843  23431337.8754                   23431336.9964
 -11565189.37147  -8982315.05145  22194799.6094                   22194800.2304
 11  8 16  1 36  0.0000000  0  7G10G29G12G05G02G04G25
 -26003351.15247 -20229207.60245  21606395.9614                   21606394.8714
   3624195.48846   2847637.67243  24241820.0784                   24241819.5824
 -26662605.49248 -20747010.07846  20678544.2114                   20678541.5434
 -25471542.62948 -19816786.18047  20435632.6954                   20435630.2814
 -33338433.49648 -25967192.60946  20850816.4614                   20850812.3914
 -26696400.78546 -20712196.66843  23440580.1564                   23440579.7344
 -11659800.84448  -9056038.24645  22176795.6174                   22176796.2934
 11  8 16  1 36 30.0000000  0  7G10G29G12G05G02G04G25
 -25968923.82048 -20202381.10245  21612947.8754                   21612945.9654
   3509569.22746   2758318.57443  24220007.4064                   24220007.3524
 -26692711.95748 -20770469.65246  20672815.0944                   20672812.5004
 -25542513.73048 -19872088.29747  20422127.0084                   20422124.7704
 -33345918.54748 -25973025.09846  20849392.0784                   20849387.6174
 -26647827.85546 -20674347.64143  23449822.7034                   23449822.8244
 -11753909.11348  -9129369.33245  22158887.3914                   22158888.0554
 11  8 16  1 37  0.0000000  0  7G10G29G12G05G02G04G25
 -25933995.36347 -20175164.14145  21619594.6174                   21619592.3404
   3394904.61346   2668969.55543  24198187.0704                   24198187.0164
 -26722209.49648 -20793454.74646  20667201.8674                   20667199.3794
 -25612904.67648 -19926938.34847  20408732.5314                   20408730.3874
 -33353222.64148 -25978716.57446  20848001.9844                   20847998.0204
 -26599258.10946 -20636501.10543  23459065.7034                   23459065.6454
 -11847518.69948  -9202311.83645  22141073.6024                   22141074.7624
 11  8 16  1 37 30.0000000  0  7G10G29G12G05G02G04G25
 -25898576.33248 -20147564.89145  21626334.4454                   21626332.6764
   3280194.26246   2579584.87943  24176358.7274                   24176358.7774
 -26751106.59848 -20815971.94946  20661702.8444                   20661700.5634
 -25682722.61348 -19981341.89147  20395446.1884                   20395444.0704
 -33360355.16448 -25984274.36746  20846644.7034                   20846640.9144
 -26550700.88746 -20598664.31643  23468306.4614                   23468305.1954
 -11940635.82448  -9274870.58645  22123354.7344                   22123355.0904
 11  8 16  1 38  0.0000000  0  7G10G29G12G05G02G04G25
 -25862671.82848 -20119587.35245  21633166.8284                   21633165.2624
   3165436.89546   2490163.61744  24154521.2034                   24154521.0824
 -26779405.57048 -20838023.09846  20656317.6564                   20656315.0784
 -25751968.68748 -20035299.82847  20382269.0784                   20382266.9064
 -33367319.26648 -25989700.91846  20845319.3914                   20845315.6134
 -26502159.01246 -20560839.48044  23477543.8284                   23477542.8834
 -12033260.50848  -9347045.63346  22105728.7114                   22105729.2234
 11  8 16  1 38 30.0000000  0  7G10G29G12G05G02G04G25
 -25826283.28947 -20091232.64545  21640091.3444                   21640089.4924
   3050633.75846   2400706.68444  24132675.0164                   24132674.3834
 -26807105.59048 -20859607.52346  20651046.3674                   20651044.3134
 -25820641.08648 -20088810.75447  20369201.0084                   20369199.1414
 -33374115.39848 -25994996.59446  20844025.9304                   20844021.9454
 -26453632.83646 -20523026.85544  23486777.7734                   23486777.0314
 -12125390.21148  -9418834.97345  22088196.8524                   22088197.4804
 11  8 16  1 39  0.0000000  0  7G10G29G12G05G02G04G25
 -25789413.98047 -20062503.30145  21647107.4384                   21647105.5594
   2935785.11346   2311214.28143  24110819.7894                   24110819.2664
 -26834207.80148 -20880726.12546  20645889.1884                   20645886.6024
 -25888739.73048 -20141874.59447  20356242.3834                   20356240.2774
 -33380744.78148 -26000162.32046  20842764.5784                   20842760.5204
 -26405123.30547 -20485227.23444  23496008.5394                   23496007.8914
 -12217023.33648  -9490237.38346  22070759.7194                   22070760.2464
 11  8 16  1 39 30.0000000  0  7G10G29G12G05G02G04G25
 -25752063.84847 -20033399.30545  21654215.1174                   21654213.2074
   2820894.33647   2221689.09444  24088957.2664                   24088956.7074
 -26860709.37148 -20901376.70346  20640846.1724                   20640843.7974
 -25956260.91048 -20194488.46147  20343393.5474                   20343391.3284
 -33387205.84848 -26005196.89546  20841535.2344                   20841531.0474
 -26356628.70347 -20447439.21544  23505236.9774                   23505236.0784
 -12308155.20348  -9561249.19946  22053417.5554                   22053418.6804
 11  8 16  1 40  0.0000000  0  7G10G29G12G05G02G04G25
 -25714227.32047 -20003916.28145  21661414.7664                   21661412.9454
   2705970.79347   2132138.37144  24067087.5784                   24067086.4694
 -26886602.05548 -20921552.80546  20635918.9064                   20635916.4344
 -26023195.43048 -20246645.19147  20330656.3444                   20330654.2234
 -33393491.17648 -26010094.52346  20840339.0864                   20840334.9024
 -26308141.38347 -20409656.86744  23514463.5634                   23514462.8284
 -12398775.48048  -9631862.36346  22036173.2734                   22036173.9844
 11  8 16  1 40 30.0000000  0  7G10G29G12G05G02G04G25
 -25675913.96147 -19974061.70345  21668705.5554                   21668703.8674
   2591007.89547   2042556.94544  24045210.7504                   24045210.3914
 -26911893.35948 -20941260.31246  20631106.3594                   20631103.6484
 -26089549.49648 -20298349.62547  20318029.5554                   20318027.7544
 -33399608.94948 -26014861.60946  20839175.0164                   20839170.6374
 -26259669.38747 -20371886.45344  23523687.6954                   23523686.7854
 -12488889.40248  -9702080.97346  22019025.1804                   22019026.3554
 11  8 16  1 41  0.0000000  0  7G10G29G12G05G02G04G25
 -25637133.65647 -19943843.28145  21676085.5474                   21676083.8914
   2475999.36747   1952939.97344  24023325.4144                   24023324.9924
 -26936590.89148 -20960505.13746  20626406.2114                   20626403.7274
 -26155329.19548 -20349606.49247  20305511.9144                   20305509.8754
 -33405567.18448 -26019504.36346  20838040.8444                   20838037.0084
 -26211220.60247 -20334134.14844  23532906.9454                   23532905.9494
 -12578502.19948  -9771909.09445  22001972.5084                   22001973.2664
 11  8 16  1 41 30.0000000  0  7G10G29G12G05G02G04G25
 -25597874.77347 -19913251.94945  21683556.0234                   21683554.1524
   2360960.34847   1863299.28944  24001434.0394                   24001434.3444
 -26960680.32448 -20979276.11746  20621822.3364                   20621820.0784
 -26220519.57848 -20400404.16447  20293106.9774                   20293104.6294
 -33411352.26648 -26024012.20746  20836940.3444                   20836936.1844
 -26162781.32847 -20296389.23444  23542124.4384                   23542123.6884
 -12667597.46548  -9841333.94546  21985018.1254                   21985018.2774
 11  8 16  1 42  0.0000000  0  7G10G29G12G05G02G04G25
 -25558155.10947 -19882301.54345  21691114.4224                   21691112.7194
   2245876.53546   1773623.63744  23979534.4844                   23979533.7854
 -26984176.93448 -20997585.14846  20617351.2344                   20617348.3404
 -26285134.81248 -20450753.65647  20280810.9844                   20280808.5314
 -33416980.24648 -26028397.62946  20835869.1484                   20835865.5044
 -26114367.23447 -20258663.95344  23551337.4614                   23551336.9064
 -12756188.39148  -9910365.80546  21968160.0474                   21968160.2384
 11  8 16  1 42 30.0000000  0  7G10G29G12G05G02G04G25
 -23942546.87147 -18623386.03545  21998554.3364                   21998552.7814
   3706183.74646   2911525.44544  24257421.5554                   24257421.7234
 -25431649.35248 -19787823.38746  20912787.1094                   20912784.6724
 -24773741.05148 -19273044.20747  20568419.5314                   20568417.2974
 -31847020.68448 -24805052.49646  21134622.7734                   21134618.4414
 -24490549.67647 -18993351.53544  23860339.7734                   23860338.7154
 -11268838.87548  -8751392.12946  22251192.8524                   22251193.3204
 11  8 16  1 43  0.0000000  0  7G10G29G12G05G02G04G25
 -23901897.50047 -18591711.19145  22006289.4064                   22006287.9574
   3591027.86746   2821793.68044  24235507.9144                   24235507.9884
 -25453946.87948 -19805198.07046  20908544.1884                   20908541.5634
 -24837188.93748 -19322484.08247  20556345.7894                   20556343.4804
 -31852322.53948 -24809183.80546  21133613.7584                   21133609.7114
 -24442173.31647 -18955655.64844  23869545.7814                   23869544.4224
 -11356400.42648  -8819621.87546  22234530.1804                   22234531.4454
 11  8 16  1 43 30.0000000  0  7G10G29G12G05G02G04G25
 -23860790.80947 -18559679.99645  22014112.1954                   22014110.4104
   3475833.61746   2732032.00044  24213587.3914                   24213586.6914
 -25475648.84848 -19822108.68746  20904414.2814                   20904412.0164
 -24900055.47748 -19371470.95747  20544382.2974                   20544380.2974
 -31857466.19148 -24813191.82846  21132634.9774                   21132630.7584
 -24393820.43047 -18917978.08244  23878746.3444                   23878745.8794
 -11443447.98848  -8887451.09846  22217966.1254                   22217966.7464
 11  8 16  1 44  0.0000000  0  7G10G29G12G05G02G04G25
 -23819231.84447 -18527296.37545  22022020.3984                   22022018.5554
   3360599.94947   2642239.62144  24191658.7734                   24191658.5904
 -25496757.87948 -19838557.26246  20900397.5704                   20900394.9924
 -24962341.92648 -19420005.82847  20532529.8984                   20532527.6214
 -31862454.54348 -24817078.83646  21131685.1024                   21131681.4964
 -24345493.42247 -18880320.64843  23887942.7114                   23887942.0664
 -11529981.68448  -8954879.91446  22201498.7734                   22201499.6094
 11  8 16  1 44 30.0000000  0  7G10G29G12G05G02G04G25
 -23777217.11347 -18494557.62545  22030015.6094                   22030013.9694
   3245333.84447   2552421.90644  24169724.5864                   24169723.8794
 -25517268.16048 -19854539.29346  20896494.4924                   20896492.0744
 -25024041.27748 -19468083.21947  20520788.9144                   20520786.5004
 -31867282.25448 -24820840.66446  21130766.9534                   21130762.8134
 -24297187.22347 -18842679.41444  23897135.1254                   23897134.8594
 -11615993.62948  -9021902.16446  22185131.3984                   22185132.3444
 11  8 16  1 45  0.0000000  0  7G10G29G12G05G02G04G25
 -23734754.07447 -18461469.53945  22038095.9304                   22038094.3164
   3130031.24646   2462575.80543  24147782.8674                   24147782.6524
 -25537184.64148 -19870058.60946  20892704.5084                   20892702.2234
 -25085158.48048 -19515706.97747  20509158.4924                   20509156.2814
 -31871955.35547 -24824482.04346  21129877.5004                   21129873.4574
 -24248907.40647 -18805058.77044  23906322.7734                   23906321.6484
 -11701486.95748  -9088520.31246  22168862.4384                   22168863.4734
 11  8 16  1 45 30.0000000  0  7G10G29G12G05G02G04G25
 -23691843.40647 -18428032.64145  22046261.7584                   22046259.7704
   3014695.19947   2372703.62944  24125835.0864                   24125834.6604
 -25556505.93448 -19885114.14846  20889027.4774                   20889025.2854
 -25145690.30948 -19562874.60547  20497639.7664                   20497637.4964
 -31876472.16048 -24828001.61346  21129018.0234                   21129014.1524
 -24200652.30147 -18767457.37944  23915505.4534                   23915504.5664
 -11786457.64848  -9154731.19546  22152692.8834                   22152693.9574
 11  8 16  1 46  0.0000000  0  7G10G29G12G05G02G04G25
 -23648485.07047 -18394246.91045  22054512.8054                   22054510.3554
   2899329.21946   2282808.11744  24103881.6254                   24103881.2424
 -25575230.18748 -19899704.46146  20885464.4844                   20885462.4844
 -25205633.13748 -19609583.27747  20486233.0314                   20486230.7384
 -31880831.14548 -24831398.21546  21128188.5474                   21128184.1214
 -24152419.95747 -18729873.73044  23924683.4924                   23924683.1024
 -11870901.27348  -9220531.37146  22136624.2194                   22136624.9774
 11  8 16  1 46 30.0000000  0  7G10G29G12G05G02G04G25
 -23604676.32847 -18360110.22345  22062849.0554                   22062847.0664
   2783939.61347   2192894.18844  24081923.9924                   24081923.6684
 -25593352.60248 -19913825.80946  20882015.7584                   20882013.1134
 -25264981.44948 -19655828.68447  20474939.4144                   20474936.9064
 -31885027.88348 -24834668.37946  21127390.1484                   21127385.8404
 -24104205.61347 -18692304.12144  23933858.6564                   23933858.2074
 -11954810.60948  -9285915.25046  22120656.3364                   22120656.6844
 11  8 16  1 47  0.0000000  0  7G10G29G12G05G02G04G25
 -23560431.07047 -18325633.39145  22071268.3054                   22071266.9144
   2668516.17646   2102953.88744  24059959.3364                   24059959.4384
 -25610884.58248 -19927487.08246  20878679.9224                   20878676.9654
 -25323745.68048 -19701618.95747  20463756.8674                   20463754.6054
 -31889074.09048 -24837821.25846  21126620.1024                   21126616.1374
 -24056020.80947 -18654757.50844  23943026.8594                   23943027.0434
 -12038194.98448  -9350890.05146  22104789.0474                   22104789.1134
 11  8 16  1 47 30.0000000  0  7G10G29G12G05G02G04G25
 -23515752.59447 -18290818.99645  22079770.9384                   22079768.7894
   2553059.60247   2012987.77044  24037988.6884                   24037988.6094
 -25627827.05548 -19940688.99246  20875455.9384                   20875453.2234
 -25381925.78948 -19746954.07447  20452685.4224                   20452683.1414
 -31892971.45348 -24840858.15246  21125878.0704                   21125874.3954
 -24007867.00047 -18617235.06244  23952190.8524                   23952190.6914
 -12121053.27748  -9415454.91046  22089021.7344                   22089021.9774
 11  8 16  1 48  0.0000000  0  7G10G29G12G05G02G04G25
 -23470646.50447 -18255671.37945  22088354.0864                   22088352.3674
   2437567.69947   1922994.10244  24016011.4064                   24016011.4104
 -25644183.70748 -19953434.43046  20872343.3914                   20872340.5664
 -25439523.95748 -19791835.74247  20441724.8674                   20441722.5124
 -31896723.27748 -24843781.64146  21125164.6254                   21125160.6214
 -23959747.38347 -18579739.23444  23961348.0784                   23961347.5824
 -12203386.61748  -9479610.71546  22073354.0164                   22073354.3134
 11  8 16  1 48 30.0000000  0  7G10G29G12G05G02G04G25
 -23425105.39147 -18220184.80145  22097020.3444                   22097018.5474
   2322051.08247   1832981.19144  23994029.9614                   23994029.1884
 -25659944.92648 -19965715.88746  20869343.9694                   20869341.7074
 -25496530.22348 -19836256.17247  20430876.7814                   20430874.1294
 -31900320.98448 -24846585.03146  21124479.8524                   21124475.7974
 -23911652.83247 -18542262.94944  23970500.4844                   23970499.2384
 -12285183.43748  -9543348.46946  22057788.5234                   22057788.8524
 11  8 16  1 49  0.0000000  0  7G10G29G12G05G02G04G25
 -23379131.99647 -18184361.35945  22105768.5554                   22105767.0904
   2206511.31647   1742950.22344  23972042.5394                   23972041.8674
 -25675111.48048 -19977533.97746  20866457.7194                   20866455.3834
 -25552943.62148 -19880214.63747  20420141.9694                   20420139.6804
 -31903765.05548 -24849268.70346  21123824.8754                   21123820.3204
 -23863583.77747 -18504806.52744  23979647.5704                   23979646.3244
 -12366441.87148  -9606666.70346  22042325.5944                   22042325.9574
 11  8 16  1 49 30.0000000  0  7G10G29G12G05G02G04G25
 -23332723.02747 -18148198.51645  22114600.0554                   22114598.7194
   2090955.43847   1652906.73444  23950054.2584                   23950052.6914
 -25689678.29748 -19988884.73846  20863686.0084                   20863683.5394
 -25608757.59448 -19923706.00847  20409520.5554                   20409518.3954
 -31907049.93748 -24851828.33646  21123199.3524                   21123195.1454
 -23815534.45747 -18467365.49644  23988790.7274                   23988789.7034
 -12447154.02748  -9669559.24246  22026966.9534                   22026967.3244
 11  8 16  1 50  0.0000000  0  7G10G29G12G05G02G04G25
 -23285886.98047 -18111702.89545  22123512.6254                   22123510.8014
   1975378.77347   1562847.02744  23928060.0554                   23928058.9534
 -25703651.38348 -19999772.85246  20861026.8524                   20861024.3914
 -25663977.56248 -19966734.52747  20399012.7114                   20399010.5394
 -31910182.54348 -24854269.30946  21122603.2424                   21122599.0394
 -23767511.18746 -18429944.75044  23997928.9844                   23997928.6564
 -12527324.02348  -9732029.33246  22011711.3364                   22011711.2584
 11  8 16  1 50 30.0000000  0  7G10G29G12G05G02G04G25
 -23238625.66047 -18074875.88745  22132506.5554                   22132504.3324
   1859783.12547   1472772.56644  23906062.7274                   23906062.0274
 -25717030.57448 -20010198.19146  20858480.6954                   20858478.4804
 -25718602.14848 -20009299.10547  20388617.9454                   20388615.5864
 -31913162.26248 -24856591.15246  21122036.1414                   21122031.7704
 -23719513.57047 -18392543.98444  24007063.0004                   24007062.3834
 -12606949.24248  -9794074.93746  21996558.4064                   21996558.8204
 11  8 16  1 51  0.0000000  0  7G10G29G12G05G02G04G25
 -23190953.32047 -18037728.60245  22141577.5164                   22141575.7304
   1744158.02346   1382675.12944  23884060.2114                   23884059.0744
 -25729828.26248 -20020170.41446  20856045.7664                   20856043.0044
 -25772642.71148 -20051408.60947  20378334.5314                   20378331.9734
 -31916001.74648 -24858803.71946  21121495.6484                   21121491.5704
 -23671553.90647 -18355172.78944  24016188.6884                   24016188.6254
 -12686039.78148  -9855703.86746  21981508.1644                   21981508.7274
 11  8 16  1 51 30.0000000  0  7G10G29G12G05G02G04G25
 -23142867.52747 -18000259.14545  22150728.0864                   22150726.5044
   1628509.55947   1292559.48044  23862052.9844                   23862052.0434
 -25742039.65648 -20029685.78146  20853721.5634                   20853719.3554
 -25826093.27048 -20093058.35947  20368162.9694                   20368160.6644
 -31918696.33648 -24860903.38346  21120982.8914                   21120978.9144
 -23623627.16847 -18317827.29343  24025309.1954                   24025308.8834
 -12764588.72348  -9916910.78946  21966560.8834                   21966561.0784
 11  8 16  1 52  0.0000000  0  7G10G29G12G05G02G04G25
 -23094373.00047 -17962471.19945  22159956.6954                   22159955.3094
   1512837.03546   1202425.12144  23840040.8054                   23840040.0314
 -25753667.88748 -20038746.73446  20851508.8054                   20851506.4734
 -25878955.82848 -20134249.94547  20358103.8524                   20358100.9614
 -31921248.90248 -24862892.37946  21120497.3204                   21120493.0514
 -23575736.08647 -18280509.56643  24034422.5864                   24034422.1374
 -12842596.38748  -9977695.95346  21951716.3594                   21951716.4614
 11  8 16  1 52 30.0000000  0  7G10G29G12G05G02G04G25
 -23045472.09047 -17924366.60245  22169262.4224                   22169260.1134
   1397141.91846   1112273.14144  23818024.6174                   23818024.0314
 -25764713.39548 -20047353.62146  20849406.8914                   20849404.7384
 -25931229.34048 -20174982.51247  20348156.4144                   20348153.8874
 -31923659.83648 -24864771.01246  21120038.5084                   21120034.3954
 -23527880.43746 -18243219.37143  24043529.5554                   24043528.3834
 -12920060.71948 -10038057.73846  21936975.1254                   21936975.6484
 11  8 16  1 53  0.0000000  0  7G10G29G12G05G02G04G25
 -22996172.78147 -17885951.53945  22178643.2274                   22178641.3634
   1281419.75047   1022100.09044  23796003.5474                   23796002.7974
 -25775182.07448 -20055511.02346  20847414.9844                   20847412.8524
 -25982918.87148 -20215260.04347  20338320.3134                   20338317.2664
 -31925935.02048 -24866543.86746  21119605.1724                   21119601.6254
 -23480066.27046 -18205961.57443  24052628.3204                   24052626.7154
 -12996985.65648 -10097999.19146  21922337.1564                   21922337.5394
 11  8 16  1 53 30.0000000  0  7G10G29G12G05G02G04G25
 -22946468.69547 -17847221.07845  22188102.1564                   22188099.8554
   1165680.78547    931913.97744  23773978.7114                   23773978.4304
 -25785065.49248 -20063212.38746  20845534.1094                   20845531.4734
 -26034015.09448 -20255075.25847  20328596.9844                   20328594.3954
 -31928066.28148 -24868204.56646  21119199.8204                   21119196.1604
 -23432284.73046 -18168729.18042  24061720.4534                   24061719.2034
 -13073360.39148 -10157511.93746  21907802.9924                   21907803.8324
 11  8 16  1 54  0.0000000  0  7G10G29G12G05G02G04G25
 -22896367.89147 -17808181.48445  22197635.6884                   22197633.8714
   1049921.23847    841711.78944  23751950.7664                   23751950.1484
 -25794369.86748 -20070462.55146  20843763.5314                   20843761.0004
 -26084522.97748 -20294432.01647  20318985.3204                   20318982.7854
 -31930059.22348 -24869757.50046  21118820.6334                   21118816.5744
 -23384541.58646 -18131526.73843  24070806.1174                   24070804.5084
 -13149188.57848 -10216598.80546  21893373.2664                   21893374.2194
 11  8 16  1 54 30.0000000  0  7G10G29G12G05G02G04G25
 -22845879.66047 -17768840.00845  22207242.8134                   22207241.6054
    934135.68047    751489.37544  23729917.0864                   23729917.1254
 -25803102.66048 -20077267.32446  20842101.8524                   20842099.2854
 -26134448.41448 -20333334.92647  20309484.7114                   20309482.5554
 -31931921.23448 -24871208.39146  21118466.1724                   21118462.2544
 -23336843.80946 -18094359.58243  24079882.4694                   24079881.7464
 -13224475.28948 -10275263.71546  21879047.1884                   21879047.0664
 11  8 16  1 55  0.0000000  0  7G10G29G12G05G02G04G25
 -22794997.89147 -17729191.86745  22216925.7584                   22216923.8014
    818334.03947    661254.39144  23707880.9844                   23707880.1174
 -25811255.96148 -20083620.53946  20840550.3984                   20840547.8364
 -26183782.82848 -20371777.29747  20300096.6484                   20300094.3324
 -31933644.14548 -24872550.89546  21118138.5084                   21118134.2544
 -23289182.92646 -18057221.16843  24088951.9454                   24088951.1844
 -13299210.11748 -10333498.62546  21864825.2424                   21864825.9774
 11  8 16  1 55 30.0000000  0  7G10G29G12G05G02G04G25
 -22743722.27747 -17689236.84845  22226683.2194                   22226680.9344
    702520.22347    571009.93444  23685841.6884                   23685841.9384
 -25818827.63348 -20089520.53546  20839109.5234                   20839106.8054
 -26232522.72748 -20409756.40647  20290822.3284                   20290819.3954
 -31935225.51648 -24873783.12546  21117837.4454                   21117833.3284
 -23241555.94146 -18020109.27042  24098015.7114                   24098014.0514
 -13373388.46548 -10391299.89846  21850709.3134                   21850710.8324
 11  8 16  1 56  0.0000000  0  7G10G29G12G05G02G04G25
 -22692056.73047 -17648977.97745  22236514.7894                   22236513.0824
    586694.70347    480756.33644  23663801.2664                   23663800.7154
 -25825819.87548 -20094969.02746  20837778.7274                   20837776.2384
 -26280669.07048 -20447273.00447  20281659.7664                   20281657.3444
 -31936667.11348 -24874906.43046  21117562.9774                   21117558.8634
 -23193964.80146 -17983025.30943  24107070.5944                   24107070.5784
 -13447010.10548 -10448667.36746  21836699.7504                   21836700.3244
 11  8 16  1 56 30.0000000  0  7G10G29G12G05G02G04G25
 -22640005.09847 -17608418.24645  22246420.0234                   22246417.7234
    470857.36747    390493.52044  23641758.1724                   23641757.4494
 -25832234.71548 -20099967.59846  20836557.9924                   20836555.5514
 -26328223.11348 -20484328.07447  20272610.5944                   20272608.3244
 -31937971.44948 -24875922.77346  21117314.5704                   21117310.7424
 -23146410.94946 -17945970.28143  24116121.0784                   24116120.0044
 -13520074.90248 -10505600.93746  21822796.3204                   21822796.8324
 11  8 16  1 57  0.0000000  0  7G10G29G12G05G02G04G25
 -22587569.14147 -17567559.04745  22256397.7504                   22256396.5274
    355010.42247    300223.23844  23619713.5864                   23619712.8834
 -25838071.44548 -20104515.69546  20835447.3284                   20835444.8674
 -26375183.41048 -20520920.47747  20263674.6024                   20263671.4454
 -31939137.14848 -24876831.09046  21117093.0164                   21117089.0354
 -23098893.63746 -17908943.85243  24125162.5704                   24125161.7504
 -13592580.00448 -10562098.39846  21808998.8984                   21808999.3754
 11  8 16  1 57 30.0000000  0  7G10G29G12G05G02G04G25
 -22534754.35547 -17526404.67245  22266448.1414                   22266446.7464
    239152.24247    209944.16844  23597666.0704                   23597665.1024
 -25843334.91048 -20108617.09046  20834446.0314                   20834443.3834
 -26421552.71948 -20557052.37947  20254850.6954                   20254847.8674
 -31940167.84048 -24877634.20746  21116896.6254                   21116892.6294
 -23051416.07446 -17871948.34443  24134198.0474                   24134196.6374
 -13664527.05148 -10618160.99246  21795307.6484                   21795307.8874
 11  8 16  1 58  0.0000000  0  7G10G29G12G05G02G04G25
 -22481575.37547 -17484966.48045  22276567.7424                   22276566.4104
    123272.28147    119648.11745  23575614.9774                   23575614.2274
 -25848037.60247 -20112281.52346  20833550.8204                   20833548.6454
 -26467342.68048 -20592732.83647  20246136.8834                   20246134.7114
 -31941076.07447 -24878341.90246  21116724.1414                   21116719.8014
 -23003990.42646 -17834993.32843  24143222.6414                   24143220.9184
 -13735926.44948 -10673796.85546  21781720.8984                   21781721.1024
 11  8 16  1 58 30.0000000  0  7G10G29G12G05G02G04G25
 -22428029.10547 -17443242.13345  22286757.1724                   22286755.6214
      7377.72747     29340.71544  23553560.5864                   23553559.8954
 -25852174.53948 -20115505.09846  20832763.6174                   20832761.0084
 -26512547.49648 -20627957.34447  20237535.1564                   20237532.0864
 -31941856.89848 -24878950.32446  21116575.5634                   21116570.8094
 -22956611.21146 -17798074.41843  24152238.7194                   24152237.6644
 -13806770.98048 -10729000.35546  21768239.6884                   21768240.1804
 11  8 16  1 59  0.0000000  0  7G10G29G12G05G02G04G25
 -22374110.69547 -17401227.77745  22297017.8754                   22297015.6724
   -108522.20747    -60970.89844  23531506.5084                   23531504.9844
 -25855739.25847 -20118282.79346  20832085.5234                   20832083.0204
 -26557159.25448 -20662719.72747  20229045.4844                   20229042.8634
 -31942502.64548 -24879453.46546  21116452.5474                   21116448.5784
 -22909270.48846 -17761185.54743  24161247.1484                   24161246.3554
 -13877051.35548 -10783764.25846  21754865.8524                   21754866.2814
 11  8 16  1 59 30.0000000  0  7G10G29G12G05G02G04G25
 -22319821.74247 -17358924.68745  22307348.8284                   22307346.6954
   -224425.83647   -151285.38744  23509450.4304                   23509449.3594
 -25858731.59447 -20120614.47746  20831516.0704                   20831513.4884
 -26601176.94948 -20697019.19947  20220669.5314                   20220666.7034
 -31943013.20347 -24879851.27346  21116355.3134                   21116351.3164
 -22861968.20346 -17724326.60543  24170248.0234                   24170246.9024
 -13946765.28548 -10838086.75446  21741599.8444                   21741600.0634
 11  8 16  2  0  0.0000000  0  7G10G29G12G05G02G04G25
 -22265164.82047 -17316334.87945  22317749.1414                   22317748.4304
   -340331.16447   -241601.18744  23487393.7974                   23487393.3444
 -25861152.37947 -20122500.79746  20831055.3204                   20831052.8404
 -26644600.31248 -20730855.55547  20212405.8284                   20212403.3244
 -31943388.98847 -24880144.07046  21116283.5004                   21116279.6334
 -22814704.03546 -17687497.37543  24179242.1884                   24179241.5044
 -14015911.25048 -10891966.71546  21728441.3914                   21728441.6134
 11  8 16  2  0 30.0000000  0  7G10G29G12G05G02G04G25
 -22210149.07847 -17273465.46145  22328218.8444                   22328216.4064
   -456242.86747   -331921.96944  23465337.0394                   23465335.7504
 -25863009.18748 -20123947.65646  20830701.9924                   20830699.7894
 -26687435.62948 -20764233.70747  20204254.6334                   20204251.9104
 -31943636.60948 -24880337.00046  21116236.3674                   21116232.4614
 -22767484.53146 -17650702.93743  24188228.3834                   24188226.8594
 -14084494.20748 -10945407.95346  21715389.9844                   21715390.2934
 11  8 16  2  1  0.0000000  0  7G10G29G12G05G02G04G25
 -22154779.93447 -17230320.68745  22338754.9534                   22338753.0864
   -572162.85247   -422249.18444  23443278.0944                   23443277.2114
 -25864305.44148 -20124957.72346  20830455.1174                   20830452.6564
 -26729685.62148 -20797155.75047  20196214.6174                   20196212.0744
 -31943759.42248 -24880432.68046  21116213.1954                   21116208.7304
 -22720312.75046 -17613945.69143  24197205.1954                   24197203.5004
 -14152515.45348 -10998411.48046  21702446.7584                   21702446.9304
 11  8 16  2  1 30.0000000  0  7G10G29G12G05G02G04G25
 -22099049.65247 -17186894.47745  22349359.8524                   22349358.5124
   -688079.35947   -512573.66844  23421219.0394                   23421218.8324
 -25865032.68748 -20125524.39846  20830316.9304                   20830314.3714
 -26771340.05948 -20829613.72747  20188288.0394                   20188285.7624
 -31943747.45748 -24880423.31646  21116215.2894                   21116211.4844
 -22673178.44146 -17577217.66443  24206173.3134                   24206172.9844
 -14219963.46548 -11050968.34446  21689611.6484                   21689611.8914
 11  8 16  2  2  0.0000000  0  8G26G10G29G12G05G02G04G25
   7736631.41015                  24709020.820
 -22042966.27747 -17143193.16045  22360032.8204                   22360030.5514
   -803996.06247   -602898.34444  23399160.9924                   23399160.7774
 -25865197.12548 -20125652.52746  20830285.6724                   20830283.1374
 -26812404.35248 -20861611.85247  20180474.0784                   20180470.8444
 -31943606.88748 -24880313.76246  21116242.1254                   21116238.1024
 -22626087.41446 -17540523.28942  24215133.5164                   24215133.7034
 -14286842.30148 -11103081.69946  21676884.5004                   21676885.0514
 11  8 16  2  2 30.0000000  0  8G26G10G29G12G05G02G04G25
   7611072.168 6                  24685126.375
 -21986543.52047 -17099227.37945  22370769.5864                   22370767.4344
   -919923.01246   -693230.94144  23377100.1484                   23377100.1484
 -25864810.76648 -20125351.46146  20830359.1644                   20830356.8594
 -26852889.47748 -20893158.68047  20172769.5084                   20172767.5004
 -31943349.03148 -24880112.80146  21116291.4614                   21116287.1484
 -22579050.55546 -17503871.21943  24224086.2584                   24224085.6844
 -14353161.68748 -11154759.10946  21664264.6644                   21664265.0904
 11  8 16  2  3  0.0000000  0  8G26G10G29G12G05G02G04G25
   7485393.84045   6100328.52752  24661211.3364                   24661211.1564
 -21929777.38347 -17054994.02744  22381572.0704                   22381569.6414
  -1035851.71146   -783564.92244  23355039.9614                   23355039.2344
 -25863868.25448 -20124617.03546  20830538.5474                   20830536.3404
 -26892788.86348 -20924249.08247  20165177.3594                   20165174.8054
 -31942967.47748 -24879815.46946  21116364.2034                   21116359.2464
 -22532061.56246 -17467256.39842  24233027.4064                   24233027.3094
 -14418913.71948 -11205994.44546  21651752.2504                   21651752.6414
 11  8 16  2  3 30.0000000  0  8G26G10G29G12G05G02G04G25
   7359603.62546   6002310.32043  24637273.8284                   24637274.8554
 -21872666.44147 -17010491.98844  22392439.6484                   22392437.6914
  -1151776.60546   -873895.93744  23332980.4224                   23332980.0234
 -25862366.54748 -20123446.87946  20830824.2424                   20830821.8284
 -26932098.16048 -20954879.68047  20157696.8134                   20157694.4694
 -31942458.73848 -24879419.02746  21116460.9924                   21116456.6844
 -22485116.36345 -17430675.68042  24241959.7504                   24241961.0554
 -14484092.93048 -11256783.40246  21639349.2894                   21639349.3834
 11  8 16  2  4  0.0000000  0  8G26G10G29G12G05G02G04G25
   7233689.53946   5904195.54743  24613313.7734                   24613313.8164
 -21815228.73447 -16965735.32844  22403369.5704                   22403367.7704
  -1267711.65647   -964234.84444  23310918.7974                   23310918.4344
 -25860322.13348 -20121853.83246  20831213.0944                   20831210.9184
 -26970833.07448 -20985062.69947  20150325.9774                   20150322.9224
 -31941838.35948 -24878935.59446  21116578.5944                   21116574.5664
 -22438230.33645 -17394141.09042  24250882.1884                   24250883.2194
 -14548713.34448 -11307136.94546  21627052.6884                   21627052.7584
 11  8 16  2  4 30.0000000  0  8G26G10G29G12G05G02G04G25
   7107663.33246   5805993.43443  24589331.5164                   24589331.4304
 -21757457.93747 -16920719.11344  22414362.9454                   22414361.0084
  -1383646.23047  -1054573.39544  23288857.0314                   23288856.5554
 -25857727.34448 -20119831.92246  20831707.0554                   20831704.8714
 -27008984.83648 -21014791.31647  20143065.7034                   20143063.0124
 -31941097.77748 -24878358.50046  21116719.7034                   21116715.3404
 -22391394.59845 -17357645.68742  24259795.6174                   24259795.9104
 -14612764.80948 -11357047.15646  21614863.4454                   21614864.3284
 11  8 16  2  5  0.0000000  0  8G26G10G29G12G05G02G04G25
   6981528.74646   5707706.86343  24565328.5864                   24565328.7424
 -21699356.23847 -16875445.07445  22425418.9224                   22425417.2974
  -1499578.38347  -1144910.03145  23266796.3444                   23266795.4184
 -25854582.86748 -20117381.68746  20832305.0864                   20832303.2894
 -27046552.90248 -21044065.11347  20135916.7274                   20135913.8524
 -31940237.07048 -24877687.80146  21116883.4454                   21116879.3554
 -22344608.65246 -17321189.14142  24268698.0554                   24268697.8954
 -14676245.59848 -11406512.68046  21602783.6484                   21602784.0554
 11  8 16  2  5 30.0000000  0  8G26G10G29G12G05G02G04G25
   6855284.89846   5609335.12543  24541304.6414                   24541305.7544
 -21640930.44947 -16829918.46544  22436537.0474                   22436535.6884
  -1615510.89847  -1235246.96944  23244734.0164                   23244733.3284
 -25850893.75448 -20114507.05946  20833007.2584                   20833005.1334
 -27083541.59848 -21072887.44147  20128878.3054                   20128875.6334
 -31939260.78947 -24876927.05146  21117069.3834                   21117064.9574
 -22297876.80546 -17284774.73042  24277590.5864                   24277590.7424
 -14739158.69948 -11455535.85546  21590812.1024                   21590812.2194
 11  8 16  2  6  0.0000000  0  8G26G10G29G12G05G02G04G25
   6728933.60546   5510879.68843  24517260.9454                   24517261.8914
 -21582184.17247 -16784142.15244  22447716.6884                   22447714.5394
  -1731443.06647  -1325583.62145  23222673.7974                   23222672.6524
 -25846662.98848 -20111210.36346  20833812.4064                   20833810.1684
 -27119951.93748 -21101259.11347  20121949.3204                   20121946.4104
 -31938170.12947 -24876077.16846  21117276.6174                   21117272.6804
 -22251200.15246 -17248403.23843  24286473.1884                   24286473.1214
 -14801503.88348 -11504116.50846  21578947.7274                   21578948.0744
 11  8 16  2  6 30.0000000  0  8G26G10G29G12G05G02G04G25
   8177912.46146   6639954.23443  24792992.7734                   24792992.7704
 -19947692.09847 -15510511.98044  22758749.8984                   22758747.6454
   -271939.77047   -188308.24245  23500407.8364                   23500406.3484
 -24266461.53548 -18879884.56246  21134514.9694                   21134512.3054
 -25580352.98048 -19901571.59047  20414925.3134                   20414922.4734
 -30361535.37948 -23647530.59446  21417300.6024                   21417296.3674
 -20629150.34846 -15984468.29742  24595139.2344                   24595138.7894
 -13287848.02048 -10324644.38346  21866987.1024                   21866987.1884
 11  8 16  2  7  0.0000000  0  8G26G10G29G12G05G02G04G25
   8051375.82446   6541354.37143  24768913.4534                   24768914.4494
 -19888293.30547 -15464227.19144  22770053.1484                   22770051.2544
   -387847.03147   -278625.50845  23478351.3444                   23478350.5164
 -24261130.68048 -18875730.65246  21135529.3834                   21135526.8554
 -25615587.47748 -19929027.01647  20408220.5634                   20408217.7344
 -30360197.46548 -23646488.05546  21417554.9304                   21417550.7154
 -20582564.55946 -15948167.69542  24604004.5314                   24604003.7584
 -13349034.37148 -10372322.03146  21855343.8594                   21855343.9844
 11  8 16  2  7 30.0000000  0  8G26G10G29G12G05G02G04G25
   7924746.60546   6442682.37943  24744816.7344                   24744816.8554
 -19828577.13747 -15417695.11344  22781416.2034                   22781415.0664
   -503744.21947   -368934.91445  23456296.8674                   23456295.4304
 -24255257.06648 -18871153.82046  21136646.7584                   21136644.6134
 -25650239.74648 -19956028.76247  20401626.2114                   20401623.7344
 -30358741.35948 -23645353.40646  21417831.7814                   21417827.6484
 -20536029.19946 -15911906.36742  24612860.0314                   24612859.0514
 -13409644.52748 -10419550.71946  21843809.9304                   21843810.7074
 11  8 16  2  8  0.0000000  0  8G26G10G29G12G05G02G04G25
   7798017.20346   6343932.30943  24720700.4844                   24720700.2304
 -19768556.52047 -15370925.82444  22792838.5084                   22792836.9884
   -619640.23847   -459243.43044  23434242.2344                   23434240.7274
 -24248852.00048 -18866162.86746  21137865.9064                   21137863.3954
 -25684319.98848 -19982584.77747  20395140.8524                   20395138.1334
 -30357177.49248 -23644134.80546  21418129.5784                   21418125.4924
 -20489554.42647 -15875692.24643  24621703.8754                   24621702.7504
 -13469687.73448 -10466337.61346  21832384.1724                   21832384.1174
 11  8 16  2  8 30.0000000  0  8G26G10G29G12G05G02G04G25
   7671207.48846   6245119.64543  24696569.3984                   24696569.2624
 -19708218.01247 -15323908.80944  22804320.6254                   22804318.3444
   -735517.27047   -549537.12945  23412191.3204                   23412190.3164
 -24241900.39548 -18860746.03546  21139188.6724                   21139186.3554
 -25717812.35548 -20008682.71147  20388767.6414                   20388764.5594
 -30355490.08248 -23642819.91846  21418451.0634                   21418446.4264
 -20443124.28946 -15839512.87543  24630538.7734                   24630538.2424
 -13529146.68448 -10512669.23846  21821069.6414                   21821069.6914
 11  8 16  2  9  0.0000000  0  8G26G10G29G12G05G02G04G25
   7544319.02346   6146245.65643  24672423.4844                   24672422.8834
 -19647565.88347 -15276647.40644  22815862.2664                   22815860.3594
   -851375.13347   -639815.90244  23390144.7734                   23390143.3834
 -24234405.70348 -18854906.02346  21140614.9614                   21140612.7114
 -25750718.57448 -20034323.89847  20382505.7274                   20382503.0234
 -30353681.13748 -23641410.33646  21418794.9384                   21418790.4964
 -20396740.11746 -15803369.34043  24639364.6094                   24639364.2074
 -13588021.88348 -10558546.00446  21809865.8834                   21809866.2704
 11  8 16  2  9 30.0000000  0  8G26G10G29G12G05G02G04G25
   7417361.19946   6047317.58643  24648263.3054                   24648263.9574
 -19586596.22747 -15229138.59444  22827464.6334                   22827462.3244
   -967206.19947   -730073.80144  23368102.3284                   23368101.2034
 -24226362.86748 -18848638.88346  21142145.7034                   21142143.0984
 -25783032.78948 -20059503.78147  20376356.5704                   20376354.0664
 -30351744.60248 -23639901.34846  21419163.1954                   21419159.0904
 -20350395.80146 -15767256.88343  24648184.5314                   24648183.2704
 -13646306.06248 -10603962.21946  21798774.4774                   21798774.6484
 11  8 16  2 10  0.0000000  0  8G26G10G29G12G05G02G04G25
   7290333.00046   5948334.70343  24624090.7584                   24624091.1454
 -19525316.29747 -15181388.00044  22839125.7424                   22839123.8634
  -1083013.07447   -820312.85544  23346065.0394                   23346063.4264
 -24217777.49648 -18841948.99246  21143779.2814                   21143777.0434
 -25814759.72748 -20084226.05147  20370319.0554                   20370316.4884
 -30349685.02748 -23638296.46546  21419555.1414                   21419550.9224
 -20304095.70346 -15731178.85243  24656995.4144                   24656994.0864
 -13704002.60548 -10648920.54746  21787795.4924                   21787795.5274
 11  8 16  2 10 30.0000000  0  8G26G10G29G12G05G02G04G25
   7163225.10246   5849289.68843  24599903.2504                   24599903.3714
 -19463741.07447 -15133407.31644  22850842.8834                   22850840.9574
  -1198806.48447   -910541.40244  23324029.9224                   23324028.8364
 -24208663.75048 -18834847.37946  21145513.6094                   21145510.8164
 -25845912.46148 -20108500.89147  20364390.9614                   20364388.0984
 -30347515.26648 -23636605.73046  21419968.1094                   21419963.9574
 -20257852.16046 -15695144.89543  24665794.7734                   24665793.9534
 -13761123.12948 -10693430.03946  21776925.5864                   21776925.7584
 11  8 16  2 11  0.0000000  0  8G26G10G29G12G05G02G04G25
   7036041.62946   5750185.76243  24575701.5234                   24575701.1644
 -19401872.47747 -15085198.01244  22862616.2814                   22862613.8674
  -1314583.98047  -1000757.56244  23301998.2114                   23301997.1254
 -24199022.40648 -18827334.64546  21147348.5004                   21147345.4694
 -25876490.34848 -20132327.80147  20358572.1564                   20358569.1414
 -30345234.94148 -23634828.84446  21420402.2424                   21420397.7194
 -20211664.41446 -15659154.48043  24674583.7584                   24674582.9734
 -13817665.82448 -10737489.25446  21766165.6954                   21766166.0984
 11  8 16  2 11 30.0000000  0  8G26G10G29G12G05G02G04G25
   6908795.78146   5651033.25843  24551487.0164                   24551487.4064
 -19339703.07847 -15036754.32844  22874446.2664                   22874444.5004
  -1430333.93447  -1090952.25044  23279971.7424                   23279970.8134
 -24188844.96148 -18819404.17246  21149284.8754                   21149282.5164
 -25906483.95348 -20155699.42247  20352864.4534                   20352861.8444
 -30342834.35947 -23632958.25046  21420859.1094                   21420854.5864
 -20165522.41846 -15623199.63743  24683364.0944                   24683363.3164
 -13873619.80148 -10781089.73046  21755518.1254                   21755518.1884
 11  8 16  2 12  0.0000000  0  8G26G10G29G12G05G02G04G25
   6781478.19146   5551824.85243  24527258.8364                   24527259.1174
 -19277248.24247 -14988088.21944  22886331.6254                   22886329.7274
  -1546067.53547  -1181134.20344  23257948.6804                   23257947.1804
 -24178145.28948 -18811066.77046  21151321.0394                   21151318.5744
 -25935906.06648 -20178625.72347  20347266.0704                   20347262.7074
 -30340326.19947 -23631003.82046  21421336.2034                   21421331.7584
 -20119438.83646 -15587290.37543  24692134.1954                   24692133.0594
 -13928996.75048 -10824240.57446  21744980.1024                   21744980.2664
 11  8 16  2 12 30.0000000  0  8G26G10G29G12G05G02G04G25
   6654090.84846   5452562.07043  24503018.8444                   24503017.7114
 -19214511.94546 -14939202.79744  22898269.1564                   22898267.8984
  -1661784.27347  -1271303.00445  23235928.1724                   23235926.5474
 -24166926.68448 -18802325.00446  21153455.9614                   21153452.9844
 -25964758.68048 -20201108.26647  20341775.2504                   20341772.2154
 -30337712.09447 -23628966.84446  21421833.7114                   21421829.4144
 -20073415.06246 -15551427.68443  24700892.5394                   24700891.4694
 -13983797.30148 -10866942.28146  21734551.8984                   21734551.8014
 11  8 16  2 13  0.0000000  0  8G26G10G29G12G05G02G04G25
   6526648.56646   5353256.53543  24478766.1564                   24478766.6954
 -19151485.58246 -14890091.33644  22910263.0474                   22910261.2584
  -1777471.00847  -1361448.44544  23213913.6884                   23213912.0514
 -24155179.09048 -18793171.03946  21155691.4924                   21155688.8324
 -25993031.17648 -20223138.76647  20336395.2344                   20336392.2344
 -30334980.99648 -23626838.71146  21422353.1644                   21422349.0274
 -20027439.27746 -15515602.37943  24709640.8834                   24709640.0514
 -14038009.06648 -10909185.18746  21724235.6484                   21724235.8594
 11  8 16  2 13 30.0000000  0  8G26G10G29G12G05G02G04G25
   6399155.16046   5253911.12143  24454504.7424                   24454504.8284
 -19088170.96146 -14840755.26244  22922310.9224                   22922309.6024
  -1893125.55947  -1451568.79745  23191905.0554                   23191903.2814
 -24142903.08248 -18783605.32846  21158027.4844                   21158024.5234
 -26020723.24248 -20244716.97747  20331125.8204                   20331122.8444
 -30332132.52347 -23624619.11746  21422895.5634                   21422890.8324
 -19981511.03146 -15479814.19143  24718380.8914                   24718380.5984
 -14091630.60248 -10950968.18446  21714032.0084                   21714031.9804
 11  8 16  2 14  0.0000000  0  8G26G10G29G12G05G02G04G25
   6271611.88347   5154526.79743  24430234.3134                   24430234.3014
 -19024573.12547 -14791198.50044  22934413.4534                   22934411.9104
  -2008748.35947  -1541664.41045  23169902.8444                   23169902.2854
 -24130103.16848 -18773631.36746  21160463.3914                   21160460.4414
 -26047837.41048 -20265844.87547  20325965.7424                   20325963.1644
 -30329169.14848 -23622309.97346  21423458.9384                   21423455.1804
 -19935632.52346 -15444064.62543  24727109.7034                   24727110.4494
 -14144663.49248 -10992292.48446  21703940.2734                   21703940.3444
 11  8 16  2 14 30.0000000  0  7G26G10G29G12G05G02G25
   6144016.95747   5055102.25043  24405954.0554                   24405952.9654
 -18960699.78547 -14741427.07844  22946568.1564                   22946567.1524
  -2124342.67247  -1631737.83245  23147906.3834                   23147904.7194
 -24116785.63348 -18763254.07846  21162997.5234                   21162995.3014
 -26074379.58648 -20286527.07447  20320914.9304                   20320912.0944
 -30326096.00848 -23619915.31246  21424044.1254                   21424039.9264
 -14197111.89848 -11033161.35246  21693959.8284                   21693960.0514
 11  8 16  2 15  0.0000000  0  7G26G10G29G12G05G02G25
   6016374.42647   4955640.59843  24381664.4694                   24381663.4414
 -18896552.89547 -14691442.48044  22958775.0554                   22958773.3364
  -2239906.25447  -1721787.30945  23125915.3674                   23125914.1884
 -24102951.64148 -18752474.34846  21165630.0234                   21165627.3444
 -26100349.69148 -20306763.50447  20315973.1094                   20315970.3094
 -30322913.01248 -23617435.04346  21424649.5234                   21424645.5124
 -14248974.57048 -11073573.80146  21684090.2734                   21684090.3984
 11  8 16  2 15 30.0000000  0  7G26G10G29G12G05G02G25
   5888688.10247   4856144.80143  24357366.3674                   24357366.2274
 -18832134.27346 -14641246.16444  22971033.0704                   22971031.6134
  -2355436.79347  -1811811.03945  23103930.4614                   23103929.3634
 -24088601.96548 -18741292.78546  21168360.7974                   21168357.9184
 -26125747.78148 -20326554.20747  20311139.6094                   20311137.0314
 -30319619.52048 -23614868.67646  21425276.5394                   21425271.9184
 -14300250.14548 -11113528.77346  21674333.0394                   21674333.2194
 11  8 16  2 16  0.0000000  0  7G26G10G29G12G05G02G25
   5760967.52747   4756622.34443  24333061.8134                   24333061.6764
 -18767440.93447 -14590835.75044  22983344.4304                   22983342.7034
  -2470926.28947  -1901802.77045  23081953.1564                   23081951.9264
 -24073732.79748 -18729706.42246  21171190.1644                   21171187.3594
 -26150568.16448 -20345894.74247  20306417.0554                   20306414.2114
 -30316209.71947 -23612211.68046  21425925.2734                   21425921.2424
 -14350931.87148 -11153020.99246  21664688.6564                   21664688.6844
 11  8 16  2 16 30.0000000  0  7G26G10G29G12G05G02G25
   5633209.23847   4657070.52343  24308749.6724                   24308750.1454
 -18702481.89547 -14540218.32044  22995705.5234                   22995703.2734
  -2586379.89547  -1991766.56645  23059983.3834                   23059982.0044
 -24058352.17648 -18717721.53146  21174116.6484                   21174114.3954
 -26174818.32848 -20364790.95347  20301802.1564                   20301799.2034
 -30312690.60248 -23609469.50046  21426595.2584                   21426590.6374
 -14401025.94148 -11192055.31246  21655156.0004                   21655156.2814
 11  8 16  2 17  0.0000000  0  7G26G10G29G12G05G02G25
   5505425.21947   4557498.64143  24284433.4844                   24284433.2034
 -18637251.72347 -14489389.60244  23008118.2894                   23008116.1884
  -2701787.36747  -2081694.39145  23038021.6254                   23038019.9964
 -24042453.81248 -18705333.18746  21177142.1094                   21177139.7664
 -26198490.90648 -20383237.10247  20297297.1804                   20297294.4024
 -30309054.07448 -23606635.82846  21427287.3204                   21427282.7504
 -14450523.18748 -11230624.58246  21645737.0634                   21645736.8134
 11  8 16  2 17 30.0000000  0  7G26G10G29G12G05G02G25
   5377611.70346   4457903.80943  24260112.1884                   24260111.5594
 -18571759.71146 -14438356.86744  23020581.3674                   23020579.6134
  -2817153.96147  -2171590.37145  23016067.9844                   23016067.2664
 -24026046.00048 -18692547.89546  21180264.3284                   21180261.9924
 -26221593.37548 -20401239.00447  20292900.7664                   20292898.1454
 -30305307.14848 -23603716.13746  21428000.1334                   21427995.4654
 -14499430.03948 -11268733.78946  21636430.2034                   21636429.8754
 11  8 16  2 18  0.0000000  0  7G26G10G29G12G05G02G25
   5249763.25846   4358281.73844  24235781.5704                   24235782.7194
 -18506017.58647 -14387129.23844  23033091.4454                   23033089.5434
  -2932486.60547  -2261459.90245  22994121.4224                   22994119.8914
 -24009139.75448 -18679374.19946  21183481.6484                   21183478.8484
 -26244135.49248 -20418804.28147  20288611.1254                   20288608.7624
 -30301458.87148 -23600717.46946  21428732.3054                   21428728.6294
 -14547754.92248 -11306389.52746  21627234.1954                   21627234.2774
 11  8 16  2 18 30.0000000  0  7G26G10G29G12G05G02G25
   5121893.22746   4258642.84443  24211449.8284                   24211449.0784
 -18440018.02047 -14335700.99244  23045651.0474                   23045649.3444
  -3047773.85247  -2351294.03945  22972182.7194                   22972181.2034
 -23991726.89148 -18665805.73846  21186795.3284                   21186792.4774
 -26266107.91048 -20435925.62147  20284430.2344                   20284427.4774
 -30297499.73048 -23597632.39846  21429485.8594                   21429481.5204
 -14595487.33648 -11343583.59846  21618151.4064                   21618151.0474
 11  8 16  2 19  0.0000000  0  7G26G10G29G12G05G02G25
   4993995.49246   4158982.36743  24187111.6174                   24187111.3014
 -18373773.05947 -14284081.55544  23058256.9144                   23058255.1254
  -3163023.35247  -2441098.77745  22950251.3364                   22950250.0594
 -23973818.31648 -18651851.01246  21190203.2504                   21190200.6174
 -26287520.95348 -20452611.09447  20280355.3524                   20280352.5784
 -30293439.25048 -23594468.36746  21430258.3834                   21430254.1914
 -14642636.11748 -11380322.88346  21609179.2194                   21609179.1724
 11  8 16  2 19 30.0000000  0  7G26G10G29G12G05G02G25
   4866085.95747   4059312.66044  24162771.4614                   24162771.5514
 -18307273.32846 -14232263.59044  23070910.8204                   23070909.8594
  -3278220.70347  -2530862.88345  22928330.3594                   22928328.4304
 -23955403.64148 -18637501.92246  21193707.5164                   21193705.0164
 -26308363.07848 -20468851.69947  20276389.3284                   20276386.3834
 -30289265.10948 -23591215.77046  21431052.9534                   21431048.3984
 -14689188.62948 -11416597.54746  21600320.2894                   21600320.4964
 11  8 16  2 20  0.0000000  0  7G26G10G29G12G05G02G25
   4738160.31646   3959630.37543  24138427.3284                   24138428.1174
 -18240528.94546 -14180254.99244  23083612.9304                   23083611.1094
  -3393371.94547  -2620591.06245  22906417.2424                   22906415.6134
 -23936492.83648 -18622766.23046  21197305.9924                   21197303.2734
 -26328642.74248 -20484654.01247  20272530.4384                   20272527.5044
 -30284985.27348 -23587880.81646  21431867.2584                   21431862.4614
 -14735151.86348 -11452413.04346  21591574.0084                   21591574.0314
 11  8 16  2 20 30.0000000  0  7G26G10G29G12G05G02G25
   4610220.23446   3859936.85543  24114081.2894                   24114080.9064
 -18173544.07446 -14128058.96144  23096358.9224                   23096356.7194
  -3508477.09847  -2710283.31245  22884513.7584                   22884511.7854
 -23917089.35548 -18607646.63346  21200998.3984                   21200995.8914
 -26348362.59448 -20500020.11347  20268777.4844                   20268774.7894
 -30280601.72348 -23584465.04346  21432701.2424                   21432697.0634
 -14780527.33248 -11487770.53546  21582939.1564                   21582939.1644
 11  8 16  2 21  0.0000000  0  7G26G10G29G12G05G02G25
   4482279.50446   3760242.84043  24089735.0084                   24089734.3284
 -18106310.93046 -14075669.52744  23109152.8134                   23109151.7974
  -3623523.97347  -2799930.18445  22862620.8834                   22862619.2894
 -23897184.57848 -18592136.43046  21204785.8204                   21204783.6994
 -26367513.14148 -20514942.59447  20265133.4304                   20265130.3524
 -30276104.14548 -23580960.41446  21433557.1954                   21433552.5634
 -14825304.18448 -11522661.56646  21574418.2114                   21574418.2074
 11  8 16  2 21 30.0000000  0  7G26G10G29G12G05G02G25
   4354331.48846   3660543.11743  24065387.5004                   24065386.4534
 -18038842.54346 -14023096.77744  23121992.1804                   23121990.6884
  -3738520.72347  -2889537.96545  22840737.6254                   22840736.0234
 -23876790.70748 -18576245.10946  21208667.0004                   21208664.5474
 -26386105.51248 -20529430.13347  20261595.5864                   20261592.7424
 -30271503.12148 -23577375.18746  21434432.6954                   21434428.3674
 -14869492.30148 -11557093.84446  21566009.6954                   21566009.1724
 11  8 16  2 22  0.0000000  0  7G26G10G29G12G05G02G25
   4226370.55546   3560833.35243  24041036.5164                   24041036.7544
 -17971150.67246 -13970349.83643  23134872.8914                   23134871.4454
  -3853474.71547  -2979112.43445  22818862.6644                   22818861.0594
 -23855918.36748 -18559980.95346  21212638.7344                   21212636.2234
 -26404149.77348 -20543490.57847  20258161.5554                   20258158.9454
 -30266807.57448 -23573716.28946  21435326.3754                   21435321.5944
 -14913100.37548 -11591074.15246  21557711.3444                   21557711.5634
 11  8 16  2 22 30.0000000  0  7G26G10G29G12G05G02G25
   4098404.80147   3461119.82843  24016686.1024                   24016685.5354
 -17903233.32046 -13917427.22744  23147797.5234                   23147795.7344
  -3968379.48847  -3068648.55145  22796996.6484                   22796994.7774
 -23834565.39848 -18543342.27746  21216702.2894                   21216699.7544
 -26421642.11748 -20557120.95347  20254832.7734                   20254830.1954
 -30262012.87548 -23569980.14846  21436238.7504                   21436234.5704
 -14956123.39548 -11624598.56246  21549524.3444                   21549524.1844
 11  8 16  2 23  0.0000000  0  7G26G10G29G12G05G02G25
   3970444.81647   3361410.82843  23992335.7664                   23992335.3954
 -17835085.85247 -13864325.30543  23160765.7584                   23160763.6374
  -4083225.84447  -3158139.16045  22775142.4304                   22775140.3244
 -23812726.36748 -18526324.85946  21220858.1804                   21220855.7504
 -26438576.50048 -20570316.56647  20251610.2504                   20251607.4884
 -30257112.51248 -23566161.66046  21437171.4304                   21437166.5124
 -14998554.11348 -11657661.44946  21541450.0784                   21541449.8164
 11  8 16  2 23 30.0000000  0  7G26G10G29G12G05G02G25
   3842497.02747   3261711.27343  23967987.8524                   23967987.5514
 -17766708.14847 -13811043.93043  23173777.7734                   23173775.1994
  -4198009.33647  -3247580.77345  22753299.6724                   22753298.2854
 -23790400.94548 -18508928.42646  21225106.1884                   21225103.9144
 -26454951.03548 -20583075.91847  20248494.2424                   20248491.7234
 -30252103.56248 -23562258.56646  21438124.7034                   21438119.8164
 -15040389.37548 -11690260.34846  21533489.0864                   21533488.9614
 11  8 16  2 24  0.0000000  0  7G26G10G29G12G05G02G25
   3714549.00847   3162011.56644  23943641.1564                   23943640.0944
 -17698118.78147 -13757597.66844  23186829.4064                   23186827.2544
  -4312743.79347  -3336984.16845  22731466.3284                   22731464.4454
 -23767606.60548 -18491166.61346  21229444.0164                   21229441.6024
 -26470782.46548 -20595412.08647  20245481.5634                   20245478.7114
 -30247001.97348 -23558283.28546  21439095.3754                   21439090.7034
 -15081644.73448 -11722407.36346  21525638.5394                   21525638.2624
 11  8 16  2 24 30.0000000  0  7G26G10G29G12G05G02G25
   3586623.55546   3062329.46144  23919297.3914                   23919296.9224
 -17629301.06247 -13703973.46943  23199924.9844                   23199923.2114
  -4427408.36747  -3426333.12545  22709646.3524                   22709644.8284
 -23744326.40648 -18473026.20346  21233874.3204                   21233871.7074
 -26486053.11748 -20607311.27347  20242575.8054                   20242573.1174
 -30241788.53948 -23554220.85946  21440087.1564                   21440082.9774
 -15122300.92248 -11754087.49646  21517901.6174                   21517901.6524
 11  8 16  2 25  0.0000000  0  7G26G10G29G12G05G02G25
   3458711.75446   2962657.98444  23894956.5784                   23894955.8014
 -17560270.01247 -13650183.02043  23213061.0394                   23213058.9964
  -4542013.17247  -3515635.50845  22687837.4534                   22687836.3164
 -23720574.50048 -18454518.23046  21238393.7424                   21238391.4774
 -26500776.25848 -20618783.82847  20239774.2114                   20239771.3134
 -30236475.82848 -23550081.07446  21441098.2344                   21441093.7624
 -15162370.01248 -11785310.15646  21510277.0634                   21510276.4844
 11  8 16  2 25 30.0000000  0  7G26G10G29G12G05G02G25
   3330817.63346   2863000.28143  23870618.4304                   23870617.9304
 -17491027.54747 -13596227.83644  23226237.2814                   23226235.4024
  -4656555.90247  -3604889.51245  22666040.8284                   22666039.4104
 -23696352.42248 -18435643.89846  21243002.9924                   21243000.8714
 -26514952.00848 -20629829.84447  20237076.2974                   20237073.4734
 -30231063.66048 -23545863.77746  21442128.0474                   21442123.8634
 -15201851.20748 -11816074.71146  21502763.9384                   21502763.7544
 11  8 16  2 26  0.0000000  0  7G26G10G29G12G05G02G25
   3202948.71946   2763362.23843  23846285.5314                   23846285.8404
 -17421572.34447 -13542106.90644  23239454.7114                   23239452.7734
  -4771030.56247  -3694090.48445  22644256.6564                   22644255.3164
 -23671658.14548 -18416401.61346  21247702.6884                   21247699.8244
 -26528577.59448 -20640447.16847  20234483.5474                   20234480.8164
 -30225547.94148 -23541565.80546  21443177.4064                   21443172.9064
 -15240740.52348 -11846378.07446  21495363.2814                   21495363.8834
 11  8 16  2 26 30.0000000  0  7G26G10G29G12G05G02G25
   3075108.84046   2663746.79343  23821958.2194                   23821957.7704
 -17351906.71947 -13487821.98844  23252711.4614                   23252709.5354
  -4885435.13747  -3783236.82445  22622486.8984                   22622484.9924
 -23646493.91448 -18396793.12146  21252491.0784                   21252488.4694
 -26541653.97348 -20650636.53147  20231995.1644                   20231992.5904
 -30219928.38348 -23537186.91846  21444247.0164                   21444242.2934
 -15279037.64848 -11876219.97746  21488075.6334                   21488076.0514
 11  8 16  2 27  0.0000000  0  7G26G10G29G12G05G02G25
   2947294.74246   2564151.47343  23797636.4144                   23797636.1094
 -17282040.25847 -13433380.60244  23266006.7194                   23266004.4614
  -4999774.50847  -3872332.38345  22600728.4614                   22600727.1884
 -23620868.50848 -18376825.27746  21257367.3054                   21257364.8444
 -26554189.35948 -20660404.35547  20229609.7974                   20229607.2074
 -30214212.03148 -23532732.61346  21445334.4144                   21445330.2274
 -15316749.34448 -11905605.71146  21480899.4924                   21480899.2854
 11  8 16  2 27 30.0000000  0  7G26G10G29G12G05G02G25
   2819514.21546   2464582.26644  23773320.9064                   23773320.2504
 -17211970.99247 -13378781.18044  23279339.9694                   23279338.3834
  -5114042.71147  -3961372.45345  22578983.9064                   22578982.0944
 -23594779.80948 -18356496.44146  21262332.1334                   21262329.3554
 -26566180.53948 -20669748.10947  20227328.0004                   20227325.3714
 -30208394.81248 -23528199.70746  21446441.7894                   21446437.0474
 -15353871.29748 -11934531.90246  21473835.2734                   21473835.0904
 11  8 16  2 28  0.0000000  0  7G26G10G29G12G05G02G25
   2691780.22746   2365049.34844  23749014.4304                   23749013.8754
 -17141692.52047 -13324018.75444  23292714.2664                   23292711.8324
  -5228227.75847  -4050347.74645  22557255.0234                   22557253.5474
 -23568220.71947 -18335801.04746  21267385.9144                   21267383.5354
 -26577619.18748 -20678661.32047  20225151.0944                   20225148.7424
 -30202467.06648 -23523580.66846  21447569.4694                   21447565.7934
 -15390394.08248 -11962991.20746  21466885.2974                   21466885.1684
 11  8 16  2 28 30.0000000  0  7G26G10G29G12G05G02G25
   2564081.77346   2265544.13344  23724713.1484                   23724712.6214
 -17071221.52747 -13269106.29744  23306124.0704                   23306123.0704
  -5342342.83247  -4139268.50445  22535539.7344                   22535538.1024
 -23541207.73048 -18314751.97346  21272526.3834                   21272523.9534
 -26588521.14148 -20687156.33247  20223076.8134                   20223073.9774
 -30196443.78948 -23518887.19546  21448715.3984                   21448711.4454
 -15426332.24248 -11990994.96146  21460046.5234                   21460046.3674
 11  8 16  2 29  0.0000000  0  7G26G10G29G12G05G02G25
   2436425.32846   2166071.66844  23700421.5864                   23700421.2504
 -17000557.88347 -13214043.72344  23319570.7894                   23319569.3524
  -5456383.09047  -4228130.97345  22513838.5004                   22513836.3634
 -23513740.28947 -18293348.77346  21277753.4064                   21277750.3594
 -26598884.78948 -20695231.87947  20221104.4774                   20221101.5474
 -30190321.84048 -23514116.83646  21449880.6094                   21449876.8324
 -15461683.02048 -12018541.00846  21453319.2814                   21453319.6604
 11  8 16  2 29 30.0000000  0  7G26G10G29G12G05G02G25
   2308811.50446   2066632.39144  23676136.8834                   23676136.5704
 -16929707.28147 -13158835.48043  23333052.7504                   23333051.4884
  -5570349.65647  -4316936.02345  22492151.0474                   22492149.6484
 -23485823.21948 -18271595.21946  21283065.6724                   21283063.2544
 -26608714.45748 -20702891.34047  20219233.8984                   20219231.1174
 -30184104.44548 -23509272.10246  21451064.3204                   21451059.8954
 -15496449.39848 -12045631.68446  21446703.7424                   21446703.5204
 11  8 16  2 30  0.0000000  0  7G26G10G29G12G05G02G25
   2181245.34046   1967230.25844  23651862.3594                   23651861.5904
 -16858670.68447 -13103482.30944  23346571.2974                   23346569.3284
  -5684238.48047  -4405680.50445  22470479.0394                   22470477.3674
 -23457457.90648 -18249492.37946  21288463.3444                   21288460.6684
 -26618009.69148 -20710134.36347  20217465.2734                   20217462.4614
 -30177790.00848 -23504351.75846  21452265.5084                   21452261.0434
 -15530630.02348 -12072265.93046  21440199.1174                   21440198.8204
 11  8 16  2 30 30.0000000  0  7G26G10G29G12G05G02G25
   3629156.03946   3095472.39843  23927390.7814                   23927389.4414
 -15212032.00847 -11820387.23044  23659916.0234                   23659914.1524
  -4222622.68747  -3266759.03945  22748615.3364                   22748613.6844
 -21853226.16447 -16999441.67646  21593738.2584                   21593736.0004
 -25051350.56648 -19489361.00447  20515590.3754                   20515587.6844
 -28595957.86348 -22271755.25446  21753277.9694                   21753274.0744
 -13988802.75848 -10870842.07846  21733599.0164                   21733599.4184
 11  8 16  2 31  0.0000000  0  7G26G10G29G12G05G02G25
   3501697.81347   2996154.34843  23903136.1414                   23903134.9574
 -15140629.65647 -11764749.05544  23673504.0004                   23673501.9224
  -4336348.80547  -3355376.72345  22726973.7504                   22726972.1094
 -21823968.97747 -16976643.87146  21599305.9694                   21599303.2624
 -25059579.75448 -19495773.34047  20514024.3284                   20514022.0784
 -28589448.31648 -22266682.87146  21754517.1094                   21754512.2734
 -14021810.81248 -10896562.64546  21727317.7814                   21727318.1294
 11  8 16  2 31 30.0000000  0  7G26G10G29G12G05G02G25
   3374300.27347   2896883.55944  23878893.0864                   23878891.8714
 -15069046.88747 -11708970.27044  23687125.0554                   23687123.7154
  -4449989.31647  -3443927.71945  22705348.5084                   22705346.5864
 -21794267.73047 -16953500.04746  21604957.9384                   21604955.1764
 -25067276.26248 -19501770.60247  20512559.6804                   20512557.1994
 -28582839.71148 -22261533.29346  21755774.7274                   21755770.0274
 -14054231.32048 -10921825.36346  21721148.4844                   21721148.5514
 11  8 16  2 32  0.0000000  0  7G26G10G29G12G05G02G25
   3246966.23847   2797662.28143  23854662.4064                   23854660.6804
 -14997287.02047 -11653053.50443  23700780.9224                   23700779.2154
  -4563542.75847  -3532410.85245  22683739.8754                   22683738.1414
 -21764125.50848 -16930012.59846  21610694.0554                   21610691.1454
 -25074442.46548 -19507354.64147  20511195.7974                   20511193.4144
 -28576133.07448 -22256307.32846  21757050.7664                   21757046.5864
 -14086065.39148 -10946631.12946  21715090.6254                   21715090.5554
 11  8 16  2 32 30.0000000  0  7G26G10G29G12G05G02G25
   3119697.55946   2698491.95744  23830443.0704                   23830442.1954
 -14925354.35247 -11597002.03943  23714469.5234                   23714466.8674
  -4677009.36347  -3620826.34445  22662148.0164                   22662146.7154
 -21733546.76647 -16906185.01646  21616513.0864                   21616510.5124
 -25081081.41048 -19512527.83247  20509932.6334                   20509929.8594
 -28569329.87148 -22251006.11346  21758345.0944                   21758340.8444
 -14117314.99248 -10970981.45746  21709143.9844                   21709144.1024
 11  8 16  2 33  0.0000000  0  8G26G10G29G12G05G02G15G25
   2992501.60246   2599378.28943  23806238.8754                   23806237.8754
 -14853247.80547 -11540815.10544  23728190.5314                   23728188.9184
  -4790383.41848  -3709169.70745  22640573.8674                   22640571.7704
 -21702529.62947 -16882015.83246  21622415.3204                   21622412.4694
 -25087190.80148 -19517288.37947  20508770.1954                   20508767.4494
 -28562426.73048 -22245627.03546  21759658.8914                   21759654.2424
  10843163.55956   8475305.08653  24723207.9924                   24723208.0004
 -14147976.82448 -10994873.78546  21703308.9694                   21703309.2384
 11  8 16  2 33 30.0000000  0  8G26G10G29G12G05G02G15G25
   2865381.89546   2500324.05144  23782048.3134                   23782047.8404
 -14780969.90247 -11484494.66843  23741944.9454                   23741942.6094
  -4903662.64148  -3797439.18045  22619017.0784                   22619015.0704
 -21671076.81648 -16857507.15646  21628400.1724                   21628398.0664
 -25092772.25448 -19521637.55947  20507708.0234                   20507705.3094
 -28555423.46948 -22240169.93046  21760991.4774                   21760987.0594
  10717396.70346   8377305.09043  24699273.9694                   24699275.3164
 -14178051.11348 -11018308.29346  21697586.3834                   21697586.1724
 11  8 16  2 34  0.0000000  0  8G26G10G29G12G05G02G15G25
   2738340.04346   2401330.46543  23757873.0944                   23757872.4384
 -14708525.23847 -11428044.28943  23755730.3204                   23755728.6484
  -5016847.16448  -3885634.86345  22597478.9224                   22597477.0084
 -21639192.96148 -16832662.59446  21634467.5784                   21634465.7154
 -25097829.35548 -19525578.14147  20506745.7194                   20506742.7194
 -28548322.41448 -22234636.62946  21762342.9614                   21762338.1994
  10591513.32046   8279214.30943  24675318.2814                   24675319.6804
 -14207540.37148 -11041286.93046  21691974.6254                   21691975.0234
 11  8 16  2 34 30.0000000  0  8G26G10G29G12G05G02G15G25
   2611375.57046   2302397.16044  23733712.4694                   23733711.5944
 -14635920.59847 -11371469.20743  23769546.7344                   23769544.7704
  -5129939.02048  -3973758.33645  22575957.9384                   22575956.0234
 -21606884.27748 -16807487.01646  21640615.9774                   21640613.3484
 -25102367.43048 -19529114.28947  20505882.0004                   20505879.6414
 -28541127.56248 -22229030.23046  21763711.9614                   21763707.6414
  10465512.15646   8181031.77343  24651342.2504                   24651342.6994
 -14236449.03548 -11063813.15646  21686473.6724                   21686473.7584
 11  8 16  2 35  0.0000000  0  8G26G10G29G12G05G02G15G25
   2484484.95746   2203521.43044  23709566.2424                   23709564.8914
 -14563165.78546 -11314777.14143  23783390.5084                   23783389.8594
  -5242943.63347  -4061813.82045  22554453.9454                   22554452.4024
 -21574160.56648 -16781988.02346  21646842.8204                   21646840.4574
 -25106395.34048 -19532252.90647  20505115.4774                   20505113.1254
 -28533846.34048 -22223356.53946  21765097.4384                   21765092.9534
  10339388.32046   8082753.60943  24627341.7664                   24627341.7734
 -14264784.77048 -11085892.94146  21681081.7114                   21681081.2384
 11  8 16  2 35 30.0000000  0  8G26G10G29G12G05G02G15G25
   2357676.75446   2104709.91044  23685434.6954                   23685434.9804
 -14490258.16446 -11257966.02343  23797264.9064                   23797263.7704
  -5355853.39147  -4149795.41045  22532967.9534                   22532966.3794
 -21541019.03948 -16756163.46946  21653149.8054                   21653147.3484
 -25109909.21948 -19534990.97347  20504446.6414                   20504444.1374
 -28526473.30548 -22217611.30546  21766500.4924                   21766496.2194
  10213149.96946   7984386.22743  24603318.5704                   24603319.4574
 -14292542.80548 -11107522.57046  21675799.1564                   21675799.1644
 11  8 16  2 36  0.0000000  0  8G26G10G29G12G05G02G15G25
   2230953.80146   2005964.82444  23661319.9924                   23661319.9614
 -14417201.42646 -11201038.69943  23811167.3134                   23811166.3134
  -5468667.75847  -4237702.64145  22511500.1254                   22511497.9144
 -21507462.79348 -16730015.74646  21659535.2194                   21659533.0634
 -25112912.12948 -19537330.88747  20503875.5554                   20503872.6134
 -28519009.84448 -22211795.59846  21767920.9844                   21767916.2154
  10086798.68846   7885930.82044  24579275.0004                   24579276.1094
 -14319724.70348 -11128703.26646  21670627.0004                   21670627.3364
 11  8 16  2 36 30.0000000  0  8G26G10G29G12G05G02G15G25
   2104324.55547   1907292.79344  23637223.9304                   23637223.0004
 -14343992.89846 -11143993.11343  23825098.4614                   23825097.0274
  -5581379.40647  -4325529.83645  22490051.3364                   22490049.6214
 -21473489.71148 -16703543.22746  21666000.0314                   21665997.5164
 -25115400.07448 -19539269.53147  20503402.0784                   20503399.4454
 -28511450.65648 -22205905.31245  21769359.4454                   21769354.8444
   9960342.12946   7787393.39544  24555210.7504                   24555210.4344
 -14346325.86348 -11149431.43446  21665564.6484                   21665564.9884
 11  8 16  2 37  0.0000000  0  8G26G10G29G12G05G02G15G25
   1977793.12547   1808696.96544  23613145.7974                   23613144.5984
 -14270634.76646 -11086830.96143  23839058.2274                   23839056.6764
  -5693986.20747  -4413275.33245  22468623.4144                   22468621.3524
 -21439102.19948 -16676747.76646  21672544.0084                   21672541.1374
 -25117374.89548 -19540808.33247  20503026.2034                   20503023.5634
 -28503795.55547 -22199940.28145  21770816.0554                   21770811.1174
   9833783.21547   7688776.24644  24531127.4614                   24531127.3204
 -14372346.68748 -11169707.40246  21660613.3524                   21660613.2934
 11  8 16  2 37 30.0000000  0  8G26G10G29G12G05G02G15G25
   1851354.24247   1710173.27744  23589084.8444                   23589084.5784
 -14197138.41046 -11029561.03543  23853044.1094                   23853042.2734
  -5806494.85547  -4500944.35245  22447213.5704                   22447211.6884
 -21404311.22347 -16649637.92646  21679164.4144                   21679161.7854
 -25118846.74248 -19541955.21147  20502746.0634                   20502743.3914
 -28496053.33247 -22193907.35946  21772289.0314                   21772284.8204
   9707115.62547   7590074.37944  24507024.1724                   24507022.9024
 -14397796.43448 -11189538.35546  21655770.4224                   21655770.3984
 11  8 16  2 38  0.0000000  0  8G26G10G29G12G05G02G15G25
   1725021.14547   1611731.96544  23565044.8284                   23565043.9224
 -14123497.19946 -10972178.24643  23867057.4534                   23867055.9804
  -5918893.62947  -4588527.76245  22425824.5944                   22425822.8284
 -21369109.80548 -16622208.26246  21685862.3984                   21685860.4414
 -25119807.94948 -19542704.18746  20502562.9924                   20502560.2344
 -28488214.65247 -22187799.30145  21773780.8134                   21773776.2544
   9580351.77347   7491297.46943  24482900.9064                   24482901.1054
 -14422666.28148 -11208917.46146  21651037.9924                   21651037.6254
 11  8 16  2 38 30.0000000  0  8G26G10G29G12G05G02G15G25
   1598797.77747   1513376.16044  23541024.7034                   23541023.2074
 -14049712.80547 -10914683.93043  23881098.1254                   23881096.1914
  -6031180.06647  -4676023.64145  22404457.2274                   22404456.0044
 -21333500.03147 -16594460.40246  21692639.2584                   21692636.7664
 -25120259.35548 -19543055.92247  20502477.2114                   20502474.3014
 -28480278.97347 -22181615.64145  21775290.7114                   21775286.3244
   9453494.83647   7392448.09844  24458760.7034                   24458760.9104
 -14446956.30948 -11227844.74646  21646415.7424                   21646415.4414
 11  8 16  2 39  0.0000000  0  8G26G10G29G12G05G02G15G25
   1472685.34047   1415106.79344  23517026.4454                   23517025.1684
 -13975790.62547 -10857082.23043  23895164.8054                   23895163.1804
  -6143354.65647  -4763432.36745  22383111.0004                   22383109.1484
 -21297487.15248 -16566398.43746  21699492.1804                   21699489.9384
 -25120205.35248 -19543013.82847  20502487.5314                   20502484.7384
 -28472248.83647 -22175358.37945  21776819.2114                   21776814.6524
   9326544.92247   7293526.19544  24434603.0004                   24434602.9064
 -14470669.70748 -11246322.71146  21641902.8914                   21641902.6024
 11  8 16  2 39 30.0000000  0  8G26G10G29G12G05G02G15G25
   1346683.32447   1316923.46544  23493049.0634                   23493048.6254
 -13901737.14147 -10799378.20743  23909256.8754                   23909255.2304
  -6255419.44947  -4850755.52745  22361785.8444                   22361784.0274
 -21261077.71148 -16538027.45346  21706421.0394                   21706418.5554
 -25119651.69148 -19542582.39547  20502593.0864                   20502590.1254
 -28464128.25047 -22169030.64545  21778364.1884                   21778359.6454
   9199500.50447   7194530.68443  24410426.6564                   24410426.3954
 -14493811.33248 -11264355.14146  21637499.2504                   21637499.6254
 11  8 16  2 40  0.0000000  0  8G26G10G29G12G05G02G15G25
   1220799.10547   1218831.93044  23469094.0314                   23469093.3244
 -13827550.76247 -10741570.63743  23923373.8284                   23923372.2384
  -6367368.44147  -4937988.45345  22340482.5864                   22340480.8284
 -21224270.52048 -16509346.53946  21713425.0394                   21713422.4184
 -25118596.09848 -19541759.83246  20502793.6484                   20502790.5784
 -28455913.39548 -22162629.44145  21779927.3444                   21779923.0004
   9072368.33246   7095466.77043  24386233.5944                   24386234.8134
 -14516378.00448 -11281939.54746  21633204.6804                   21633204.8634
 11  8 16  2 40 30.0000000  0  8G26G10G29G12G05G02G15G25
   1095034.88747   1120833.92644  23445161.7344                   23445160.9924
 -13753236.05146 -10683663.06643  23937515.0474                   23937513.7384
  -6479201.79747  -5025131.26645  22319201.4144                   22319199.4804
 -21187069.75048 -16480358.93446  21720504.2034                   21720501.8754
 -25117042.48848 -19540549.21147  20503089.6094                   20503086.7274
 -28447606.18048 -22156156.27345  21781508.4144                   21781504.0164
   8945149.19946   6996335.11743  24362025.0234                   24362026.0394
 -14538372.35248 -11299077.98846  21629019.3444                   21629019.5124
 11  8 16  2 41  0.0000000  0  8G26G10G29G12G05G02G15G25
    969391.13347   1022929.75444  23421253.1094                   23421251.4574
 -13678798.40247 -10625659.68043  23951681.2274                   23951679.0704
  -6590920.13748  -5112184.46945  22297942.1644                   22297940.0434
 -21149481.10548 -16451069.09046  21727657.0704                   21727654.5744
 -25114995.35548 -19538954.03546  20503478.7504                   20503476.4574
 -28439209.39548 -22149613.32445  21783106.2664                   21783101.7664
   8817842.69146   6897135.30143  24337798.7584                   24337799.6564
 -14559798.07448 -11315773.35246  21624942.3284                   21624942.2934
 11  8 16  2 41 30.0000000  0  8G26G10G29G12G05G02G15G25
    843876.70347    925126.35544  23397368.5394                   23397366.6524
 -13604235.05147 -10567558.34843  23965869.4454                   23965868.0594
  -6702516.30548  -5199142.48045  22276706.1804                   22276703.6804
 -21111502.11748 -16421475.08246  21734884.1174                   21734882.1414
 -25112451.30948 -19536971.64146  20503962.9454                   20503960.1334
 -28430718.10548 -22142996.72345  21784721.8754                   21784717.3364
   8690456.70746   6797873.68842  24313557.4844                   24313558.8984
 -14580650.80148 -11332022.21546  21620974.3134                   21620974.3014
 11  8 16  2 42  0.0000000  0  8G26G10G29G12G05G02G15G25
    718496.89147    827427.87144  23373508.9064                   23373508.1764
 -13529547.43447 -10509360.20743  23980082.2504                   23980080.7504
  -6813986.35247  -5286002.20345  22255493.9614                   22255492.1214
 -21073134.05148 -16391577.89146  21742185.3284                   21742183.4414
 -25109410.65248 -19534602.28146  20504541.7504                   20504538.8674
 -28422130.49248 -22136305.06246  21786356.1884                   21786351.1134
   8562995.96146   6698553.75443  24289303.7734                   24289302.4184
 -14600929.77048 -11347823.99646  21617115.0784                   21617115.2854
 11  8 16  2 42 30.0000000  0  8G26G10G29G12G05G02G15G25
    593246.16846    729829.95743  23349674.7504                   23349673.2424
 -13454746.85547 -10451074.06243  23994316.5004                   23994314.8094
  -6925337.57447  -5372769.35545  22234304.3594                   22234302.0744
 -21034388.33648 -16361386.43746  21749557.9614                   21749556.2344
 -25105884.21948 -19531854.39847  20505212.9534                   20505209.8404
 -28413455.76647 -22129545.52345  21788007.1884                   21788002.4574
   8435453.95346   6599170.53143  24265032.7194                   24265032.8284
 -14620644.95348 -11363186.46946  21613363.5784                   21613363.6604
 11  8 16  2 43  0.0000000  0  8G26G10G29G12G05G02G15G25
    468129.04747    632336.14843  23325865.3444                   23325863.8754
 -13379834.91446 -10392701.11343  24008572.0944                   24008569.7934
  -7036566.93447  -5459441.53945  22213138.2734                   22213136.0984
 -20995266.90647 -16330902.20346  21757003.2504                   21757000.4884
 -25101872.95748 -19528728.73046  20505976.0944                   20505973.1214
 -28404693.09847 -22122717.46545  21789674.2814                   21789669.7464
   8307833.96947   6499726.49643  24240747.5554                   24240747.5124
 -14639796.36348 -11378109.63746  21609719.2664                   21609718.5354
 11  8 16  2 43 30.0000000  0  8G26G10G29G12G05G02G15G25
    343157.27747    534955.59844  23302084.3444                   23302083.0784
 -13304805.91846 -10334236.92643  24022849.3284                   24022847.1294
  -7147664.21947  -5546010.80145  22191996.9924                   22191994.9924
 -20955764.35948 -16300121.00846  21764520.1484                   21764517.4964
 -25097370.79748 -19525220.53946  20506832.8914                   20506830.1024
 -28395834.25048 -22115814.44946  21791360.4064                   21791355.8204
   8180147.00047   6400230.28144  24216450.0474                   24216449.3674
 -14658376.91448 -11392587.95746  21606183.3834                   21606183.2774
 11  8 16  2 44  0.0000000  0  8G26G10G29G12G05G02G15G25
    218334.45347    437691.10244  23278331.0784                   23278330.1054
 -13229662.52746 -10275683.65243  24037148.7034                   24037146.4804
  -7258627.74647  -5632475.84845  22170881.4454                   22170879.4384
 -20915883.96947 -16269045.38346  21772108.7344                   21772106.5044
 -25092379.77748 -19521331.41846  20507782.5234                   20507779.9534
 -28386879.32047 -22108836.58245  21793064.4064                   21793059.8594
   8052395.72747   6300683.90644  24192140.0314                   24192138.8714
 -14676387.76248 -11406622.37946  21602755.7974                   21602756.2384
 11  8 16  2 44 30.0000000  0  8G26G10G29G12G05G02G15G25
     93668.42647    340548.82844  23254607.9774                   23254606.9534
 -13154403.49646 -10217040.22343  24051468.8914                   24051467.2504
  -7369450.88747  -5718831.48445  22149792.5084                   22149790.3364
 -20875623.75847 -16237673.80146  21779770.3444                   21779767.7504
 -25086897.50448 -19517059.50446  20508825.7504                   20508823.1294
 -28377824.30948 -22101780.71945  21794787.4384                   21794782.8444
   7924586.96147   6201092.78544  24167818.8674                   24167817.8984
 -14693825.69548 -11420210.37546  21599437.6094                   21599438.1644
 11  8 16  2 45  0.0000000  0  8G26G10G29G12G05G02G15G25
    -30839.30546    243529.87544  23230914.4064                   23230913.4964
 -13079032.82046 -10158309.87143  24065812.0634                   24065810.7424
  -7480133.39847  -5805077.57046  22128730.0004                   22128727.9844
 -20834988.65647 -16206010.09846  21787503.0554                   21787500.5124
 -25080927.87548 -19512407.84446  20509961.5234                   20509958.6414
 -28368671.11747 -22094648.34846  21796529.1804                   21796524.9964
   7796721.39847   6101457.42244  24143485.7424                   24143486.1884
 -14710693.64848 -11433354.22346  21596227.8594                   21596227.8134
 11  8 16  2 45 30.0000000  0  8G26G10G29G12G05G02G15G25
   -155191.30547    146632.29344  23207251.0084                   23207250.1684
 -13003559.75846 -10099499.69543  24080174.5704                   24080173.1524
  -7590679.98847  -5891217.71945  22107693.9454                   22107691.9104
 -20793987.73447 -16174061.32446  21795305.1174                   21795302.3554
 -25074479.18748 -19507382.86746  20511189.1414                   20511185.8954
 -28359425.89548 -22087444.27346  21798288.5784                   21798283.4964
   7668795.60947   6001775.14144  24119143.5314                   24119141.8364
 -14726999.12148 -11446059.78546  21593125.0864                   21593124.9574
 11  8 16  2 46  0.0000000  0  8G26G10G29G12G05G02G15G25
   -279384.09047     49858.77344  23183618.5394                   23183617.0864
 -12927986.82846 -10040611.68743  24094555.1024                   24094553.7274
  -7701088.75047  -5977250.46945  22086683.5784                   22086681.6414
 -20752623.60547 -16141829.53946  21803176.4384                   21803174.1094
 -25067553.34448 -19501986.09446  20512506.9694                   20512504.0234
 -28350088.84047 -22080168.63745  21800064.8594                   21800060.7934
   7540812.10547   5902047.87144  24094788.3524                   24094787.5084
 -14742743.24648 -11458327.91846  21590128.8984                   21590129.1914
 11  8 16  2 46 30.0000000  0  8G26G10G29G12G05G02G15G25
   -403412.96147    -46787.04344  23160016.2274                   23160015.1254
 -12852315.30146  -9981646.89143  24108955.3524                   24108953.1484
  -7811356.38347  -6063173.25845  22065700.6954                   22065698.0474
 -20710898.13747 -16109316.18746  21811116.1254                   21811114.2624
 -25060151.40248 -19496218.33646  20513915.4534                   20513912.3914
 -28340658.99647 -22072820.69945  21801859.5084                   21801855.3094
   7412774.58247   5802278.53544  24070423.2034                   24070422.6134
 -14757926.18748 -11470158.77746  21587239.5944                   21587239.8874
 11  8 16  2 47  0.0000000  0  8G26G10G29G12G05G02G15G25
   -527276.79347   -143304.26644  23136446.2974                   23136444.1454
 -12776550.50047  -9922609.34043  24123372.6254                   24123370.1684
  -7921483.21547  -6148986.33246  22044743.9144                   22044741.9614
 -20668817.30947 -16076525.94146  21819124.2814                   21819122.0234
 -25052278.01648 -19490083.22346  20515413.4454                   20515410.5314
 -28331138.96947 -22065402.50046  21803671.4144                   21803666.9804
   7284683.10947   5702467.14544  24046047.8284                   24046047.7304
 -14772551.65248 -11481555.24246  21584456.2974                   21584456.6454
 11  8 16  2 47 30.0000000  0  8G26G10G29G12G05G02G15G25
   -650963.46547   -239683.44544  23112908.6414                   23112907.5824
 -12700685.99646  -9863494.14143  24137809.0394                   24137807.2274
  -8031458.65247  -6234681.43446  22023816.5864                   22023814.6094
 -20626375.02747 -16043454.04346  21827200.8444                   21827198.3204
 -25043926.62948 -19483575.62546  20517002.6484                   20516999.7544
 -28321519.98848 -22057907.18445  21805501.4774                   21805497.2464
   7156549.14547   5602622.62944  24021664.9064                   24021664.4224
 -14786612.17648 -11492511.49246  21581780.8524                   21581780.6844
 11  8 16  2 48  0.0000000  0  8G26G10G29G12G05G02G15G25
   -774471.09447   -335923.07444  23089405.5164                   23089404.6804
 -12624726.10946  -9804304.65243  24152263.9384                   24152261.3484
  -8141282.26647  -6320258.22346  22002918.1414                   22002915.8444
 -20583575.55547 -16010103.80946  21835345.3134                   21835343.0234
 -25035100.73848 -19476698.30946  20518682.0234                   20518679.3714
 -28311803.78547 -22050336.10246  21807350.6804                   21807345.9304
   7028374.01247   5502746.03544  23997273.9144                   23997273.3674
 -14800110.60548 -11503029.74246  21579212.3054                   21579212.0634
 11  8 16  2 48 30.0000000  0  8G26G10G29G12G05G02G15G25
   -897795.98447   -432020.29344  23065937.7344                   23065937.1484
 -12548673.40246  -9745042.79343  24166736.6254                   24166734.4614
  -8250952.17648  -6405715.25046  21982047.8914                   21982046.0044
 -20540422.11347 -15976477.75846  21843557.2344                   21843554.3244
 -25025802.72748 -19469453.08246  20520451.4224                   20520448.6804
 -28301990.46148 -22042689.35245  21809218.3834                   21809213.6604
   6900159.74246   5402838.93843  23972875.1804                   23972874.9144
 -14813048.50848 -11513111.21946  21576750.3754                   21576750.0594
 11  8 16  2 49  0.0000000  0  8G26G10G29G12G05G02G15G25
  -1020946.22747   -527981.44144  23042503.4924                   23042502.6174
 -12472542.14146  -9685719.69143  24181223.5314                   24181221.6914
  -8360477.80547  -6491059.85546  21961206.0634                   21961204.3094
 -20496929.19547 -15942587.17246  21851833.4534                   21851831.1724
 -25016046.46148 -19461850.79346  20522308.2814                   20522305.6024
 -28292091.64847 -22034975.98045  21811101.7584                   21811097.2384
   6771898.05946   5302894.90243  23948467.7894                   23948467.8244
 -14825438.66448 -11522765.88746  21574392.4304                   21574392.2894
 11  8 16  2 49 30.0000000  0  8G26G10G29G12G05G02G15G25
  -1143916.96947   -623802.75444  23019102.9844                   23019101.3554
 -12396333.27046  -9626336.12943  24195725.1954                   24195723.4924
  -8469855.80548  -6576289.41046  21940392.1484                   21940390.1214
 -20453098.30947 -15908433.23846  21860174.0784                   21860171.7074
 -25005832.51648 -19453891.85946  20524251.7814                   20524248.7074
 -28282106.01247 -22027194.96145  21813002.0784                   21812997.6214
   6643592.63346   5202916.77043  23924051.7734                   23924051.5084
 -14837281.17648 -11531993.81646  21572138.8204                   21572138.5084
 11  8 16  2 50  0.0000000  0  8G26G10G29G12G05G02G15G25
  -1266692.20347   -719471.71544  22995739.6174                   22995737.5204
 -12320037.30146  -9566884.75043  24210244.6174                   24210242.8484
  -8579072.13748  -6661392.99246  21919609.2584                   21919606.8714
 -20408920.32048 -15874008.82846  21868580.9454                   21868578.9104
 -24995150.84848 -19445568.46946  20526284.2504                   20526281.7154
 -28272021.51247 -22019336.89146  21814921.1094                   21814916.7234
   6515258.35247   5102916.16444  23899631.1644                   23899630.2664
 -14848565.11748 -11540786.50846  21569991.4924                   21569991.5634
 11  8 16  2 50 30.0000000  0  8G26G10G29G12G05G02G15G25
  -1389267.67247   -814985.02744  22972413.9534                   22972412.6724
 -12243655.64846  -9507366.61343  24224779.3134                   24224778.2154
  -8688123.55947  -6746368.07846  21898857.1254                   21898854.5984
 -20364397.21547 -15839315.50846  21877053.6564                   21877051.0664
 -24984002.62548 -19436881.53146  20528405.7974                   20528403.2624
 -28261837.11748 -22011400.99645  21816859.3054                   21816854.3284
   6386899.06647   5002896.04744  23875204.7664                   23875204.2114
 -14859291.05148 -11549144.37146  21567951.0784                   21567950.8364
 11  8 16  2 51  0.0000000  0  8G26G10G29G12G05G02G15G25
  -1511646.12147   -910344.76644  22949125.4774                   22949124.8524
 -12167197.37946  -9447788.73843  24239328.9534                   24239327.3874
  -8797014.32447  -6831217.98046  21878135.5704                   21878133.4184
 -20319538.48448 -15804360.66046  21885590.1254                   21885587.8554
 -24972396.75448 -19427837.98046  20530614.3594                   20530611.6884
 -28251559.33248 -22003392.31645  21818814.5784                   21818810.0904
   6258511.38347   4902853.82844  23850773.2974                   23850772.6564
 -14869466.84448 -11557073.56246  21566014.2114                   21566014.6994
 11  8 16  2 51 30.0000000  0  8G26G10G29G12G05G02G15G25
  -1633823.31247  -1005547.71944  22925876.2664                   22925875.1054
 -12090664.28946  -9388152.52743  24253892.3204                   24253891.0594
  -8905741.87147  -6915940.69946  21857445.4694                   21857443.4534
 -20274346.21947 -15769145.91845  21894189.2664                   21894187.3634
 -24960334.57048 -19418438.86746  20532909.9224                   20532907.0274
 -28241187.57848 -21995310.43445  21820788.1884                   21820783.6884
   6130098.05147   4802791.59044  23826336.9454                   23826336.2344
 -14879093.29748 -11564574.69546  21564182.4304                   21564182.4024
 11  8 16  2 52  0.0000000  0  8G26G10G29G12G05G02G15G25
  -1755793.39147  -1100589.28144  22902666.7734                   22902665.2974
 -12014056.76646  -9328458.32042  24268470.9614                   24268468.1024
  -9014301.87147  -7000532.85946  21836787.4454                   21836784.8284
 -20228821.11348 -15733671.79746  21902852.7504                   21902850.3364
 -24947815.99648 -19408684.12146  20535291.9774                   20535288.9494
 -28230719.39847 -21987153.40645  21822780.3674                   21822776.0474
   6001664.11347   4702713.27044  23801896.6884                   23801896.0704
 -14888169.60548 -11571647.14846  21562454.8364                   21562455.2814
 11  8 16  2 52 30.0000000  0  8G26G10G29G12G05G02G15G25
  -1877558.09447  -1195470.82444  22879495.1334                   22879493.4064
 -11937382.41446  -9268712.06642  24283060.5634                   24283058.7854
  -9122697.10247  -7084996.62146  21816160.5004                   21816158.1524
 -20182971.62948 -15697944.93046  21911577.8444                   21911574.7934
 -24934848.70748 -19398579.73446  20537759.7814                   20537756.8554
 -28220160.19548 -21978925.44145  21824790.1334                   21824785.2814
   5873207.25847   4602617.14543  23777451.9774                   23777450.5434
 -14896702.69948 -11578296.30546  21560831.5084                   21560831.5984
 11  8 16  2 53  0.0000000  0  8G26G10G29G12G05G02G15G25
  -1999110.01247  -1290186.56644  22856363.9924                   22856363.1334
 -11860640.02746  -9208912.81242  24297665.0004                   24297662.9844
  -9230922.59047  -7169328.12146  21795565.4224                   21795563.2464
 -20136797.09448 -15661964.78146  21920364.5234                   21920361.9344
 -24921431.14548 -19388124.47746  20540312.7734                   20540309.9144
 -28209506.18047 -21970623.60545  21826817.0634                   21826812.2544
   5744733.75047   4502508.03144  23753004.4774                   23753003.4344
 -14904690.20348 -11584520.34446  21559311.6414                   21559311.4964
 11  8 16  2 53 30.0000000  0  9G26G10G29G12G05G02G15G25G21
  -2120455.39147  -1384741.35544  22833273.0474                   22833272.1644
 -11783841.74646  -9149070.00043  24312279.2814                   24312276.7274
  -9338985.78947  -7253533.16046  21775001.9614                   21774999.6804
 -20090310.38747 -15625741.37145  21929210.4384                   21929207.9884
 -24907575.07848 -19377327.53946  20542949.1334                   20542946.6214
 -28198767.28548 -21962255.62545  21828860.4304                   21828856.3284
   5616236.55546   4402380.44944  23728551.6094                   23728550.5784
 -14912143.54748 -11590328.14546  21557893.1254                   21557892.9184
  10897498.37116                  25039622.469
 11  8 16  2 54  0.0000000  0  9G26G10G29G12G05G02G15G25G21
  -2241584.81247  -1479127.87144  22810223.1254                   22810221.3714
 -11706984.43746  -9089181.16843  24326904.3914                   24326902.3874
  -9446878.85947  -7337605.64546  21754470.4614                   21754468.1844
 -20043508.49248 -15589272.34846  21938116.7424                   21938114.3284
 -24893277.26648 -19366186.37546  20545670.2584                   20545667.5634
 -28187937.85547 -21953817.12145  21830921.4304                   21830916.8794
   5487724.58247   4302241.38344  23704097.3594                   23704095.6134
 -14919058.57448 -11595716.46546  21556576.8754                   21556576.8834
  10808684.18846   8529408.35953  25022723.6174                   25022722.1334
 11  8 16  2 54 30.0000000  0  9G26G10G29G12G05G02G15G25G21
  -2362498.03947  -1573345.92244  22787214.2894                   22787212.5864
 -11630073.96946  -9029250.94543  24341540.4844                   24341537.8244
  -9554602.57047  -7421546.15646  21733971.3674                   21733969.0904
 -19996397.80148 -15552562.72346  21947081.4924                   21947079.0594
 -24878543.44148 -19354705.47346  20548474.0474                   20548471.3954
 -28177020.89148 -21945310.38345  21832998.7274                   21832994.4654
   5359196.81346   4202090.00444  23679638.7974                   23679637.5904
 -14925440.27048 -11600689.22346  21555362.7114                   21555362.8984
  10719882.08246   8460211.98843  25005824.9924                   25005823.0594
 11  8 16  2 55  0.0000000  0  9G26G10G29G12G05G02G15G25G21
   -907768.17247   -439790.10945  23064040.3204                   23064039.0084
  -9977695.66446  -7741683.42243  24655976.7664                   24655975.1134
  -8086731.98848  -6277750.85246  22013297.6954                   22013295.0314
 -18373563.66448 -14288016.64545  22255896.9304                   22255894.1294
 -23287956.91448 -18115287.38346  20851152.7194                   20851149.7464
 -26590597.48048 -20709136.27745  22134885.3054                   22134880.5354
   6806080.06647   5329531.63344  23954972.2034                   23954970.5744
 -13355870.49248 -10377647.83246  21854042.1804                   21854042.0634
  12206513.79346   9618626.43443  25288720.8284                   25288720.5394
 11  8 16  2 55 30.0000000  0  9G26G10G29G12G05G02G15G25G21
  -1028245.00447   -533668.10944  23041113.8204                   23041112.7274
  -9900692.64547  -7681681.08243  24670630.2584                   24670628.1334
  -8194117.98048  -6361428.21546  21992863.2034                   21992860.7034
 -18325851.49247 -14250838.33645  22264976.0084                   22264974.1484
 -23272364.32448 -18103137.30946  20854119.6804                   20854117.0204
 -26579512.46947 -20700498.61745  22136994.4694                   22136989.8094
   6677522.94946   5229357.40244  23930507.5394                   23930507.4414
 -13361196.95348 -10381798.31246  21853028.4534                   21853028.1374
  12117726.91846   9549441.96143  25271825.3674                   25271825.4964
 11  8 16  2 56  0.0000000  0  9G26G10G29G12G05G02G15G25G21
  -1148483.18047   -627360.13744  23018232.9384                   23018232.0514
  -9823631.91847  -7621633.73843  24685294.7344                   24685292.5664
  -8301317.15248  -6444960.01246  21972463.5784                   21972460.5904
 -18277827.98847 -14213417.43446  22274114.4454                   22274111.8954
 -23256330.53148 -18090643.43046  20857170.8984                   20857167.7704
 -26568328.10948 -20691783.52745  22139122.9384                   22139118.4224
   6548970.09446   5129186.48444  23906044.9454                   23906043.9104
 -13365983.31248 -10385527.94546  21852117.6254                   21852117.5634
  12028961.57846   9480274.34043  25254933.5864                   25254933.9494
 11  8 16  2 56 30.0000000  0  9G26G10G29G12G05G02G15G25G21
  -1268479.05947   -720863.35544  22995398.7894                   22995397.6174
  -9746515.54746  -7561543.06243  24699969.6024                   24699967.8714
  -8408326.56248  -6528343.92646  21952100.0394                   21952097.8634
 -18229496.09848 -14175756.22746  22283311.7974                   22283309.6484
 -23239857.76248 -18077807.50046  20860305.5864                   20860302.8364
 -26557044.23448 -20682990.89145  22141270.4304                   22141265.7344
   6420424.72346   5029021.38344  23881583.2034                   23881581.9924
 -13370231.06648 -10388837.87946  21851309.3524                   21851309.2384
  11940217.72347   9411123.37543  25238047.4534                   25238045.1484
 11  8 16  2 57  0.0000000  0  9G26G10G29G12G05G02G15G25G21
  -1388238.55147   -814182.39544  22972609.4924                   22972607.7584
  -9669356.00046  -7501418.72343  24714651.8134                   24714650.9964
  -8515154.34448  -6611586.32046  21931771.7974                   21931768.9454
 -18180868.36347 -14137864.50045  22292565.1484                   22292563.2464
 -23222958.50448 -18064639.24246  20863521.5314                   20863518.7424
 -26545670.81248 -20674128.48445  22143434.7274                   22143429.6524
   6291879.61347   4928856.47744  23857122.0394                   23857120.6254
 -13373951.79748 -10391737.15646  21850601.3054                   21850601.5664
  11851484.43046   9341980.66043  25221161.3054                   25221159.9494
 11  8 16  2 57 30.0000000  0  8G26G29G12G05G02G15G25G21
  -1507758.67647   -907314.90644  22949865.1484                   22949863.9924
  -8621798.66848  -6694685.77046  21911477.6174                   21911475.5824
 -18131948.71947 -14099745.29745  22301874.3054                   22301871.8834
 -23205635.08648 -18051140.47346  20866817.8284                   20866815.2974
 -26534208.40248 -20665196.73045  22145615.8594                   22145611.2704
   6163337.30947   4828693.74244  23832660.9774                   23832659.3134
 -13377147.70348 -10394227.46546  21849993.2584                   21849992.8594
  11762760.82446   9272845.47744  25204277.6804                   25204276.2584
 11  8 16  2 58  0.0000000  0  8G26G29G12G05G02G15G25G21
  -1627034.30947  -1000256.86744  22927167.3364                   22927166.5044
  -8728255.96147  -6777639.46946  21891219.6414                   21891217.2854
 -18082738.64147 -14061399.78545  22311238.9924                   22311236.5354
 -23187888.54348 -18037311.98446  20870194.8524                   20870192.2504
 -26522655.11748 -20656194.16845  22147814.2814                   22147809.6094
   6034801.94147   4728536.41444  23808202.2424                   23808200.1134
 -13379818.96948 -10396308.96546  21849484.7424                   21849484.4064
  11674047.79346   9203718.57043  25187395.2424                   25187394.3364
 11  8 16  2 58 30.0000000  0  8G26G29G12G05G02G15G25G21
  -1746051.36347  -1092997.34844  22904519.0164                   22904517.9734
  -8834513.34847  -6860437.40246  21870999.3364                   21870997.3674
 -18033230.43048 -14022821.96145  22320659.6954                   22320657.5044
 -23169710.56248 -18023147.32046  20873654.2034                   20873651.3674
 -26511000.34047 -20647112.52745  22150032.4304                   22150027.5474
   5906287.04747   4628395.02744  23783746.1024                   23783744.4734
 -13381956.81248 -10397974.80546  21849077.6884                   21849077.6764
  11585355.21546   9134607.59443  25170517.7894                   25170517.2854
 11  8 16  2 59  0.0000000  0  8G26G29G12G05G02G15G25G21
  -1864811.03147  -1185537.28944  22881920.4694                   22881918.9924
  -8940573.91448  -6943081.96946  21850816.9614                   21850814.4774
 -17983432.51247 -13984018.39545  22330136.1024                   22330133.6604
 -23151108.64848 -18008652.31246  20877194.0234                   20877190.7814
 -26499249.41048 -20637955.95745  22152268.0704                   22152263.8714
   5777790.46147   4528267.93044  23759293.4064                   23759291.9614
 -13383568.14148 -10399230.38746  21848771.3204                   21848771.4494
  11496677.62946   9065508.28543  25153642.9694                   25153643.0354
 11  8 16  2 59 30.0000000  0  8G26G29G12G05G02G15G25G21
  -1983310.34047  -1277874.36344  22859370.8134                   22859368.3634
  -9046435.58648  -7025571.56246  21830671.8444                   21830669.6454
 -17933348.08247 -13944991.56245  22339666.9694                   22339664.2544
 -23132085.46548 -17993829.04746  20880813.9924                   20880811.1134
 -26487402.18048 -20628724.34845  22154523.0234                   22154517.8954
   5649314.57846   4428156.94544  23734845.4774                   23734843.5164
 -13384655.12148 -10400077.38346  21848564.4144                   21848563.7624
  11408013.51246   8996419.46143  25136770.1564                   25136769.7974
 11  8 16  3  0  0.0000000  0  8G26G29G12G05G02G15G25G21
  -2101547.27747  -1370006.99644  22836870.6954                   22836869.1214
  -9152098.21948  -7107906.04746  21810565.1564                   21810562.7504
 -17882982.05147 -13905745.30545  22349251.5784                   22349248.6094
 -23112644.89148 -17978680.53946  20884513.4304                   20884510.4534
 -26475460.14847 -20619418.85545  22156795.2194                   22156790.4534
   5520860.55146   4328063.04344  23710401.0864                   23710400.5744
 -13385221.27748 -10400518.53146  21848456.7114                   21848456.4534
  11319361.10946   8927339.81643  25119900.9614                   25119899.6094
 11  8 16  3  0 30.0000000  0  8G26G29G12G05G02G15G25G21
  -2219521.35547  -1461934.77744  22814420.5474                   22814419.5004
  -9257562.89548  -7190086.27346  21790495.6884                   21790493.2584
 -17832340.61347 -13866284.43745  22358887.5944                   22358885.4144
 -23092792.83648 -17963211.39846  20888290.9144                   20888288.2344
 -26463427.29347 -20610042.60545  22159084.9844                   22159080.6884
   5392427.77046   4227985.62544  23685961.8984                   23685959.6684
 -13385271.89148 -10400557.95346  21848447.0634                   21848447.1414
  11230716.02046   8858265.85943  25103032.6484                   25103029.9264
 11  8 16  3  1  0.0000000  0  8G26G29G12G05G02G15G25G21
  -2337218.29747  -1553646.63344  22792023.6564                   22792022.3444
  -9362816.18748  -7272101.80946  21770466.2974                   21770464.8204
 -17781415.86747 -13826602.84445  22368578.6484                   22368576.1294
 -23072520.60248 -17947414.84846  20892148.7734                   20892145.9344
 -26451291.70347 -20600586.31245  22161394.5234                   22161389.9064
   5264030.25447   4127935.71144  23661527.7274                   23661526.4574
 -13384797.65648 -10400188.43746  21848537.1254                   21848537.3134
  11142089.16446   8789206.12143  25086167.1024                   25086165.1334
 11  8 16  3  1 30.0000000  0  8G26G29G12G05G02G15G25G21
  -2454628.40647  -1645134.98045  22769682.0864                   22769679.8634
  -9467850.36748  -7353946.58646  21750479.3284                   21750476.7114
 -17730205.39847 -13786698.57045  22378323.4534                   22378321.2664
 -23051824.88748 -17931288.32046  20896086.9774                   20896083.8444
 -26439047.89847 -20591045.68045  22163724.4454                   22163719.2234
   5135676.64547   4027920.03544  23637102.8834                   23637101.6054
 -13383794.88348 -10399407.05146  21848728.1644                   21848728.2664
  11053485.23446   8720164.23843  25069305.7814                   25069303.5664
 11  8 16  3  2  0.0000000  0  8G26G29G12G05G02G15G25G21
  -2571763.69147  -1736409.18045  22747391.5944                   22747389.6994
  -9572678.52348  -7435630.83246  21730531.3754                   21730528.8594
 -17678727.70747 -13746586.10945  22388119.4924                   22388117.3714
 -23030723.26648 -17914845.48446  20900102.8364                   20900099.4344
 -26426711.11748 -20581432.59845  22166071.5784                   22166067.5124
   5007354.28947   3927928.66444  23612684.0704                   23612683.1134
 -13382280.97748 -10398227.37546  21849016.1094                   21849016.0004
  10964888.22346   8651127.75843  25052446.2424                   25052445.0274
 11  8 16  3  2 30.0000000  0  8G26G29G12G05G02G15G25G21
  -2688622.00447  -1827467.55544  22725153.6884                   22725151.9844
  -9677300.02048  -7517154.04746  21710622.2664                   21710619.8914
 -17626987.21547 -13706268.84845  22397965.1644                   22397963.5354
 -23009219.99247 -17898089.68746  20904194.5634                   20904190.9884
 -26414282.73047 -20571748.14545  22168437.0944                   22168432.6174
   4879064.54347   3827962.74244  23588271.3594                   23588269.9774
 -13380259.23848 -10396651.98446  21849401.0784                   21849401.0004
  10876296.08646   8582095.00843  25035587.2504                   25035586.3594
 11  8 16  3  3  0.0000000  0  8G26G29G12G05G02G15G25G21
  -2805193.55147  -1918302.48444  22702970.4844                   22702969.6804
  -9781706.35248  -7598509.60246  21690754.2034                   21690752.0824
 -17574980.81647 -13665744.39545  22407862.3284                   22407859.3754
 -22987310.94948 -17881017.68746  20908363.3284                   20908360.4734
 -26401756.26248 -20561987.26645  22170820.4614                   22170815.9574
   4750816.73447   3728029.50444  23563866.4534                   23563864.8594
 -13377725.46548 -10394677.60546  21849882.8284                   21849882.9774
  10787714.46546   8513070.51643  25018731.0314                   25018730.8834
 11  8 16  3  3 30.0000000  0  8G26G29G12G05G02G15G25G21
  -2921476.28147  -2008912.35245  22680843.4144                   22680841.9534
  -9885897.27748  -7679697.30146  21670927.2894                   21670925.2274
 -17522713.32847 -13625016.48045  22417808.5634                   22417806.0044
 -22965000.21948 -17863632.70746  20912608.7344                   20912606.1334
 -26389133.66847 -20552151.47745  22173222.7584                   22173218.2074
   4622611.84047   3628129.67644  23539469.4304                   23539467.9494
 -13374683.43448 -10392307.19946  21850461.9614                   21850461.8244
  10699140.72346   8444052.14542  25001875.7424                   25001874.6094
 11  8 16  3  4  0.0000000  0  8G26G29G12G05G02G15G25G21
  -3037471.26647  -2099297.99645  22658769.9224                   22658768.3134
  -9989874.78148  -7760718.70346  21651141.1174                   21651138.6684
 -17470192.30947 -13584091.02745  22427802.8134                   22427800.4224
 -22942294.74248 -17845940.11746  20916929.9144                   20916927.1724
 -26376419.11347 -20542244.03545  22175642.1094                   22175637.7664
   4494448.40247   3528262.14844  23515080.8524                   23515079.8164
 -13371139.50048 -10389545.67246  21851136.6724                   21851136.2344
  10610570.02046   8375036.12542  24985020.8594                   24985019.7974
 11  8 16  3  4 30.0000000  0  8G26G29G12G05G02G15G25G21
  -3153173.53147  -2189455.55145  22636752.3444                   22636750.9654
 -10093635.52748  -7841571.20746  21631396.5084                   21631393.5864
 -17417419.66047 -13542969.49645  22437844.9304                   22437842.2074
 -22919195.89848 -17827941.01246  20921325.6174                   20921322.8524
 -26363611.32847 -20532263.94145  22178079.2664                   22178074.7584
   4366330.39547   3428430.02344  23490701.4614                   23490699.4224
 -13367094.71548 -10386393.89146  21851906.0164                   21851906.3164
  10522002.89845   8306023.00042  24968167.4924                   24968166.9654
 11  8 16  3  5  0.0000000  0  8G26G29G12G05G02G15G25G21
  -3268574.12147  -2279378.04745  22614792.3364                   22614790.9614
 -10197172.07448  -7922249.01246  21611693.6174                   21611691.6994
 -17364393.33247 -13501650.28145  22447935.2034                   22447932.6334
 -22895700.86748 -17809633.19546  20925796.3984                   20925793.8244
 -26350704.58647 -20522206.74245  22180535.5634                   22180530.7814
   4238266.30947   3328639.91844  23466331.6484                   23466329.9384
 -13362545.51648 -10382849.05946  21852771.7734                   21852771.8244
  10433443.98446   8237016.11742  24951314.4144                   24951314.4924
 11  8 16  3  5 30.0000000  0  8G26G29G12G05G02G15G25G21
  -3383672.88347  -2369065.35545  22592889.7274                   22592887.8594
 -10300485.37548  -8002752.85246  21592033.9844                   21592031.2974
 -17311119.73047 -13460138.39145  22458073.1804                   22458071.0354
 -22871815.41448 -17791021.15246  20930341.6484                   20930338.5984
 -26337702.42647 -20512075.18745  22183009.9144                   22183005.0314
   4110255.51647   3228891.31344  23441971.0084                   23441969.8444
 -13357497.58248 -10378915.59446  21853732.4064                   21853732.0314
  10344889.38346   8168012.63742  24934463.9304                   24934463.2344
 11  8 16  3  6  0.0000000  0  8G26G29G12G05G02G15G25G21
  -3498473.31247  -2458520.18045  22571043.8984                   22571042.4694
 -10403580.39548  -8083086.60546  21572415.6484                   21572413.2344
 -17257609.22747 -13418441.91045  22468255.9844                   22468253.6374
 -22847548.73448 -17772112.04346  20934959.7814                   20934956.8484
 -26324611.64548 -20501874.58245  22185500.8284                   22185496.4694
   3982293.90247   3129181.03944  23417621.1804                   23417619.1684
 -13351960.05148 -10374600.62946  21854786.0004                   21854785.9734
  10256331.42646   8099006.47342  24917611.2664                   24917611.9694
 11  8 16  3  6 30.0000000  0  8G26G29G12G05G02G15G25G21
  -3612968.13747  -2547736.89145  22549256.8284                   22549254.8834
 -10506451.12548  -8163245.59446  21552840.0394                   21552837.0864
 -17203860.74247 -13376559.98445  22478483.6254                   22478481.0164
 -22822899.78548 -17752905.06246  20939650.0634                   20939646.7974
 -26311427.90648 -20491601.54745  22188009.2504                   22188004.9304
   3854388.01247   3029514.19944  23393282.0554                   23393279.9064
 -13345931.17648 -10369902.81646  21855933.1644                   21855933.1804
  10167773.22346   8030000.19143  24900759.3444                   24900759.9144
 11  8 16  3  7  0.0000000  0  8G26G29G12G05G02G15G25G21
  -3727144.55147  -2636705.46545  22527529.6724                   22527527.6994
 -10609086.49648  -8243221.17246  21533308.7664                   21533306.2774
 -17149868.31647 -13334487.97745  22488758.3834                   22488755.5554
 -22797862.04748 -17733395.13346  20944414.1804                   20944411.4654
 -26298142.83648 -20481249.55145  22190537.2974                   22190532.4844
   3726549.78547   2929900.07844  23368954.7894                   23368953.3284
 -13339404.24248 -10364816.87946  21857175.3284                   21857175.0354
  10079222.99246   7961000.11343  24883907.8914                   24883907.6524
 11  8 16  3  7 30.0000000  0  8G26G29G12G05G02G15G25G21
  -3840998.70347  -2725422.92645  22505863.9144                   22505861.9774
 -10711483.37948  -8323010.93446  21513823.4694                   21513821.0864
 -17095635.02047 -13292228.26245  22499078.4534                   22499076.0124
 -22772437.35548 -17713583.68046  20949252.4614                   20949249.5634
 -26284755.53148 -20470817.87945  22193085.1094                   22193080.6524
   3598782.63347   2830341.35944  23344641.2114                   23344639.3094
 -13332380.82448 -10359344.09446  21858511.7584                   21858511.9024
   9990680.81646   7892006.35542  24867059.7194                   24867058.0514
 11  8 16  3  8  0.0000000  0  8G26G29G12G05G02G15G25G21
  -3954542.29347  -2813898.42645  22484256.8364                   22484255.3324
 -10813655.41848  -8402625.47746  21494380.7664                   21494378.1844
 -17041179.74647 -13249795.60245  22509441.0474                   22509438.5634
 -22746643.88348 -17693484.87146  20954161.5164                   20954158.2384
 -26271281.03548 -20460318.25845  22195648.8444                   22195644.4264
   3471074.17247   2730828.34844  23320338.6804                   23320336.7734
 -13324878.63348 -10353498.21946  21859939.4304                   21859939.3594
   9902130.48846   7823006.18443  24850208.8054                   24850206.9804
 11  8 16  3  8 30.0000000  0  8G26G29G12G05G02G15G25G21
  -4067757.62547  -2902118.11745  22462712.9534                   22462710.9384
 -10915586.16848  -8482052.00046  21474984.0314                   21474982.1454
 -16986491.12147 -13207181.10545  22519847.9844                   22519845.2154
 -22720469.57448 -17673089.29346  20959141.5784                   20959138.6644
 -26257705.23048 -20449739.71145  22198232.5004                   22198227.8634
   3343441.25047   2631374.22744  23296051.0164                   23296049.2464
 -13316885.70348 -10347269.94946  21861460.5634                   21861460.5204
   9813585.46546   7754010.13743  24833359.8914                   24833357.2344
 11  8 16  3  9  0.0000000  0  8G26G29G12G05G02G15G25G21
  -4180645.59447  -2990082.74645  22441231.1414                   22441229.1174
 -11017277.58248  -8561292.04746  21455632.8054                   21455630.0944
 -16931576.37947 -13164390.40645  22530297.9384                   22530295.3834
 -22693921.75048 -17652402.66846  20964193.8594                   20964190.5474
 -26244032.07847 -20439085.30545  22200834.2114                   22200830.3364
   3215882.87147   2531978.18844  23271777.3674                   23271775.3014
 -13308408.47348 -10340664.32446  21863073.7424                   21863073.6294
   9725041.28946   7685014.79343  24816510.8524                   24816508.3094
 11  8 16  3  9 30.0000000  0  8G26G29G12G05G02G15G25G21
  -4293202.57047  -3077789.42245  22419812.2344                   22419810.4024
 -11118727.23048  -8640343.69146  21436327.5554                   21436325.2774
 -16876439.19147 -13121426.36745  22540790.2664                   22540787.7854
 -22667002.36348 -17631426.52346  20969316.1644                   20969313.6414
 -26230261.55148 -20428355.02345  22203454.8054                   22203450.0234
   3088401.46547   2432642.09444  23247518.2034                   23247516.7114
 -13299449.32848 -10333683.16846  21864778.3674                   21864778.4144
   9636496.62546   7616019.03943  24799660.5394                   24799659.1054
 11  8 16  3 10  0.0000000  0  8G26G29G12G05G02G15G25G21
  -4405423.77347  -3165234.46945  22398457.0234                   22398454.8444
 -11219932.00448  -8719204.52346  21417068.5394                   21417066.1844
 -16821081.24247 -13078290.34445  22551325.0394                   22551322.4924
 -22639712.98448 -17610162.06646  20974508.9694                   20974506.5274
 -26216392.48447 -20417547.94545  22206094.0474                   22206089.8094
   2961001.55547   2333369.51244  23223275.2424                   23223273.2344
 -13290009.26648 -10326327.27746  21866574.6804                   21866574.5944
   9547952.52346   7547023.69943  24782810.8594                   24782809.6604
 11  8 16  3 10 30.0000000  0  8G26G29G12G05G02G15G25G21
  -4517303.71547  -3252413.61345  22377166.7894                   22377165.3674
 -11320887.79348  -8797871.34846  21397857.4924                   21397854.9264
 -16765503.98047 -13034983.39845  22561900.6254                   22561897.8714
 -22612054.32048 -17588609.84846  20979772.4534                   20979769.7304
 -26202422.69948 -20406662.40645  22208752.6414                   22208747.8634
   2833687.85947   2234164.14844  23199048.2114                   23199046.1484
 -13280088.79348 -10318597.03946  21868462.7584                   21868462.6454
   9459410.21546   7478029.79343  24765961.7664                   24765959.9144
 11  8 16  3 11  0.0000000  0  8G26G29G12G05G02G15G25G21
  -4628833.55147  -3339319.94945  22355943.2814                   22355941.6374
 -11421586.66848  -8876337.98046  21378695.2194                   21378692.5554
 -16709704.84447 -12991503.57445  22572518.2344                   22572516.6054
 -22584023.42248 -17566767.59446  20985106.7584                   20985103.7544
 -26188346.63747 -20395694.04345  22211431.0864                   22211426.3914
   2706468.74247   2135032.46944  23174838.6884                   23174837.0044
 -13269684.81648 -10310490.03946  21870442.2974                   21870442.2934
   9370874.20746   7409040.76243  24749113.9454                   24749112.0514
 11  8 16  3 11 30.0000000  0  8G26G29G12G05G02G15G25G21
  -4740019.12547  -3425958.01645  22334785.3204                   22334783.8404
 -11522035.90648  -8954610.08646  21359580.2974                   21359578.1724
 -16653696.33247 -12947860.61745  22583176.7504                   22583174.5044
 -22555632.04748 -17544644.43446  20990509.1884                   20990506.2934
 -26174173.05147 -20384649.68745  22214128.3054                   22214123.4414
   2579337.80947   2035969.49645  23150646.7974                   23150644.8094
 -13258808.76248 -10302015.18746  21872512.1954                   21872511.9574
   9282334.96146   7340049.27043  24732265.7344                   24732263.3164
 11  8 16  3 12  0.0000000  0  8G26G29G12G05G02G15G25G21
  -4850858.85247  -3512326.59045  22313693.0864                   22313691.7734
 -11622235.60948  -9032687.75046  21340512.7814                   21340510.1454
 -16597483.90647 -12904058.73445  22593873.5314                   22593871.5234
 -22526884.73048 -17522243.93046  20995979.2274                   20995976.9264
 -26159904.37148 -20373531.22745  22216843.0554                   22216838.6454
   2452295.91447   1936975.91045  23126471.5164                   23126469.3324
 -13247465.23848 -10293176.07446  21874670.7194                   21874670.8164
   9193789.49246   7271052.89843  24715415.8674                   24715413.9614
 11  8 16  3 12 30.0000000  0  8G26G29G12G05G02G15G25G21
  -4961352.14847  -3598425.22745  22292667.0164                   22292665.5434
 -11722185.90648  -9110571.06646  21321493.0864                   21321490.7704
 -16541073.47747 -12860102.58645  22604608.1644                   22604606.0004
 -22497787.04747 -17499570.39846  21001517.0704                   21001513.7814
 -26145543.10248 -20362340.62945  22219576.3364                   22219571.6804
   2325343.23847   1838051.82045  23102313.0394                   23102311.1334
 -13235659.45348 -10283976.76646  21876916.8524                   21876917.1024
   9105234.30546   7202048.98043  24698564.4064                   24698562.1564
 11  8 16  3 13  0.0000000  0  8G26G29G12G05G02G15G25G21
  -5071482.98447  -3684241.41845  22271709.7734                   22271708.4064
 -11821872.29748  -9188248.74246  21302523.3054                   21302521.2774
 -16484455.89147 -12815985.00845  22615382.3984                   22615379.7894
 -22468329.04748 -17476616.10546  21007122.4384                   21007119.4804
 -26131076.75047 -20351068.13345  22222328.8134                   22222324.4574
   2198494.94947   1739209.07044  23078174.3054                   23078172.9264
 -13223381.40648 -10274409.46946  21879253.9454                   21879254.2504
   9016681.47346   7133046.88743  24681712.6564                   24681711.8674
 11  8 16  3 13 30.0000000  0  8G26G29G12G05G02G15G25G21
  -5181256.16047  -3769778.91445  22250820.9844                   22250818.3754
 -11921300.72348  -9265725.41446  21283602.2974                   21283599.9184
 -16427642.56247 -12771714.90645  22626193.2664                   22626190.8714
 -22438521.52748 -17453389.46946  21012794.6414                   21012791.8524
 -26116513.02348 -20339719.76645  22225101.0314                   22225095.5634
   2071745.64147   1640443.45745  23054054.8754                   23054052.7464
 -13210641.59848 -10264482.33246  21881677.9384                   21881677.7774
   8928122.02746   7064039.64543  24664860.5634                   24664859.3444
 11  8 16  3 14  0.0000000  0  8G26G29G12G05G02G15G25G21
  -5290669.55147  -3855036.07445  22229999.7194                   22229997.7774
 -12020470.43448  -9343000.48446  21264731.3914                   21264728.4064
 -16370637.99647 -12727295.76245  22637040.9304                   22637038.0944
 -22408368.36348 -17429893.50046  21018532.3204                   21018529.7544
 -26101853.00848 -20328296.38345  22227890.3364                   22227885.6294
   1945097.33647   1541756.55945  23029954.3674                   23029952.1214
 -13197443.91048 -10254198.41846  21884189.3134                   21884189.3364
   8839553.84846   6995025.60543  24648006.7424                   24648004.6334
 11  8 16  3 14 30.0000000  0  8G26G29G12G05G02G15G25G21
  -5399707.36747  -3940000.56245  22209250.6334                   22209248.8914
 -12119366.89148  -9420062.63746  21245911.8754                   21245909.3324
 -16313433.01247 -12682720.46945  22647926.6954                   22647924.6094
 -22377859.89148 -17406120.66046  21024338.1254                   21024335.1334
 -26087084.98448 -20316788.83645  22230700.7734                   22230695.3984
   1818565.15647   1443160.13344  23005876.0474                   23005874.3674
 -13183778.62548 -10243550.14146  21886789.6484                   21886790.2274
   8750988.71846   6926013.91243  24631153.4844                   24631150.5704
 11  8 16  3 15  0.0000000  0  8G26G29G12G05G02G15G25G21
  -5508378.27047  -4024679.14545  22188571.2664                   22188569.7384
 -12217999.83248  -9496919.44946  21227142.8524                   21227140.3284
 -16256043.09447 -12638001.07445  22658847.8754                   22658845.3054
 -22347010.61347 -17382082.26646  21030208.7734                   21030205.7974
 -26072220.41048 -20305206.05145  22233529.5704                   22233524.5904
   1692140.03147   1344647.12144  22981818.0314                   22981815.8914
 -13169660.15248 -10232548.73046  21889476.7664                   21889476.2344
   8662413.77046   6856994.59043  24614297.0944                   24614295.4694
 11  8 16  3 15 30.0000000  0  8G26G29G12G05G02G15G25G21
  -5616662.89147  -4109056.74645  22167965.3054                   22167963.7544
 -12316351.37548  -9573556.98446  21208427.0944                   21208424.6294
 -16198455.46547 -12593127.60945  22669806.0314                   22669804.2344
 -22315807.39548 -17357768.05946  21036146.2664                   21036143.0594
 -26057243.05948 -20293535.37945  22236379.3204                   22236374.2464
   1565840.50847   1246231.98444  22957784.1724                   22957782.0274
 -13155075.19548 -10221183.84046  21892252.0554                   21892251.7304
   8573844.32046   6787979.56643  24597443.7114                   24597441.1914
 11  8 16  3 16  0.0000000  0  8G26G29G12G05G02G15G25G21
  -5724579.13347  -4193147.29345  22147429.6804                   22147427.8284
 -12414440.42248  -9649989.99246  21189761.1804                   21189758.7544
 -16140694.53547 -12548119.11345  22680797.7814                   22680795.7704
 -22284274.16848 -17333196.71546  21042147.0394                   21042144.2074
 -26042174.18448 -20281793.39845  22239247.0004                   22239242.4024
   1439648.23447   1147900.39144  22933770.1174                   22933768.2934
 -13140047.54348 -10209473.97346  21895111.8364                   21895111.7584
   8485258.52746   6718951.78943  24580585.6254                   24580584.2774
 11  8 16  3 16 30.0000000  0  8G26G29G12G05G02G15G25G21
  -5832118.75447  -4276944.37145  22126965.7194                   22126963.9224
 -12512260.02348  -9726213.03546  21171147.0084                   21171144.2584
 -16082758.77347 -12502974.38345  22691822.7034                   22691820.3954
 -22252408.63348 -17308366.41446  21048210.7814                   21048208.1094
 -26027008.84047 -20269976.25045  22242132.4224                   22242128.0204
   1313571.09447   1049658.52344  22909778.5314                   22909776.4614
 -13124574.97348 -10197417.42246  21898056.0944                   21898055.6724
   8396660.36746   6649914.37143  24563725.7584                   24563724.8204
 11  8 16  3 17  0.0000000  0  8G26G29G12G05G02G15G25G21
  -5939271.52747  -4360440.00845  22106575.0784                   22106573.3364
 -12609801.20348  -9802219.11346  21152585.0704                   21152582.6414
 -16024644.73447 -12457690.74645  22702881.0704                   22702879.5204
 -22220206.55948 -17283273.89146  21054338.7034                   21054335.5554
 -26011740.26247 -20258078.65645  22245038.0944                   22245033.4694
   1187618.78947    951513.94145  22885810.6254                   22885808.5664
 -13108653.26248 -10185010.89846  21901085.9694                   21901086.2544
   8308055.97746   6580872.10243  24546865.6724                   24546863.6844
 11  8 16  3 17 30.0000000  0  8G26G29G12G05G02G15G25G21
  -6046035.87547  -4443632.97345  22086258.3054                   22086256.5944
 -12707063.56648  -9878007.93746  21134076.9924                   21134074.5434
 -15966357.58247 -12412272.21945  22713972.7974                   22713970.3954
 -22187672.59448 -17257922.75846  21060529.5864                   21060526.7344
 -25996369.98447 -20246101.82845  22247962.9384                   22247958.3134
   1061792.55947    853467.57845  22861866.5784                   22861864.8134
 -13092286.84448 -10172257.84446  21904199.8674                   21904199.9534
   8219442.98446   6511823.13743  24530002.3754                   24530000.6844
 11  8 16  3 18  0.0000000  0  9G26G18G29G12G05G02G15G25G21
  -6152407.87547  -4526520.21145  22066016.5634                   22066014.3594
  12424626.14856   9714414.41052  24545881.7814                   24545882.2854
 -12804044.44948  -9953577.43446  21115621.9924                   21115619.4614
 -15907899.90647 -12366720.80945  22725096.8054                   22725094.9804
 -22154808.26247 -17232314.18446  21066783.6174                   21066780.7154
 -25980897.43047 -20234045.29745  22250907.1804                   22250903.0314
    936095.57447    755521.91445  22837947.1094                   22837945.6724
 -13075477.78148 -10159159.87546  21907399.0234                   21907398.9224
   8130821.39546   6442767.46143  24513138.2424                   24513136.3054
 11  8 16  3 18 30.0000000  0  9G26G18G29G12G05G02G15G25G21
  -6258385.56247  -4609100.19945  22045849.5084                   22045847.7154
  12303170.05146   9619773.43842  24522771.5004                   24522770.2814
 -12900742.73448 -10028926.72346  21097220.6254                   21097218.4654
 -15849275.96547 -12321039.81645  22736252.3754                   22736250.4654
 -22121618.05548 -17206451.68046  21073099.3284                   21073096.7304
 -25965323.35947 -20221909.66845  22253870.9774                   22253866.4024
    810529.59047    657678.34445  22814052.7034                   22814051.2114
 -13058230.09448 -10145720.11746  21910681.2194                   21910680.9924
   8042189.14846   6373703.48443  24496272.4224                   24496269.9344
 11  8 16  3 19  0.0000000  0  9G26G18G29G12G05G02G15G25G21
  -6363965.90247  -4691370.57045  22025757.9384                   22025756.3134
  12181879.75446   9525261.70742  24499689.7274                   24499689.1484
 -12997156.87548 -10104054.59846  21078873.6644                   21078871.0274
 -15790489.66047 -12275232.34445  22747439.6804                   22747437.2544
 -22088104.89148 -17180337.53146  21079476.5554                   21079473.6294
 -25949648.02747 -20209695.13745  22256854.0234                   22256849.5904
    685097.09047    559938.80145  22790184.3284                   22790181.6724
 -13040546.64847 -10131940.82846  21914046.0554                   21914046.4344
   7953545.15246   6304630.29743  24479404.8054                   24479401.2664
 11  8 16  3 19 30.0000000  0  9G26G18G29G12G05G02G15G25G21
  -6469144.94147  -4773328.23045  22005742.9774                   22005741.5394
  12060756.84846   9430880.37942  24476640.4924                   24476639.7814
 -13093284.12548 -10178958.93046  21060581.5004                   21060578.7624
 -15731543.97347 -12229300.64845  22758656.4144                   22758654.5864
 -22054271.12948 -17153973.56646  21085915.1884                   21085912.3164
 -25933871.16847 -20197401.48845  22259856.0394                   22259852.1294
    559801.78947    462306.16045  22766341.0314                   22766338.8164
 -13022429.82448 -10117823.82046  21917493.8284                   21917493.3754
   7864889.13746   6235547.75443  24462533.2034                   24462530.8874
 11  8 16  3 20  0.0000000  0  9G26G18G29G12G05G02G15G25G21
  -4998502.49647  -3627373.05545  22285597.1174                   22285595.3794
  13515219.63146  10564228.13643  24753416.2734                   24753414.6374
 -11613705.35248  -9026040.38746  21342135.6954                   21342133.2854
 -14097030.27747 -10955653.63745  23069694.7344                   23069692.4964
 -20444706.72348 -15899767.53546  21392204.8524                   21392202.1024
 -24342579.63747 -18957434.06645  22562668.6334                   22562664.7274
   2010064.18447   1592380.82045  23042316.9774                   23042314.3484
 -11428469.30548  -8875776.67646  22220814.2584                   22220813.8914
   9351636.87946   7394052.57443  24745453.0004                   24745449.5864
 11  8 16  3 20 30.0000000  0  9G26G18G29G12G05G02G15G25G21
  -5102881.73447  -3708707.49645  22265734.7814                   22265732.6954
  13394422.12146  10470100.38343  24730429.2034                   24730427.7344
 -11709264.52748  -9100502.06246  21323951.5554                   21323948.7814
 -14037787.55947 -10909490.50445  23080967.5784                   23080965.2624
 -20410251.49248 -15872919.30546  21398761.1954                   21398758.4384
 -24326611.72747 -18944991.54345  22565707.7274                   22565702.7584
   1885039.16447   1494958.77745  23018524.9774                   23018523.3484
 -11409506.10948  -8861000.16446  22224422.6024                   22224422.7274
   9262942.48846   7324940.13743  24728573.7894                   24728571.3914
 11  8 16  3 21  0.0000000  0  9G26G18G29G12G05G02G15G25G21
  -5206845.16047  -3789717.92645  22245950.7584                   22245948.4654
  13273799.78546  10376109.06343  24707475.0234                   24707474.0984
 -11804525.84448  -9174731.64146  21305824.2274                   21305821.5044
 -13978390.27347 -10863206.92245  23092270.9454                   23092268.2664
 -20375478.67648 -15845823.61346  21405378.3364                   21405375.8954
 -24310536.78947 -18932465.62945  22568766.3674                   22568762.1484
   1760164.48847   1397653.91445  22994762.2974                   22994759.9694
 -11390112.90648  -8845888.57846  22228113.0164                   22228112.7034
   9174238.77346   7255820.42643  24711694.1414                   24711691.1334
 11  8 16  3 21 30.0000000  0  9G26G18G29G12G05G02G15G25G21
  -5310393.00047  -3870404.53145  22226246.5314                   22226244.4774
  13153350.16447  10282252.37543  24684554.0784                   24684553.2584
 -11899490.43748  -9248730.00446  21287752.8364                   21287750.6484
 -13918845.25847 -10816808.22345  23103601.8674                   23103599.6174
 -20340394.41048 -15818485.22746  21412055.4534                   21412052.2234
 -24294358.28547 -18919859.00845  22571845.1954                   22571840.5394
   1635439.33247   1300465.53145  22971027.5864                   22971026.3134
 -11370295.91848  -8830446.77746  22231883.9694                   22231884.3874
   9085521.63746   7186690.25843  24694811.4384                   24694808.4654
 11  8 16  3 22  0.0000000  0  9G26G18G29G12G05G02G15G25G21
  -5413518.48047  -3950762.01645  22206622.5554                   22206620.3364
  13033077.85946  10188533.81643  24661667.3594                   24661665.7894
 -11994152.42248  -9322492.57846  21269739.3834                   21269736.3164
 -13859152.25847 -10770294.21945  23114961.0554                   23114958.7344
 -20304998.08648 -15790903.67246  21418790.5784                   21418787.6764
 -24278072.81247 -18907169.03945  22574943.9614                   22574939.4734
   1510870.12547   1203398.66445  22947322.3054                   22947320.8834
 -11350054.58248  -8814674.31246  22235736.0004                   22235735.7344
   8996794.06646   7117551.94143  24677926.8524                   24677924.0274
 11  8 16  3 22 30.0000000  0  9G26G18G29G12G05G02G15G25G21
  -5516224.10547  -4030792.34045  22187077.5864                   22187075.7504
  12912977.93846  10094949.58642  24638812.5704                   24638810.7774
 -12088515.62148  -9396022.32846  21251782.3594                   21251780.0594
 -13799320.28547 -10723671.93745  23126346.9614                   23126344.6524
 -20269297.96148 -15763085.39846  21425584.0944                   21425581.5704
 -24261685.77747 -18894399.93745  22578062.5634                   22578057.9304
   1386454.55947   1106451.53545  22923647.5084                   22923645.6914
 -11329397.27048  -8798577.71146  22239666.9614                   22239666.7974
   8908049.60247   7048400.47743  24661039.5864                   24661037.0274
 11  8 16  3 23  0.0000000  0  9G26G18G29G12G05G02G15G25G21
  -5618504.53547  -4110491.35245  22167614.7664                   22167612.6684
  12793054.05546  10001502.51642  24615991.1804                   24615990.3244
 -12182576.06648  -9469316.16446  21233883.1174                   21233880.7734
 -13739350.62947 -10676942.37145  23137758.5474                   23137756.0824
 -20233294.71148 -15735030.91846  21432435.2504                   21432432.2464
 -24245195.10247 -18881550.07445  22581200.3984                   22581195.9454
   1262197.39147   1009627.80945  22900001.4694                   22899999.8914
 -11308324.84448  -8782157.64546  22243677.1884                   22243677.0084
   8819289.25846   6979236.67243  24644149.0314                   24644146.5704
 11  8 16  3 23 30.0000000  0  9G26G18G29G12G05G02G15G25G21
  -5720359.15647  -4189858.56245  22148231.9144                   22148230.6644
  12673304.28546   9908191.17242  24593203.4224                   24593202.9064
 -12276333.77748  -9542374.09846  21216041.5394                   21216039.2344
 -13679249.11347 -10630110.04745  23149195.6724                   23149192.9534
 -20196993.55148 -15706744.29746  21439343.1804                   21439340.4454
 -24228602.90647 -18868621.10945  22584358.0634                   22584353.5984
   1138098.70347    912927.56345  22876386.9064                   22876384.2664
 -11286842.63748  -8765418.25846  22247764.4534                   22247765.0234
   8730509.96547   6910058.07443  24627255.0394                   24627252.6214
 11  8 16  3 24  0.0000000  0  9G26G18G29G12G05G02G15G25G21
  -5821775.37947  -4268884.16445  22128933.3134                   22128931.1954
  12553739.27046   9815023.82442  24570450.8914                   24570449.8244
 -12369777.34048  -9615187.26646  21198259.9924                   21198257.5234
 -13619009.76647 -10583170.32445  23160658.3914                   23160656.2114
 -20160387.82448 -15678220.35546  21446309.2034                   21446306.0864
 -24211899.87147 -18855605.77345  22587536.2504                   22587531.8524
   1014170.91047    816360.49245  22852803.8364                   22852801.6644
 -11264944.10548  -8748354.46546  22251931.8204                   22251931.6684
   8641720.67646   6840871.67243  24610359.0234                   24610356.6214
 11  8 16  3 24 30.0000000  0  9G26G18G29G12G05G02G15G25G21
  -5922753.79348  -4347568.60545  22109717.6254                   22109715.5784
  12434355.95346   9721997.97342  24547733.0944                   24547731.8634
 -12462908.56648  -9687757.02746  21180537.6484                   21180535.2114
 -13558639.57047 -10536128.66045  23172146.3984                   23172144.6294
 -20123484.10248 -15649464.20746  21453331.7974                   21453328.7194
 -24195090.01247 -18842507.18045  22590735.3834                   22590731.0704
    890413.10947    719925.87945  22829253.7664                   22829251.7034
 -11242636.02048  -8730971.55546  22256176.9614                   22256177.1564
   8552916.69146   6771673.87943  24593459.9144                   24593457.4344
 11  8 16  3 25  0.0000000  0  9G26G18G29G12G05G02G15G25G21
  -6023297.41447  -4425914.25045  22090585.3054                   22090582.9774
  12315149.49646   9629109.95343  24525048.9924                   24525047.2974
 -12555731.18748  -9760086.33246  21162874.2814                   21162871.4304
 -13498147.96547 -10488992.37945  23183657.9774                   23183656.0314
 -20086291.30148 -15620482.80146  21460408.8524                   21460406.2384
 -24178179.14547 -18829329.90245  22593952.9384                   22593949.1804
    766821.88347    623621.04745  22805734.9224                   22805732.6454
 -11219927.40248  -8713276.53946  22260498.6094                   22260498.4304
   8464091.14846   6702459.25043  24576557.5004                   24576554.1644
 11  8 16  3 25 30.0000000  0  9G26G18G29G12G05G02G15G25G21
  -6123393.68447  -4503911.32045  22071537.1644                   22071535.5514
  12196129.85946   9536367.48843  24502399.7274                   24502398.5864
 -12648233.91848  -9832166.35246  21145271.1954                   21145268.6954
 -13437528.80547 -10441756.71144  23195193.8364                   23195191.3834
 -20048802.70348 -15591270.90246  21467542.9774                   21467539.8524
 -24161157.45347 -18816066.25845  22597192.2504                   22597188.1414
    643409.48047    527455.57845  22782250.0314                   22782248.3094
 -11196811.86348  -8695264.42645  22264897.1024                   22264896.8054
   8375252.67246   6633234.59043  24559651.0474                   24559648.8054
 11  8 16  3 26  0.0000000  0  9G26G18G29G12G05G02G15G25G21
  -6223041.13347  -4581558.64845  22052575.0784                   22052573.0594
  12077296.68846   9443770.35243  24479786.8674                   24479784.9344
 -12740416.15648  -9903996.65246  21127729.5944                   21127727.3164
 -13376787.05547 -10394425.49245  23206752.8364                   23206750.0704
 -20011022.18048 -15561831.52746  21474732.9304                   21474729.6134
 -24144026.67647 -18802717.61745  22600452.3444                   22600447.6174
    520177.44547    431430.65245  22758800.1254                   22758798.2894
 -11173293.75448  -8676938.63346  22269372.7814                   22269372.9344
   8286399.45746   6563998.37943  24542742.6644                   24542740.4304
 11  8 16  3 26 30.0000000  0  9G26G18G29G12G05G02G15G25G21
  -6322234.53547  -4658852.18045  22033699.2114                   22033697.3404
  11958652.90646   9351320.75443  24457209.4454                   24457207.6644
 -12832274.03148  -9975574.19946  21110249.7584                   21110247.4224
 -13315924.02047 -10346999.79745  23218334.0864                   23218331.9264
 -19972950.85548 -15532165.56246  21481977.2584                   21481973.9964
 -24126784.54347 -18789282.20345  22603733.6884                   22603728.8834
    397130.48847    335549.93445  22735384.6564                   22735382.8984
 -11149374.12948  -8658299.96946  22273924.3524                   22273923.8364
   8197532.36746   6494751.38743  24525831.8674                   24525829.7424
 11  8 16  3 27  0.0000000  0  9G26G18G29G12G05G02G15G25G21
  -6420971.46147  -4735790.01645  22014910.4534                   22014908.3014
  11840198.77746   9259018.95743  24434668.4614                   24434666.5124
 -12923805.75048 -10046897.60546  21092831.9614                   21092829.5864
 -13254943.57447 -10299482.59045  23229938.5234                   23229936.4774
 -19934592.03147 -15502275.57046  21489276.6484                   21489273.6054
 -24109431.37947 -18775760.26645  22607035.4614                   22607031.2894
    274270.84847    239815.19145  22712005.3364                   22712003.5354
 -11125056.47347  -8639351.15646  22278551.6804                   22278551.9144
   8108650.07046   6425492.52343  24508918.4224                   24508916.1884
 11  8 16  3 27 30.0000000  0  9G26G18G29G12G05G02G15G25G21
  -6519256.79347  -4812375.96945  21996206.8204                   21996204.8754
  11721927.07046   9166859.35543  24412162.6414                   24412160.1604
 -13015017.41048 -10117971.59846  21075474.9534                   21075472.2774
 -13193857.13347 -10251882.79745  23241562.7344                   23241560.6804
 -19895956.48048 -15472169.94146  21496628.6414                   21496625.9064
 -24091975.57447 -18762158.36345  22610357.0004                   22610352.6604
    151593.43047    144222.43845  22688660.3834                   22688658.2894
 -11100351.79747  -8620100.75046  22283252.7974                   22283253.0704
   8019744.12146   6356215.26243  24491999.7584                   24491997.9774
 11  8 16  3 28  0.0000000  0  9G26G18G29G12G05G02G15G25G21
  -6617079.90247  -4888601.73445  21977591.7274                   21977589.9964
  11603846.40646   9074848.59043  24389692.0084                   24389690.3244
 -13105899.62548 -10188788.89846  21058180.5474                   21058177.8164
 -13132660.39547 -10204197.05144  23253208.2504                   23253205.8634
 -19857039.76648 -15441845.22746  21504034.2504                   21504031.6054
 -24074409.21947 -18748470.31245  22613699.9384                   22613695.3524
     29108.53947     48779.71145  22665352.5784                   22665350.0904
 -11075255.75047  -8600545.39845  22288028.3524                   22288028.3054
   7930821.20746   6286924.78943  24475078.4224                   24475076.4104
 11  8 16  3 28 30.0000000  0  9G26G18G29G12G05G02G15G25G21
  -6714433.00447  -4964461.26645  21959066.3284                   21959063.9654
  11485962.39146   8982991.04343  24367258.9534                   24367257.3914
 -13196445.06248 -10259343.77046  21040950.0474                   21040947.5984
 -13071351.99647 -10156424.28944  23264874.8594                   23264872.6024
 -19817838.86748 -15411299.06646  21511493.9534                   21511490.9884
 -24056727.32847 -18734692.21945  22617064.8134                   22617060.2894
    -93175.86747    -46506.78545  22642082.5004                   22642080.6414
 -11049766.31248  -8580683.49246  22292878.9144                   22292878.8244
   7841885.65646   6217624.45743  24458154.8754                   24458151.7274
 11  8 16  3 29  0.0000000  0  9G26G18G29G12G05G02G15G25G21
  -6811314.50047  -5039953.30545  21940630.3054                   21940628.3524
  11368274.65246   8891286.42243  24344863.2584                   24344862.1334
 -13286653.39148 -10329635.96146  21023783.9614                   21023781.5704
 -13009936.53947 -10108568.14544  23276561.5004                   23276559.7974
 -19778358.48448 -15380535.14146  21519006.8594                   21519004.0124
 -24038931.18747 -18720825.11345  22620451.0474                   22620446.6334
   -215258.68747   -141636.21545  22618851.2194                   22618848.6374
 -11023888.00047  -8560518.59045  22297803.5634                   22297804.1024
   7752934.96546   6148312.32043  24441227.2034                   24441225.4454
 11  8 16  3 29 30.0000000  0  9G26G18G29G12G05G02G15G25G21
  -6907727.93747  -5115080.64545  21922283.5004                   21922281.4264
  11250777.40645   8799730.26642  24322503.9844                   24322502.7664
 -13376529.05948 -10399668.93446  21006681.0004                   21006678.5984
 -12948423.95747 -10060636.31244  23288267.2194                   23288265.4184
 -19738608.23848 -15349560.92646  21526570.8984                   21526568.3554
 -24021027.39547 -18706874.11745  22623858.3444                   22623853.6724
   -337143.57447   -236611.40645  22595657.2734                   22595654.6914
 -10997630.55947  -8540058.24245  22302800.1644                   22302800.0434
   7663962.00046   6078982.81343  24424296.2974                   24424294.3014
 11  8 16  3 30  0.0000000  0  9G26G18G29G12G05G02G15G25G21
  -7003666.46147  -5189837.90645  21904026.8524                   21904024.5004
  11133475.05946   8708325.97743  24300182.3984                   24300181.0204
 -13466066.28948 -10469438.19146  20989643.2504                   20989640.5864
 -12886813.55147 -10012628.20744  23299991.0784                   23299988.8364
 -19698586.80948 -15318375.38746  21534186.9224                   21534184.4064
 -24003012.06247 -18692836.20345  22627286.5864                   22627281.9304
   -458824.06247   -331427.32445  22572502.2894                   22572500.1604
 -10970993.14547  -8519301.83245  22307868.8204                   22307868.9494
   7574969.97746   6009638.48443  24407361.6564                   24407359.5984
 11  8 16  3 30 30.0000000  0  9G26G18G29G12G05G02G15G25G21
  -7099132.69547  -5264227.16045  21885860.3444                   21885858.2854
  11016363.00046   8617069.92242  24277897.3054                   24277895.8524
 -13555268.52048 -10538946.41046  20972668.4384                   20972665.5984
 -12825114.77747  -9964551.28144  23311732.1174                   23311730.2894
 -19658302.42648 -15286984.95746  21541852.6644                   21541849.6844
 -23984890.82447 -18678715.77345  22630735.1174                   22630730.6134
   -580302.66047   -426085.92245  22549385.3754                   22549383.5864
 -10943984.53547  -8498256.16845  22313008.3984                   22313008.4104
   7485952.47346   5940274.30943  24390421.8204                   24390420.4454
 11  8 16  3 31  0.0000000  0  9G26G18G29G12G05G02G15G25G21
  -7194113.17247  -5338237.91045  21867786.1484                   21867784.2074
  10899453.08646   8525971.38743  24255649.9224                   24255647.6134
 -13644123.18748 -10608183.80146  20955760.0314                   20955757.1724
 -12763319.98447  -9916399.53144  23323491.7114                   23323489.4064
 -19617747.32848 -15255383.58646  21549570.1484                   21549567.1914
 -23966652.74247 -18664504.29745  22634205.7034                   22634201.2544
   -701566.05147   -520576.84445  22526309.5704                   22526307.2894
 -10916597.06247  -8476915.30145  22318220.4144                   22318220.5474
   7396919.55946   5870898.05943  24373479.6334                   24373477.3874
 11  8 16  3 31 30.0000000  0  9G26G18G29G12G05G02G15G25G21
  -7288613.63747  -5411874.60945  21849803.0474                   21849801.1334
  10782736.65646   8435023.56343  24233439.6884                   24233436.6884
 -13732637.13348 -10677155.68746  20938916.0634                   20938913.7154
 -12701441.72347  -9868182.75044  23335267.0084                   23335264.0204
 -19576933.55948 -15223580.65246  21557336.4144                   21557333.8204
 -23948306.64547 -18650208.65645  22637696.7194                   22637692.1294
   -822620.55947   -614904.99645  22503273.9694                   22503271.2894
 -10888842.94547  -8455288.72346  22323501.9064                   22323501.2814
   7307861.44146   5801502.21543  24356532.4454                   24356530.0944
 11  8 16  3 32  0.0000000  0  9G26G18G29G12G05G02G15G25G21
  -7382623.77047  -5485129.23845  21831913.8984                   21831911.3714
  10666222.44946   8344233.36343  24211267.3284                   24211265.0354
 -13820800.54348 -10745854.42246  20922139.5944                   20922136.7664
 -12639475.06247  -9819897.05545  23347058.6094                   23347056.1954
 -19535855.38348 -15191571.68046  21565153.6724                   21565150.9024
 -23929844.66447 -18635822.70345  22641209.7194                   22641205.6844
   -943455.26647   -709061.85545  22480279.6884                   22480277.1684
 -10860717.42647  -8433372.74245  22328854.0634                   22328854.0704
   7218785.14546   5732092.20343  24339581.8284                   24339579.2384
 11  8 16  3 32 30.0000000  0  9G26G18G29G12G05G02G15G25G21
  -7476144.03947  -5558002.14845  21814117.0004                   21814115.1604
  10549907.94946   8253598.74643  24189133.6174                   24189130.5084
 -13908615.01248 -10814281.26646  20905428.8134                   20905425.9494
 -12577427.04347  -9771547.98045  23358865.7734                   23358863.8524
 -19494519.44548 -15159361.85546  21573019.5944                   21573016.5434
 -23911270.40647 -18621349.27045  22644745.0164                   22644739.9384
  -1064070.92647   -803048.03945  22457327.0084                   22457324.8834
 -10832227.21547  -8411172.57845  22334275.5004                   22334275.3404
   7129686.47746   5662664.72743  24322627.4304                   24322624.7034
 11  8 16  3 33  0.0000000  0  9G26G18G29G12G05G02G15G25G21
  -7569177.25047  -5630495.53945  21796413.5944                   21796411.6334
  10433787.83647   8163115.61743  24167036.2974                   24167033.4384
 -13996084.17247 -10882439.02746  20888783.3834                   20888781.2814
 -12515306.49647  -9723142.37545  23370686.7034                   23370684.6954
 -19452934.22748 -15126957.78946  21580933.1484                   21580930.2544
 -23892589.14147 -18606792.44145  22648299.5634                   22648295.0234
  -1184470.72747   -896866.02345  22434415.9064                   22434413.3714
 -10803381.14147  -8388695.12945  22339764.6564                   22339764.4384
   7040559.03146   5593214.84444  24305666.7734                   24305663.8554
 11  8 16  3 33 30.0000000  0  9G26G18G29G12G05G02G15G25G21
  -7661715.37947  -5702603.14145  21778804.3054                   21778802.1804
  10317868.38747   8072788.82443  24144977.9694                   24144975.6524
 -14083200.88748 -10950322.16046  20872206.1334                   20872203.4104
 -12453111.97347  -9674679.11744  23382521.7894                   23382519.7234
 -19411097.22348 -15094357.51646  21588894.2584                   21588891.3014
 -23873795.83647 -18592148.30145  22651875.1884                   22651871.5664
  -1304646.43447   -990509.38345  22411547.0704                   22411544.7344
 -10774177.25847  -8365938.84845  22345322.0864                   22345322.3554
   6951407.45746   5523746.14844  24288702.0084                   24288698.8094
 11  8 16  3 34  0.0000000  0  9G26G18G29G12G05G02G15G25G21
  -7753755.21147  -5774322.48445  21761289.6484                   21761287.6994
  10202150.68847   7982619.26643  24122957.6174                   24122955.0784
 -14169962.75448 -11017928.80946  20855695.9064                   20855693.2664
 -12390846.16447  -9626160.34844  23394370.9064                   23394369.2274
 -19369010.93748 -15061563.01646  21596903.1024                   21596899.8364
 -23854889.64847 -18577416.22745  22655472.8674                   22655468.8524
  -1424594.84847  -1083975.64545  22388721.3834                   22388719.2424
 -10744618.20348  -8342905.82846  22350946.5004                   22350946.5944
   6862231.51647   5454258.46143  24271732.0944                   24271729.5984
 11  8 16  3 34 30.0000000  0  9G26G18G29G12G05G02G15G25G21
  -7845290.60247  -5845648.73445  21743870.8674                   21743868.6604
  10086638.60246   7892609.94143  24100976.2344                   24100974.1884
 -14256364.14548 -11085254.54746  20839254.3674                   20839251.4264
 -12328509.52747  -9577586.35944  23406233.0474                   23406230.8554
 -19326674.79348 -15028573.81646  21604959.6254                   21604956.1604
 -23835868.03547 -18562594.21145  22659093.2814                   22659088.8484
  -1544310.26647  -1177260.34045  22365940.3754                   22365938.1684
 -10714704.09047  -8319596.14145  22356639.3984                   22356639.5204
   6773033.92647   5384753.91843  24254758.6334                   24254755.3244
 11  8 16  3 35  0.0000000  0  9G26G18G29G12G05G02G15G25G21
  -7936321.33647  -5916581.75045  21726548.1954                   21726546.3094
   9971330.43046   7802759.51243  24079032.9304                   24079031.4494
 -14342406.28148 -11152300.34446  20822880.8284                   20822877.9304
 -12266107.34446  -9528961.30544  23418107.8524                   23418105.3404
 -19284094.11748 -14995394.05546  21613062.1884                   21613059.3834
 -23816732.69947 -18547683.57045  22662734.5634                   22662729.6724
  -1663792.27747  -1270363.16845  22343204.1024                   22343201.8364
 -10684440.52347  -8296014.14846  22362398.4224                   22362398.5044
   6683810.95746   5315229.55543  24237779.9064                   24237776.4574
 11  8 16  3 35 30.0000000  0  9G26G18G29G12G05G02G15G25G21
  -8026839.48447  -5987115.34045  21709323.7344                   21709321.4964
   9856231.89846   7713072.50043  24057130.0164                   24057128.4414
 -14428081.87548 -11219060.52346  20806577.2974                   20806574.5164
 -12203638.25846  -9480284.10944  23429994.9144                   23429993.7814
 -19241266.57848 -14962021.94946  21621212.0944                   21621208.9064
 -23797478.92247 -18532680.63344  22666398.0234                   22666393.3444
  -1783032.53147  -1363277.60545  22320513.4384                   22320510.8204
 -10653825.74247  -8272158.47345  22368223.6024                   22368223.8594
   6594567.12946   5245688.98044  24220797.3834                   24220794.4064
 11  8 16  3 36  0.0000000  0  9G26G18G29G12G05G02G15G25G21
  -8116850.11747  -6057253.47345  21692194.8204                   21692193.0044
   9741336.23846   7623543.49643  24035266.2504                   24035264.6914
 -14513396.75448 -11285539.63746  20790342.4304                   20790339.8634
 -12141112.97746  -9431563.13344  23441893.9614                   23441891.7974
 -19198202.43748 -14928465.45746  21629406.7974                   21629403.8634
 -23778114.06247 -18517591.15645  22670083.2424                   22670078.7384
  -1902036.19547  -1456007.68445  22297867.4304                   22297865.1484
 -10622870.62547  -8248037.60945  22374114.6414                   22374114.7704
   6505294.09846   5176125.64543  24203808.8204                   24203806.1644
 11  8 16  3 36 30.0000000  0  9G26G18G29G12G05G02G15G25G21
  -8206349.40247  -6126993.16045  21675163.7584                   21675162.0474
   9626645.06346   7534173.87943  24013441.8054                   24013439.9694
 -14598347.80148 -11351735.24646  20774176.6174                   20774173.9264
 -12078533.93446  -9382800.27044  23453802.4454                   23453799.6484
 -19154903.70748 -14894726.19546  21637646.4224                   21637643.7154
 -23758637.03147 -18502414.24645  22673789.8284                   22673785.3984
  -2020799.68747  -1548550.61345  22275267.2814                   22275265.0044
 -10591577.37947  -8223653.27045  22380069.4454                   22380069.7734
   6415992.34846   5106539.94543  24186814.9534                   24186812.0824
 11  8 16  3 37  0.0000000  0  9G26G18G29G12G05G02G15G25G21
  -8295327.66847  -6196326.83645  21658231.4144                   21658229.6374
   9512165.75046   7444969.27343  23991656.9694                   23991655.1294
 -14682926.19548 -11417640.47746  20758082.0164                   20758079.0004
 -12015897.86347  -9333992.93444  23465721.5394                   23465719.1174
 -19111366.19948 -14860800.86746  21645931.1884                   21645928.2974
 -23739040.89147 -18487144.52344  22677518.7894                   22677514.4964
  -2139313.31247  -1640898.85945  22252714.9694                   22252712.8834
 -10559942.41848  -8199002.64845  22386089.5234                   22386088.9734
   6326667.85946   5036936.50043  24169817.4694                   24169814.5314
 11  8 16  3 37 30.0000000  0  9G26G18G29G12G05G02G15G25G21
  -8383792.98847  -6265260.82845  21641397.1024                   21641394.6294
   9397888.36746   7355922.07443  23969910.9924                   23969908.1524
 -14767140.58648 -11483262.06646  20742056.7034                   20742054.2504
 -11953218.25847  -9285151.71944  23477649.3524                   23477646.9454
 -19067603.32448 -14826699.92246  21654258.6954                   21654256.2074
 -23719336.00447 -18471790.08245  22681268.6024                   22681263.8094
  -2257584.86747  -1733058.46145  22230208.6724                   22230205.8674
 -10527979.64848  -8174096.58245  22392172.0784                   22392171.5784
   6237309.66446   4967306.77044  24152812.7974                   24152810.2114
 11  8 16  3 38  0.0000000  0  9G26G18G29G12G05G02G15G25G21
  -8471733.98047  -6333786.24645  21624662.5554                   21624660.4304
   9283822.30547   7267039.50843  23948205.1724                   23948202.0314
 -14850980.68448 -11548591.99246  20726102.3594                   20726099.4534
 -11890490.04747  -9236272.62144  23489585.7344                   23489584.0274
 -19023609.15648 -14792418.74246  21662630.3984                   21662627.7704
 -23699514.55947 -18456344.80545  22685040.4064                   22685035.6804
  -2375603.41847  -1825020.94545  22207750.4614                   22207748.4064
 -10495683.77748  -8148930.96545  22398317.6094                   22398317.1994
   6147925.56346   4897656.87943  24135803.9924                   24135801.2734
 11  8 16  3 38 30.0000000  0  9G26G18G29G12G05G02G15G25G21
  -8559138.29347  -6401893.47345  21608029.9694                   21608027.6484
   9169978.03947   7178329.73043  23926540.9224                   23926538.3634
 -14934434.46148 -11613620.90646  20710221.7504                   20710218.8094
 -11827706.64847  -9187350.49244  23501533.1334                   23501531.2704
 -18979376.69548 -14757951.89146  21671047.8834                   21671044.6094
 -23679565.60947 -18440800.17645  22688836.1564                   22688832.3164
  -2493355.92247  -1916776.10945  22185343.0164                   22185340.3914
 -10463048.21147  -8123500.66845  22404527.8284                   22404527.8634
   6058524.22346   4827993.55143  24118791.2194                   24118788.3524
 11  8 16  3 39  0.0000000  0  9G26G18G29G12G05G02G15G25G21
  -8646016.61348  -6469590.85245  21591497.8134                   21591495.2854
   9056342.46946   7089782.55143  23904916.8444                   23904913.9924
 -15017513.66048 -11678357.92646  20694412.3134                   20694409.8634
 -11764884.93447  -9138398.52344  23513487.6414                   23513485.6174
 -18934922.21948 -14723312.04346  21679507.4614                   21679504.5234
 -23659502.78947 -18425166.81645  22692654.1094                   22692650.3284
  -2610853.11747  -2008332.32445  22162984.2274                   22162981.1094
 -10430089.80947  -8097818.78545  22410799.7194                   22410799.3014
   5969092.06347   4758306.22343  24101772.5394                   24101769.8794
 11  8 16  3 39 30.0000000  0  9G26G18G29G12G05G02G15G25G21
  -8732356.32848  -6536868.52345  21575068.1414                   21575065.6994
   8942926.71947   7001406.74643  23883334.4774                   23883331.5314
 -15100206.17648 -11742793.64146  20678676.6334                   20678673.6564
 -11702018.09047  -9089411.39145  23525450.8364                   23525449.4924
 -18890238.21148 -14688493.33246  21688010.1564                   21688007.6174
 -23639316.36347 -18409437.15645  22696495.8054                   22696491.1914
  -2728082.32447  -2099679.72345  22140675.6804                   22140673.2934
 -10396801.73847  -8071880.03145  22417133.8524                   22417134.0784
   5879637.94146   4688601.77343  24084750.4844                   24084747.2504
